[[{"header":{"parameterUnit":"m.s-1","parameterCategory":1,"la1":31.0,"la2":29.5877,"lo1":-88.7671,"lo2":-86.6584,"dy":0.0162,"dx":0.0185,"nx":115,"ny":88,"refTime":"2023-05-07T06:00:00:Z","depth":0,"parameterNumber":2,"parameterNumberName":"U-component_of_WINDS"},"data":[0.0,0.0,0.0,0.0,0.0,0.0,0.0,0.0,0.0,0.0,0.0,0.0,0.0,0.0,0.0,0.0,0.0,0.0,0.0,0.0,0.0,0.0,0.0,0.0,0.0,0.0,0.0,0.0,0.0,0.0,0.0,0.0,0.0,0.0,0.0,0.0,0.0,0.0,0.0,0.0,0.0,0.0,0.0,0.0,0.0,0.0,0.0,0.0,0.0,0.0,0.0,0.0,0.0,0.0,0.0,0.0,0.0,0.0,0.0,0.0,0.0,0.0,0.0,0.0,0.0,0.0,0.0,0.0,0.0,0.0,0.0,0.0,0.0,0.0,0.0,0.0,0.0,0.0,0.0,0.0,0.0,0.0,0.0,0.0,0.0,0.0,0.0,0.0,0.0,0.0,0.0,0.0,0.0,0.0,0.0,0.0,0.0,0.0,0.0,0.0,0.0,0.0,0.0,0.0,0.0,0.0,0.0,0.0,0.0,0.0,0.0,0.0,0.0,0.0,0.0,0.0,0.0,0.0,0.0,0.0,0.0,0.0,0.0,0.0,0.0,0.0,0.0,0.0,0.0,0.0,0.0,0.0,0.0,0.0,0.0,0.0,0.0,0.0,0.0,0.0,0.0,0.0,0.0,0.0,0.0,0.0,0.0,0.0,0.0,0.0,0.0,0.0,0.0,0.0,0.0,0.0,0.0,0.0,0.0,0.0,0.0,0.0,0.0,0.0,0.0,0.0,0.0,0.0,0.0,0.0,0.0,0.0,0.0,0.0,0.0,0.0,0.0,0.0,0.0,0.0,0.0,0.0,0.0,0.0,0.0,0.0,0.0,0.0,0.0,0.0,0.0,0.0,0.0,0.0,0.0,0.0,0.0,0.0,0.0,0.0,0.0,0.0,0.0,0.0,0.0,0.0,0.0,0.0,0.0,0.0,0.0,0.0,0.0,0.0,0.0,0.0,0.0,0.0,0.0,0.0,0.0,0.0,0.0,0.0,0.0,0.0,0.0,0.0,0.0,0.0,0.0,0.0,0.0,0.0,0.0,0.0,0.0,0.0,0.0,0.0,0.0,0.0,0.0,0.0,0.0,0.0,0.0,0.0,0.0,0.0,0.0,0.0,0.0,0.0,0.0,0.0,0.0,0.0,0.0,0.0,0.0,0.0,0.0,0.0,0.0,0.0,0.0,0.0,0.0,0.0,0.0,0.0,0.0,0.0,0.0,0.0,0.0,0.0,0.0,0.0,0.0,0.0,0.0,0.0,0.0,0.0,0.0,0.0,0.0,0.0,0.0,0.0,0.0,0.0,0.0,0.0,0.0,0.0,0.0,0.0,0.0,0.0,0.0,0.0,0.0,0.0,0.0,0.0,0.0,0.0,0.0,0.0,0.0,0.0,0.0,0.0,0.0,0.0,0.0,0.0,0.0,0.0,0.0,0.0,0.0,0.0,0.0,0.0,0.0,0.0,0.0,0.0,0.0,0.0,0.0,0.0,0.0,0.0,0.0,0.0,0.0,0.0,0.0,0.0,0.0,0.0,0.0,0.0,0.0,0.0,0.0,0.0,0.0,0.0,0.0,0.0,0.0,0.0,0.0,0.0,0.0,0.0,0.0,0.0,0.0,0.0,0.0,0.0,0.0,0.0,0.0,0.0,0.0,0.0,0.0,0.0,0.0,0.0,0.0,0.0,0.0,0.0,0.0,0.0,0.0,0.0,0.0,0.0,0.0,0.0,0.0,0.0,0.0,0.0,0.0,0.0,0.0,0.0,0.0,0.0,0.0,0.0,0.0,0.0,0.0,0.0,0.0,0.0,0.0,0.0,0.0,0.0,0.0,0.0,0.0,0.0,0.0,0.0,0.0,0.0,0.0,0.0,0.0,0.0,0.0,0.0,0.0,0.0,0.0,0.0,0.0,0.0,0.0,0.0,0.0,0.0,0.0,0.0,0.0,0.0,0.0,0.0,0.0,0.0,0.0,0.0,0.0,0.0,0.0,0.0,0.0,0.0,0.0,0.0,0.0,0.0,0.0,0.0,0.0,0.0,0.0,0.0,0.0,0.0,0.0,0.0,0.0,0.0,0.0,0.0,0.0,0.0,0.0,0.0,0.0,0.0,0.0,0.0,0.0,0.0,0.0,0.0,0.0,0.0,0.0,0.0,0.0,0.0,0.0,0.0,0.0,0.0,0.0,0.0,0.0,0.0,0.0,0.0,0.0,0.0,0.0,0.0,0.0,0.0,0.0,0.0,0.0,0.0,0.0,0.0,0.0,0.0,0.0,0.0,0.0,0.0,0.0,0.0,0.0,0.0,0.0,0.0,0.0,0.0,0.0,0.0,0.0,0.0,0.0,0.0,0.0,0.0,0.0,0.0,0.0,0.0,0.0,0.0,0.0,0.0,0.0,0.0,0.0,0.0,0.0,0.0,0.0,0.0,0.0,0.0,0.0,0.0,0.0,0.0,0.0,0.0,0.0,0.0,0.0,0.0,0.0,0.0,0.0,0.0,0.0,0.0,0.0,0.0,0.0,0.0,0.0,0.0,0.0,0.0,0.0,0.0,0.0,0.0,0.0,0.0,0.0,0.0,0.0,0.0,0.0,0.0,0.0,0.0,0.0,0.0,0.0,0.0,0.0,0.0,0.0,0.0,0.0,0.0,0.0,0.0,0.0,0.0,0.0,0.0,0.0,0.0,0.0,0.0,0.0,0.0,0.0,0.0,0.0,0.0,0.0,0.0,0.0,0.0,0.0,0.0,0.0,0.0,0.0,0.0,0.0,0.0,0.0,0.0,0.0,0.0,0.0,0.0,0.0,0.0,0.0,0.0,0.0,0.0,0.0,0.0,0.0,0.0,0.0,0.0,0.0,0.0,0.0,0.0,0.0,0.0,0.0,0.0,0.0,0.0,0.0,0.0,0.0,0.0,0.0,0.0,0.0,0.0,0.0,0.0,0.0,0.0,0.0,0.0,0.0,0.0,0.0,0.0,0.0,0.0,0.0,0.0,0.0,0.0,0.0,0.0,0.0,0.0,0.0,0.0,0.0,0.0,0.0,0.0,0.0,0.0,0.0,0.0,0.0,0.0,0.0,0.0,0.0,0.0,0.0,0.0,0.0,0.0,0.0,0.0,0.0,0.0,0.0,0.0,0.0,0.0,0.0,0.0,0.0,0.0,0.0,0.0,0.0,0.0,0.0,0.0,0.0,0.0,0.0,0.0,0.0,0.0,0.0,0.0,0.0,0.0,0.0,0.0,0.0,0.0,0.0,0.0,0.0,0.0,0.0,0.0,0.0,0.0,0.0,0.0,0.0,0.0,0.0,0.0,0.0,0.0,0.0,0.0,0.0,0.0,0.0,0.0,0.0,0.0,0.0,0.0,0.0,0.0,0.0,0.0,0.0,0.0,0.0,0.0,0.0,0.0,0.0,0.0,0.0,0.0,0.0,0.0,0.0,0.0,0.0,0.0,0.0,0.0,0.0,0.0,0.0,0.0,0.0,0.0,0.0,0.0,0.0,0.0,0.0,0.0,0.0,0.0,0.0,0.0,0.0,0.0,0.0,0.0,0.0,0.0,0.0,0.0,0.0,0.0,0.0,0.0,0.0,0.0,0.0,0.0,0.0,0.0,0.0,0.0,0.0,0.0,0.0,0.0,0.0,0.0,0.0,0.0,0.0,0.0,0.0,0.0,0.0,0.0,0.0,0.0,0.0,0.0,0.0,0.0,0.0,0.0,0.0,0.0,0.0,0.0,0.0,0.0,0.0,0.0,0.0,0.0,0.0,0.0,0.0,0.0,0.0,0.0,0.0,0.0,0.0,0.0,0.0,0.0,0.0,0.0,0.0,0.0,0.0,0.0,0.0,0.0,0.0,0.0,0.0,0.0,0.0,0.0,0.0,0.0,0.0,0.0,0.0,0.0,0.0,0.0,0.0,0.0,0.0,0.0,0.0,0.0,0.0,0.0,0.0,0.0,0.0,0.0,0.0,0.0,0.0,0.0,0.0,0.0,0.0,0.0,0.0,0.0,0.0,0.0,0.0,0.0,0.0,0.0,0.0,0.0,0.0,0.0,0.0,0.0,0.0,0.0,0.0,0.0,0.0,0.0,0.0,0.0,0.0,0.0,0.0,0.0,0.0,0.0,0.0,0.0,0.0,0.0,0.0,0.0,0.0,0.0,0.0,0.0,0.0,0.0,0.0,0.0,0.0,0.0,0.0,0.0,0.0,0.0,0.0,0.0,0.0,0.0,0.0,0.0,0.0,0.0,0.0,0.0,0.0,0.0,0.0,0.0,-0.9813,0.0,0.0,0.0,0.0,0.0,0.0,0.0,0.0,0.0,0.0,0.0,0.0,0.0,0.0,0.0,0.0,0.0,0.0,0.0,0.0,0.0,0.0,0.0,0.0,0.0,0.0,0.0,0.0,0.0,0.0,0.0,0.0,0.0,0.0,0.0,0.0,0.0,0.0,0.0,0.0,0.0,0.0,0.0,0.0,0.0,0.0,0.0,0.0,0.0,0.0,0.0,0.0,0.0,0.0,0.0,0.0,0.0,0.0,0.0,0.0,0.0,0.0,0.0,0.0,0.0,0.0,0.0,0.0,0.0,0.0,0.0,0.0,0.0,0.0,0.0,0.0,0.0,0.0,0.0,0.0,0.0,0.0,0.0,0.0,0.0,0.0,0.0,0.0,0.0,0.0,0.0,0.0,0.0,0.0,0.0,0.0,0.0,0.0,0.0,0.0,0.0,0.0,0.0,0.0,0.0,0.0,0.0,0.0,0.0,0.0,-0.9872,-0.9832,-0.9793,-0.9753,-0.9753,0.0,0.0,0.0,0.0,0.0,0.0,0.0,0.0,0.0,0.0,0.0,0.0,0.0,0.0,0.0,0.0,0.0,0.0,0.0,0.0,0.0,0.0,0.0,0.0,0.0,0.0,0.0,0.0,0.0,0.0,0.0,0.0,0.0,0.0,0.0,0.0,0.0,0.0,0.0,0.0,0.0,0.0,0.0,0.0,0.0,0.0,0.0,0.0,0.0,0.0,0.0,0.0,0.0,0.0,0.0,0.0,0.0,0.0,0.0,0.0,0.0,0.0,0.0,0.0,0.0,0.0,0.0,0.0,0.0,0.0,0.0,0.0,0.0,0.0,0.0,0.0,0.0,0.0,0.0,0.0,0.0,0.0,0.0,0.0,0.0,0.0,0.0,0.0,0.0,0.0,0.0,0.0,0.0,0.0,0.0,0.0,0.0,0.0,0.0,0.0,0.0,0.0,0.0,0.0,0.0,0.0,0.0,0.0,0.0,0.0,0.0,0.0,-0.9683,-0.9634,-0.9585,0.0,0.0,0.0,0.0,0.0,0.0,0.0,0.0,0.0,0.0,0.0,0.0,0.0,0.0,0.0,0.0,0.0,0.0,0.0,0.0,0.0,0.0,0.0,0.0,0.0,0.0,0.0,0.0,0.0,0.0,0.0,0.0,0.0,0.0,0.0,0.0,0.0,0.0,0.0,0.0,0.0,0.0,0.0,0.0,0.0,0.0,0.0,0.0,0.0,0.0,0.0,0.0,0.0,0.0,0.0,0.0,0.0,0.0,0.0,0.0,0.0,0.0,0.0,0.0,0.0,0.0,0.0,0.0,0.0,0.0,0.0,0.0,0.0,0.0,0.0,0.0,0.0,0.0,0.0,0.0,0.0,0.0,0.0,0.0,0.0,0.0,0.0,0.0,0.0,0.0,0.0,0.0,0.0,0.0,0.0,0.0,0.0,0.0,0.0,0.0,0.0,0.0,0.0,0.0,0.0,0.0,0.0,0.0,0.0,0.0,-0.9723,-0.9723,-0.9563,0.0,-0.9328,0.0,0.0,0.0,0.0,0.0,0.0,0.0,0.0,0.0,0.0,0.0,0.0,0.0,0.0,0.0,0.0,0.0,0.0,0.0,0.0,0.0,0.0,0.0,0.0,0.0,0.0,0.0,0.0,0.0,0.0,0.0,0.0,0.0,0.0,0.0,0.0,0.0,0.0,0.0,0.0,0.0,0.0,0.0,0.0,0.0,0.0,0.0,0.0,0.0,0.0,0.0,0.0,0.0,0.0,0.0,0.0,0.0,0.0,0.0,0.0,0.0,0.0,0.0,0.0,0.0,0.0,0.0,0.0,0.0,0.0,0.0,0.0,0.0,0.0,0.0,0.0,0.0,0.0,0.0,0.0,0.0,0.0,0.0,0.0,0.0,0.0,0.0,0.0,0.0,0.0,0.0,0.0,0.0,0.0,0.0,0.0,0.0,0.0,0.0,0.0,0.0,0.0,0.0,0.0,0.0,0.0,0.0,0.0,0.0,0.0,-0.9457,-0.9457,-0.9417,-0.9288,0.0,0.0,0.0,0.0,0.0,0.0,0.0,0.0,0.0,0.0,0.0,0.0,0.0,0.0,0.0,0.0,0.0,0.0,0.0,0.0,0.0,0.0,0.0,0.0,0.0,0.0,0.0,0.0,0.0,0.0,0.0,0.0,0.0,0.0,0.0,0.0,0.0,0.0,0.0,0.0,0.0,0.0,0.0,0.0,0.0,0.0,0.0,0.0,0.0,0.0,0.0,0.0,0.0,0.0,0.0,0.0,0.0,0.0,0.0,0.0,0.0,0.0,0.0,0.0,0.0,0.0,0.0,0.0,0.0,0.0,0.0,0.0,0.0,0.0,0.0,0.0,0.0,0.0,0.0,0.0,0.0,0.0,0.0,0.0,0.0,0.0,0.0,0.0,0.0,0.0,0.0,0.0,0.0,0.0,0.0,0.0,0.0,0.0,0.0,0.0,0.0,0.0,0.0,0.0,0.0,0.0,0.0,0.0,0.0,0.0,-0.9328,-0.9248,-0.9208,-0.9168,-0.9088,-0.8935,0.0,0.0,0.0,0.0,0.0,0.0,0.0,0.0,0.0,0.0,0.0,0.0,0.0,0.0,0.0,0.0,0.0,0.0,0.0,0.0,0.0,0.0,0.0,0.0,0.0,0.0,0.0,0.0,0.0,0.0,0.0,0.0,0.0,0.0,0.0,0.0,0.0,0.0,0.0,0.0,0.0,0.0,0.0,0.0,0.0,0.0,0.0,0.0,0.0,0.0,0.0,0.0,0.0,0.0,0.0,0.0,0.0,0.0,0.0,0.0,0.0,0.0,0.0,0.0,0.0,0.0,0.0,0.0,0.0,0.0,0.0,0.0,0.0,0.0,0.0,0.0,0.0,0.0,0.0,0.0,0.0,0.0,0.0,0.0,0.0,0.0,0.0,0.0,0.0,0.0,0.0,0.0,0.0,0.0,0.0,0.0,0.0,0.0,0.0,0.0,0.0,0.0,0.0,0.0,0.0,0.0,0.0,0.0,0.0,-0.9217,-0.9105,-0.892,-0.892,-0.8862,0.0,0.0,0.0,0.0,0.0,0.0,0.0,0.0,0.0,0.0,0.0,0.0,0.0,0.0,0.0,0.0,0.0,0.0,0.0,0.0,0.0,0.0,0.0,0.0,0.0,0.0,0.0,0.0,0.0,0.0,0.0,0.0,0.0,0.0,0.0,0.0,0.0,0.0,0.0,0.0,0.0,0.0,0.0,0.0,0.0,0.0,0.0,0.0,0.0,0.0,0.0,0.0,0.0,0.0,0.0,0.0,0.0,0.0,0.0,0.0,0.0,0.0,0.0,0.0,0.0,0.0,0.0,0.0,0.0,0.0,0.0,0.0,0.0,0.0,0.0,0.0,0.0,0.0,0.0,0.0,0.0,0.0,0.0,0.0,0.0,0.0,0.0,0.0,0.0,0.0,0.0,0.0,0.0,0.0,0.0,0.0,0.0,0.0,0.0,0.0,0.0,0.0,0.0,0.0,0.0,0.0,0.0,0.0,0.0,-0.9088,-0.8967,-0.8846,-0.8773,-0.8873,-0.8911,0.0,0.0,0.0,0.0,0.0,0.0,0.0,0.0,0.0,0.0,0.0,0.0,0.0,0.0,0.0,0.0,0.0,0.0,0.0,0.0,0.0,0.0,0.0,0.0,0.0,0.0,0.0,0.0,0.0,0.0,0.0,0.0,0.0,0.0,0.0,0.0,0.0,0.0,0.0,0.0,0.0,0.0,0.0,0.0,0.0,0.0,0.0,0.0,0.0,0.0,0.0,0.0,0.0,0.0,0.0,0.0,0.0,0.0,0.0,0.0,0.0,0.0,0.0,0.0,0.0,0.0,0.0,0.0,0.0,0.0,0.0,0.0,0.0,0.0,0.0,0.0,0.0,0.0,0.0,0.0,0.0,0.0,0.0,0.0,0.0,0.0,0.0,0.0,0.0,0.0,0.0,0.0,0.0,0.0,0.0,0.0,0.0,0.0,0.0,0.0,0.0,0.0,0.0,0.0,0.0,0.0,0.0,0.0,0.0,-0.8948,0.0,-0.8877,0.0,-0.8929,-0.896,0.0,0.0,0.0,0.0,0.0,0.0,0.0,0.0,0.0,0.0,0.0,0.0,0.0,0.0,0.0,0.0,0.0,0.0,0.0,0.0,0.0,0.0,0.0,0.0,0.0,0.0,0.0,0.0,0.0,0.0,0.0,0.0,0.0,0.0,0.0,0.0,0.0,0.0,0.0,0.0,0.0,0.0,0.0,0.0,0.0,0.0,0.0,0.0,0.0,0.0,0.0,0.0,0.0,0.0,0.0,0.0,0.0,0.0,0.0,0.0,0.0,0.0,0.0,0.0,0.0,0.0,0.0,0.0,0.0,0.0,0.0,0.0,0.0,0.0,0.0,0.0,0.0,0.0,0.0,0.0,0.0,0.0,0.0,0.0,0.0,0.0,0.0,0.0,0.0,0.0,0.0,0.0,0.0,0.0,0.0,0.0,0.0,0.0,0.0,0.0,0.0,0.0,0.0,0.0,0.0,0.0,0.0,0.0,-0.8765,-0.8802,-0.9186,-0.9244,-0.9028,-0.8982,-0.8989,0.0,0.0,0.0,0.0,0.0,0.0,0.0,0.0,0.0,0.0,0.0,0.0,0.0,0.0,0.0,0.0,0.0,0.0,0.0,0.0,0.0,0.0,0.0,0.0,0.0,0.0,0.0,0.0,0.0,0.0,0.0,0.0,0.0,0.0,0.0,0.0,0.0,0.0,0.0,0.0,0.0,0.0,0.0,0.0,0.0,0.0,0.0,0.0,0.0,0.0,0.0,0.0,0.0,0.0,0.0,0.0,0.0,0.0,0.0,0.0,0.0,0.0,0.0,0.0,0.0,0.0,0.0,0.0,0.0,0.0,0.0,0.0,0.0,0.0,0.0,0.0,0.0,0.0,0.0,0.0,0.0,0.0,0.0,0.0,0.0,0.0,0.0,0.0,0.0,0.0,0.0,0.0,0.0,0.0,0.0,0.0,0.0,0.0,0.0,0.0,0.0,0.0,0.0,0.0,0.0,0.0,0.0,0.0,0.0,-0.9111,-0.9121,-0.9082,-0.8997,-0.9033,-0.9055,0.0,0.0,0.0,0.0,0.0,0.0,0.0,0.0,0.0,0.0,0.0,0.0,0.0,0.0,0.0,0.0,0.0,0.0,0.0,0.0,0.0,0.0,0.0,0.0,0.0,0.0,0.0,0.0,0.0,0.0,0.0,0.0,0.0,0.0,0.0,0.0,0.0,0.0,0.0,0.0,0.0,0.0,0.0,0.0,0.0,0.0,0.0,0.0,0.0,0.0,0.0,0.0,0.0,0.0,0.0,0.0,0.0,0.0,0.0,0.0,0.0,0.0,0.0,0.0,0.0,0.0,0.0,0.0,0.0,0.0,0.0,0.0,0.0,0.0,0.0,0.0,0.0,0.0,0.0,0.0,0.0,0.0,0.0,0.0,0.0,0.0,0.0,0.0,0.0,0.0,0.0,0.0,0.0,0.0,0.0,0.0,0.0,0.0,0.0,0.0,0.0,0.0,0.0,0.0,0.0,0.0,0.0,0.0,0.0,-0.9425,-0.932,-0.9264,-0.9216,-0.9219,-0.9177,-0.9184,0.0,0.0,0.0,0.0,0.0,0.0,0.0,0.0,0.0,0.0,0.0,0.0,0.0,0.0,0.0,0.0,0.0,0.0,0.0,0.0,0.0,0.0,0.0,0.0,0.0,0.0,0.0,0.0,0.0,0.0,0.0,0.0,0.0,0.0,0.0,0.0,0.0,0.0,0.0,0.0,0.0,0.0,0.0,0.0,0.0,0.0,0.0,0.0,0.0,0.0,0.0,0.0,0.0,0.0,0.0,0.0,0.0,0.0,0.0,0.0,0.0,0.0,0.0,0.0,0.0,0.0,0.0,0.0,0.0,0.0,0.0,0.0,0.0,0.0,0.0,0.0,0.0,0.0,0.0,0.0,0.0,0.0,0.0,0.0,0.0,0.0,0.0,0.0,0.0,0.0,0.0,0.0,0.0,0.0,0.0,0.0,0.0,0.0,0.0,0.0,0.0,0.0,0.0,0.0,0.0,0.0,0.0,0.0,-0.9799,-0.9799,-0.9725,-0.9599,-0.9451,-0.9413,0.0,0.0,0.0,0.0,0.0,0.0,0.0,0.0,0.0,0.0,0.0,0.0,0.0,0.0,0.0,0.0,0.0,0.0,0.0,0.0,0.0,0.0,0.0,0.0,0.0,0.0,0.0,0.0,0.0,0.0,0.0,0.0,0.0,0.0,0.0,0.0,0.0,0.0,0.0,0.0,0.0,0.0,0.0,0.0,0.0,0.0,0.0,0.0,0.0,0.0,0.0,0.0,0.0,0.0,0.0,0.0,0.0,0.0,0.0,0.0,0.0,0.0,0.0,0.0,0.0,0.0,0.0,0.0,0.0,0.0,0.0,0.0,0.0,0.0,0.0,0.0,0.0,0.0,0.0,0.0,0.0,0.0,0.0,0.0,0.0,0.0,0.0,0.0,0.0,0.0,0.0,0.0,0.0,0.0,0.0,0.0,0.0,0.0,0.0,0.0,0.0,0.0,0.0,0.0,0.0,0.0,0.0,0.0,0.0,-0.9517,-0.9577,-0.9569,-0.9465,-0.9316,-0.9166,0.0,0.0,0.0,0.0,0.0,0.0,0.0,0.0,0.0,0.0,0.0,0.0,0.0,0.0,0.0,0.0,0.0,0.0,0.0,0.0,0.0,0.0,0.0,0.0,0.0,0.0,0.0,0.0,0.0,0.0,0.0,0.0,0.0,0.0,0.0,0.0,0.0,0.0,0.0,0.0,0.0,0.0,0.0,0.0,0.0,0.0,0.0,0.0,0.0,0.0,0.0,0.0,0.0,0.0,0.0,0.0,0.0,0.0,0.0,0.0,0.0,0.0,0.0,0.0,0.0,0.0,0.0,0.0,0.0,0.0,0.0,0.0,0.0,0.0,0.0,0.0,0.0,0.0,0.0,0.0,0.0,0.0,0.0,0.0,0.0,0.0,0.0,0.0,0.0,0.0,0.0,0.0,0.0,0.0,0.0,0.0,0.0,0.0,0.0,0.0,0.0,0.0,0.0,0.0,0.0,0.0,0.0,0.0,-0.9368,-0.9309,-0.9458,-0.9413,-0.9263,-0.9211,-0.9061,0.0,0.0,0.0,0.0,0.0,0.0,0.0,0.0,0.0,0.0,0.0,0.0,0.0,0.0,0.0,0.0,0.0,0.0,0.0,0.0,0.0,0.0,0.0,0.0,0.0,0.0,0.0,0.0,0.0,0.0,0.0,0.0,0.0,0.0,0.0,0.0,0.0,0.0,0.0,0.0,0.0,0.0,0.0,0.0,0.0,0.0,0.0,0.0,0.0,0.0,0.0,0.0,0.0,0.0,0.0,0.0,0.0,0.0,0.0,0.0,0.0,0.0,0.0,0.0,0.0,0.0,0.0,0.0,0.0,0.0,0.0,0.0,0.0,0.0,0.0,0.0,0.0,0.0,0.0,0.0,0.0,0.0,0.0,0.0,0.0,0.0,0.0,0.0,0.0,0.0,0.0,0.0,0.0,0.0,0.0,0.0,0.0,0.0,0.0,0.0,0.0,0.0,0.0,0.0,0.0,0.0,0.0,0.0,-0.9316,-0.9211,-0.9316,-0.9263,-0.9015,-0.9106,-0.9061,0.0,0.0,0.0,0.0,0.0,0.0,0.0,0.0,0.0,0.0,0.0,0.0,0.0,0.0,0.0,0.0,0.0,0.0,0.0,0.0,0.0,0.0,0.0,0.0,0.0,0.0,0.0,0.0,0.0,0.0,0.0,0.0,0.0,0.0,0.0,0.0,0.0,0.0,0.0,0.0,0.0,0.0,0.0,0.0,0.0,0.0,0.0,0.0,0.0,0.0,0.0,0.0,0.0,0.0,0.0,0.0,0.0,0.0,0.0,0.0,0.0,0.0,0.0,0.0,0.0,0.0,0.0,0.0,0.0,0.0,0.0,0.0,0.0,0.0,0.0,0.0,0.0,0.0,0.0,0.0,0.0,0.0,0.0,0.0,0.0,0.0,0.0,0.0,0.0,0.0,0.0,0.0,0.0,0.0,0.0,0.0,0.0,0.0,0.0,0.0,0.0,0.0,0.0,0.0,0.0,0.0,0.0,0.0,-0.9061,-0.9061,-0.9159,-0.9106,-0.8857,-0.8857,-0.8752,0.0,0.0,0.0,0.0,0.0,0.0,0.0,0.0,0.0,0.0,0.0,0.0,0.0,0.0,0.0,0.0,0.0,0.0,0.0,0.0,0.0,0.0,0.0,0.0,0.0,0.0,0.0,0.0,0.0,0.0,0.0,0.0,0.0,0.0,0.0,0.0,0.0,0.0,0.0,0.0,0.0,0.0,0.0,0.0,0.0,0.0,0.0,0.0,-0.5181,0.0,0.0,0.0,0.0,0.0,0.0,0.0,0.0,0.0,0.0,0.0,0.0,0.0,0.0,0.0,0.0,0.0,0.0,0.0,0.0,0.0,0.0,0.0,0.0,0.0,0.0,0.0,0.0,0.0,0.0,0.0,0.0,0.0,0.0,0.0,0.0,0.0,0.0,0.0,0.0,0.0,0.0,0.0,0.0,0.0,0.0,0.0,0.0,0.0,0.0,0.0,0.0,0.0,0.0,0.0,0.0,0.0,0.0,0.0,-0.8956,-0.891,-0.8956,-0.8903,-0.8692,-0.8593,-0.8374,0.0,0.0,0.0,0.0,0.0,0.0,0.0,0.0,0.0,0.0,0.0,0.0,0.0,0.0,0.0,0.0,0.0,0.0,0.0,0.0,0.0,0.0,0.0,0.0,0.0,0.0,0.0,0.0,0.0,0.0,0.0,0.0,0.0,0.0,0.0,0.0,0.0,0.0,0.0,0.0,0.0,0.0,0.0,0.0,0.0,0.0,0.0,0.0,0.0,0.0,0.0,0.0,0.0,0.0,0.0,0.0,0.0,0.0,0.0,0.0,0.0,0.0,0.0,0.0,0.0,0.0,0.0,0.0,0.0,0.0,0.0,0.0,0.0,0.0,0.0,0.0,0.0,0.0,0.0,0.0,0.0,0.0,0.0,0.0,0.0,0.0,0.0,0.0,0.0,0.0,0.0,0.0,0.0,0.0,0.0,0.0,0.0,0.0,0.0,0.0,0.0,0.0,0.0,0.0,0.0,0.0,0.0,-0.891,-0.891,-0.8811,-0.8804,-0.8692,-0.8573,-0.8268,-0.8062,-0.7842,0.0,0.0,0.0,0.0,0.0,0.0,0.0,0.0,0.0,0.0,0.0,0.0,0.0,0.0,0.0,0.0,0.0,0.0,0.0,0.0,0.0,0.0,0.0,0.0,0.0,0.0,0.0,0.0,0.0,0.0,0.0,0.0,0.0,0.0,0.0,0.0,0.0,0.0,-0.3852,-0.3965,0.0,0.0,0.0,0.0,0.0,0.0,0.0,0.0,-0.5301,0.0,0.0,0.0,0.0,0.0,0.0,0.0,0.0,0.0,0.0,0.0,0.0,0.0,0.0,0.0,0.0,0.0,0.0,0.0,0.0,0.0,0.0,0.0,0.0,0.0,0.0,0.0,0.0,0.0,0.0,0.0,0.0,0.0,0.0,0.0,0.0,0.0,0.0,0.0,0.0,0.0,0.0,0.0,0.0,0.0,0.0,0.0,0.0,0.0,0.0,0.0,0.0,0.0,0.0,0.0,0.0,-0.8956,-0.8857,-0.8811,-0.8804,-0.8685,-0.858,-0.8427,-0.8115,-0.7842,-0.7574,0.0,0.0,0.0,0.0,0.0,0.0,0.0,0.0,0.0,0.0,0.0,0.0,0.0,0.0,0.0,0.0,0.0,0.0,0.0,0.0,0.0,0.0,0.0,0.0,0.0,0.0,0.0,0.0,0.0,0.0,0.0,0.0,0.0,0.0,0.0,0.0,0.0,0.0,0.0,-0.4079,-0.4193,0.0,0.0,0.0,0.0,0.0,0.0,0.0,0.0,-0.5242,0.0,0.0,0.0,0.0,0.0,0.0,0.0,0.0,0.0,0.0,0.0,0.0,0.0,0.0,0.0,0.0,0.0,0.0,0.0,0.0,0.0,0.0,0.0,0.0,0.0,0.0,0.0,0.0,0.0,0.0,0.0,0.0,0.0,0.0,0.0,0.0,0.0,0.0,0.0,0.0,0.0,0.0,0.0,0.0,0.0,0.0,0.0,0.0,0.0,0.0,0.0,0.0,0.0,0.0,0.0,-0.9008,-0.8857,-0.8804,-0.8804,-0.858,-0.8474,-0.8368,-0.7996,-0.7681,0.0,0.0,0.0,0.0,0.0,0.0,0.0,0.0,0.0,0.0,0.0,0.0,0.0,0.0,0.0,0.0,0.0,0.0,0.0,0.0,0.0,0.0,0.0,0.0,0.0,0.0,0.0,0.0,0.0,0.0,0.0,0.0,0.0,0.0,0.0,0.0,0.0,0.0,0.0,0.0,-0.4135,-0.4193,-0.4193,0.0,0.0,0.0,0.0,0.0,0.0,-0.5242,-0.5242,0.0,0.0,0.0,0.0,0.0,0.0,0.0,0.0,0.0,0.0,0.0,0.0,0.0,0.0,0.0,0.0,0.0,0.0,0.0,0.0,0.0,0.0,0.0,0.0,0.0,0.0,0.0,0.0,0.0,0.0,0.0,0.0,0.0,0.0,0.0,0.0,0.0,0.0,0.0,0.0,0.0,0.0,0.0,0.0,0.0,0.0,0.0,0.0,0.0,0.0,0.0,0.0,0.0,0.0,0.0,-0.9061,-0.8857,-0.8804,-0.8804,-0.8533,-0.8368,-0.8368,-0.7943,-0.7622,0.0,0.0,0.0,0.0,0.0,0.0,0.0,0.0,0.0,0.0,0.0,0.0,0.0,0.0,0.0,0.0,0.0,0.0,0.0,0.0,0.0,0.0,0.0,0.0,0.0,0.0,0.0,0.0,0.0,0.0,0.0,0.0,0.0,0.0,0.0,0.0,0.0,0.0,0.0,0.0,0.0,-0.4249,-0.4249,-0.4408,0.0,0.0,0.0,0.0,-0.5014,-0.5128,0.0,0.0,0.0,0.0,0.0,0.0,0.0,0.0,0.0,0.0,0.0,0.0,0.0,0.0,0.0,0.0,0.0,0.0,0.0,0.0,0.0,0.0,0.0,0.0,0.0,0.0,0.0,0.0,0.0,0.0,0.0,0.0,0.0,0.0,0.0,0.0,0.0,0.0,0.0,0.0,0.0,0.0,0.0,0.0,0.0,0.0,0.0,0.0,0.0,0.0,0.0,0.0,0.0,0.0,0.0,0.0,-0.9159,-0.8903,-0.8804,-0.8804,-0.8533,-0.8368,-0.8368,-0.7937,-0.7622,0.0,0.0,0.0,0.0,0.0,0.0,0.0,0.0,0.0,0.0,0.0,0.0,0.0,0.0,0.0,0.0,0.0,0.0,0.0,0.0,0.0,0.0,0.0,0.0,0.0,0.0,0.0,0.0,0.0,0.0,0.0,0.0,0.0,0.0,0.0,0.0,0.0,0.0,0.0,0.0,0.0,-0.4463,-0.4463,-0.4463,-0.4519,0.0,0.0,0.0,-0.4901,-0.4956,0.0,0.0,0.0,0.0,0.0,0.0,0.0,0.0,0.0,0.0,0.0,0.0,0.0,0.0,0.0,0.0,0.0,0.0,0.0,0.0,0.0,0.0,0.0,0.0,0.0,0.0,0.0,0.0,0.0,0.0,0.0,0.0,0.0,0.0,0.0,0.0,0.0,0.0,0.0,0.0,0.0,0.0,0.0,0.0,0.0,0.0,0.0,0.0,0.0,0.0,0.0,0.0,0.0,0.0,0.0,-0.9159,-0.9061,-0.891,-0.8804,-0.8804,-0.8533,-0.8368,-0.8368,-0.7937,-0.7622,0.0,0.0,0.0,0.0,0.0,0.0,0.0,0.0,0.0,0.0,0.0,0.0,0.0,0.0,0.0,0.0,0.0,0.0,0.0,0.0,0.0,0.0,0.0,0.0,0.0,0.0,0.0,0.0,0.0,0.0,0.0,0.0,0.0,0.0,0.0,0.0,0.0,0.0,0.0,0.0,0.0,0.0,-0.4463,-0.4574,0.0,0.0,0.0,-0.4827,-0.4862,0.0,0.0,0.0,0.0,0.0,0.0,0.0,0.0,0.0,0.0,0.0,0.0,0.0,0.0,0.0,0.0,0.0,0.0,0.0,0.0,0.0,0.0,0.0,0.0,0.0,0.0,0.0,0.0,0.0,0.0,0.0,0.0,0.0,0.0,0.0,0.0,0.0,0.0,0.0,0.0,0.0,0.0,0.0,0.0,0.0,0.0,0.0,0.0,0.0,0.0,0.0,0.0,0.0,0.0,0.0,0.0,0.0,-0.9061,-0.891,-0.8857,-0.8804,-0.8533,-0.8368,-0.8368,-0.7996,0.0,0.0,0.0,0.0,0.0,0.0,0.0,0.0,0.0,0.0,0.0,0.0,0.0,0.0,0.0,0.0,0.0,0.0,0.0,0.0,0.0,0.0,0.0,0.0,0.0,0.0,0.0,-0.4408,0.0,0.0,0.0,0.0,0.0,0.0,0.0,0.0,0.0,0.0,0.0,0.0,0.0,0.0,-0.4579,-0.4575,-0.4748,-0.4805,0.0,0.0,-0.4955,-0.4965,-0.4983,-0.5081,0.0,0.0,0.0,0.0,0.0,0.0,0.0,0.0,0.0,0.0,0.0,0.0,0.0,0.0,0.0,0.0,0.0,0.0,0.0,0.0,0.0,0.0,0.0,0.0,0.0,0.0,0.0,0.0,0.0,0.0,0.0,0.0,0.0,0.0,0.0,0.0,0.0,0.0,0.0,0.0,0.0,0.0,0.0,0.0,0.0,0.0,0.0,0.0,0.0,0.0,0.0,0.0,0.0,0.0,0.0,-0.9159,-0.9061,-0.891,-0.8811,-0.8533,-0.8368,-0.8368,-0.8062,-0.7842,0.0,0.0,0.0,0.0,0.0,0.0,0.0,0.0,0.0,0.0,0.0,0.0,0.0,0.0,0.0,0.0,0.0,0.0,0.0,0.0,0.0,0.0,0.0,0.0,0.0,0.0,0.0,0.0,0.0,0.0,0.0,0.0,0.0,0.0,0.0,0.0,0.0,0.0,0.0,0.0,0.0,-0.4887,-0.4887,-0.5069,-0.5182,0.0,0.0,-0.5189,-0.5196,-0.5022,-0.4908,-0.4921,0.0,0.0,0.0,0.0,0.0,0.0,0.0,0.0,0.0,0.0,0.0,0.0,0.0,0.0,0.0,0.0,0.0,0.0,0.0,0.0,0.0,0.0,0.0,0.0,0.0,0.0,0.0,0.0,0.0,0.0,0.0,0.0,0.0,0.0,0.0,0.0,0.0,0.0,0.0,0.0,0.0,0.0,0.0,0.0,0.0,0.0,0.0,0.0,0.0,0.0,0.0,0.0,0.0,-0.9263,-0.9061,-0.9186,-0.918,-0.9017,-0.8793,-0.8629,-0.8622,-0.8195,-0.7842,0.0,0.0,0.0,0.0,0.0,0.0,0.0,0.0,0.0,0.0,0.0,0.0,0.0,0.0,0.0,0.0,0.0,0.0,0.0,0.0,0.0,0.0,0.0,0.0,0.0,0.0,0.0,0.0,-0.4245,-0.4228,-0.42,0.0,0.0,0.0,0.0,0.0,0.0,0.0,0.0,0.0,0.0,-0.4918,-0.4918,-0.5032,0.0,0.0,-0.5161,-0.5251,-0.5158,-0.5175,-0.521,-0.5176,-0.5125,0.0,0.0,0.0,0.0,0.0,0.0,0.0,0.0,0.0,0.0,0.0,0.0,0.0,0.0,0.0,0.0,0.0,0.0,0.0,0.0,0.0,0.0,0.0,0.0,0.0,0.0,0.0,0.0,0.0,0.0,0.0,0.0,0.0,0.0,0.0,0.0,0.0,0.0,0.0,0.0,0.0,0.0,0.0,0.0,0.0,0.0,0.0,0.0,0.0,0.0,0.0,0.0,-0.945,-0.9198,-0.9432,-0.9534,-0.9372,-0.9078,-0.8909,-0.8902,-0.8392,-0.8093,0.0,0.0,0.0,0.0,0.0,0.0,0.0,0.0,0.0,0.0,0.0,0.0,0.0,0.0,0.0,0.0,0.0,0.0,0.0,0.0,0.0,0.0,0.0,0.0,0.0,0.0,0.0,0.0,-0.4405,-0.4359,-0.4395,0.0,0.0,0.0,0.0,0.0,0.0,0.0,0.0,0.0,0.0,-0.4988,-0.5053,-0.5171,-0.523,-0.5113,-0.53,-0.5398,-0.5375,-0.5396,-0.5499,-0.554,0.0,0.0,0.0,0.0,0.0,0.0,0.0,0.0,0.0,0.0,0.0,0.0,0.0,0.0,0.0,0.0,0.0,0.0,0.0,0.0,0.0,0.0,0.0,0.0,0.0,0.0,0.0,0.0,0.0,0.0,0.0,0.0,0.0,0.0,0.0,0.0,0.0,0.0,0.0,0.0,0.0,0.0,0.0,0.0,0.0,0.0,0.0,0.0,0.0,0.0,0.0,0.0,0.0,0.0,-0.9673,-0.9974,-0.9955,-0.9679,-0.9369,-0.9188,-0.9188,-0.8891,-0.8537,-0.8291,0.0,0.0,0.0,0.0,0.0,0.0,0.0,0.0,0.0,0.0,0.0,0.0,0.0,0.0,0.0,0.0,0.0,0.0,0.0,0.0,0.0,0.0,0.0,0.0,0.0,0.0,-0.4507,-0.4634,-0.4725,0.0,0.0,0.0,0.0,0.0,0.0,0.0,0.0,0.0,0.0,-0.5077,-0.5147,-0.5345,-0.5474,-0.5595,-0.5533,-0.5599,-0.5672,-0.5811,-0.5745,-0.5683,0.0,0.0,0.0,0.0,0.0,0.0,0.0,0.0,0.0,0.0,0.0,0.0,0.0,0.0,0.0,0.0,0.0,0.0,0.0,0.0,0.0,0.0,0.0,0.0,0.0,0.0,0.0,0.0,-1.576,0.0,0.0,0.0,0.0,0.0,0.0,0.0,0.0,0.0,0.0,0.0,-1.317,-1.2803,0.0,0.0,0.0,0.0,0.0,0.0,0.0,0.0,0.0,0.0,0.0,0.0,-1.0041,-0.9981,-1.0282,-1.0265,-0.9973,-0.9674,-0.9554,-0.9547,-0.9008,-0.8639,-0.8445,0.0,0.0,0.0,0.0,0.0,0.0,0.0,0.0,0.0,0.0,0.0,0.0,0.0,0.0,0.0,0.0,0.0,0.0,0.0,0.0,0.0,0.0,0.0,0.0,0.0,-0.4893,0.0,0.0,0.0,0.0,0.0,0.0,0.0,0.0,0.0,0.0,0.0,-0.4761,-0.4758,-0.4954,-0.5153,-0.5156,-0.5359,-0.5491,0.0,0.0,0.0,0.0,0.0,0.0,0.0,0.0,0.0,0.0,0.0,0.0,0.0,0.0,-0.5024,-0.4831,-0.4761,-0.4761,-0.4758,0.0,0.0,0.0,0.0,0.0,0.0,0.0,0.0,0.0,0.0,0.0,0.0,0.0,0.0,0.0,0.0,-1.6371,0.0,0.0,0.0,0.0,0.0,0.0,0.0,0.0,-1.4104,-1.3668,-1.3266,-1.3008,-1.2982,0.0,-1.2389,-1.2025,0.0,0.0,0.0,0.0,0.0,0.0,0.0,0.0,-1.0372,-1.0296,-1.0597,-1.0636,-1.0267,-1.0027,-0.9848,-0.978,-0.9198,-0.8819,-0.8705,-0.8591,-0.8431,0.0,0.0,0.0,0.0,0.0,0.0,0.0,0.0,0.0,0.0,0.0,0.0,0.0,0.0,0.0,0.0,0.0,0.0,0.0,0.0,0.0,0.0,0.0,-0.5319,0.0,0.0,0.0,0.0,0.0,0.0,0.0,0.0,0.0,-0.4824,-0.4761,-0.4691,-0.4691,-0.4824,-0.5024,-0.5087,0.0,0.0,0.0,0.0,0.0,0.0,0.0,-0.5924,-0.5848,-0.592,-0.5988,-0.5784,-0.5651,-0.5498,-0.5309,0.0,0.0,-0.484,-0.4761,-0.4761,-0.4758,-0.4827,-0.496,-0.5156,-0.5223,-0.5223,0.0,0.0,0.0,0.0,0.0,0.0,0.0,0.0,-1.7018,-1.6947,0.0,-1.6522,0.0,0.0,0.0,0.0,0.0,0.0,0.0,0.0,-1.4078,-1.3689,-1.3423,-1.3361,-1.3269,-1.3152,-1.2923,-1.2712,-1.2584,-1.1461,0.0,0.0,0.0,0.0,0.0,0.0,-1.0965,-1.0618,-1.0967,-1.0933,-1.0618,-1.0428,-1.0174,-0.997,-0.9401,-0.9144,-0.9138,-0.8959,-0.8731,-0.8326,-0.8226,0.0,0.0,0.0,0.0,0.0,0.0,0.0,0.0,0.0,0.0,0.0,0.0,0.0,0.0,0.0,0.0,0.0,0.0,0.0,0.0,-0.574,0.0,0.0,0.0,0.0,0.0,0.0,0.0,0.0,0.0,0.0,-0.5153,-0.4824,-0.4625,-0.4761,0.0,0.0,0.0,0.0,-0.5435,-0.5439,-0.5498,-0.5662,-0.5797,-0.599,-0.6162,-0.6226,0.0,0.0,-0.6093,-0.5946,-0.5749,-0.562,-0.5596,-0.5411,-0.494,-0.484,-0.4894,-0.502,-0.5087,-0.5156,-0.5359,-0.5359,-0.5359,-1.8965,0.0,0.0,0.0,0.0,-1.7529,-1.7406,-1.7199,-1.7086,-1.696,-1.6876,-1.6522,0.0,0.0,0.0,0.0,0.0,0.0,-1.4846,-1.4603,-1.459,-1.4352,-1.392,-1.3854,-1.3897,-1.3921,-1.3195,-1.2861,-1.2976,-1.2138,-1.1529,-1.1193,0.0,0.0,0.0,0.0,-1.1127,-1.1105,-1.108,-1.0996,-1.0744,-1.0428,-1.018,-0.9862,-0.9724,-0.9554,-0.9364,-0.9231,-0.9127,-0.9,-0.8753,0.0,0.0,0.0,0.0,0.0,0.0,0.0,0.0,0.0,0.0,0.0,0.0,0.0,0.0,0.0,0.0,0.0,0.0,0.0,-0.6189,-0.6112,-0.6094,0.0,0.0,0.0,0.0,0.0,0.0,0.0,0.0,0.0,-0.5292,-0.496,-0.4694,0.0,0.0,-0.4827,-0.4894,-0.5248,-0.5525,-0.5525,0.0,0.0,0.0,-0.5994,-0.6097,-0.6169,-0.6165,-0.6169,-0.6097,-0.595,-0.5786,-0.5745,-0.5742,-0.5654,-0.5534,-0.5365,-0.5239,-0.5153,-0.5223,-0.5359,-0.5362,-0.5428,-0.5428,-1.9153,-1.8812,-1.8411,-1.8069,-1.776,-1.757,-1.7406,-1.7267,-1.7073,-1.696,-1.6888,-1.6565,-1.6318,-1.62,-1.5913,0.0,0.0,0.0,-1.5299,-1.5204,-1.5208,-1.4927,-1.4502,-1.4457,-1.4421,-1.427,-1.3677,-1.3416,-1.3521,-1.2838,-1.239,-1.2075,0.0,0.0,-1.1368,-1.1383,-1.1363,-1.1296,-1.1185,-1.0996,-1.0807,-1.0491,-1.018,-0.9989,-0.9862,-0.974,-0.9612,-0.9478,-0.9338,-0.9268,-0.9022,-0.877,0.0,0.0,0.0,0.0,0.0,0.0,0.0,0.0,0.0,0.0,0.0,-0.6005,0.0,0.0,0.0,0.0,-0.6464,-0.6496,-0.6605,-0.6548,0.0,0.0,0.0,0.0,0.0,0.0,0.0,-0.5752,-0.5686,-0.5645,-0.5575,-0.5315,-0.5045,-0.4772,-0.4907,-0.4996,-0.498,0.0,-0.5674,-0.5674,-0.5796,-0.5891,-0.5891,-0.6019,-0.6138,-0.6212,-0.6212,-0.6212,-0.6212,-0.606,-0.5962,-0.5908,-0.5891,-0.5874,-0.5813,-0.5654,-0.5515,-0.5325,-0.5383,-0.5437,-0.5442,-0.5428,-0.5425,-1.9376,-1.9136,-1.8567,-1.8175,-1.7882,-1.7652,-1.7447,-1.735,-1.7086,-1.6973,-1.6888,-1.6534,-1.6343,-1.6218,-1.5799,0.0,0.0,-1.5898,-1.5943,-1.6182,-1.5858,-1.5467,-1.508,-1.5079,-1.4788,-1.4346,-1.4255,-1.413,-1.401,-1.3536,-1.3172,-1.2972,-1.2226,-1.1763,-1.154,-1.1714,-1.1622,-1.1303,-1.1185,-1.1003,-1.0807,-1.0491,-1.0301,-1.0308,-0.9989,-0.9798,-0.9804,-0.9612,-0.9478,-0.9338,-0.9145,-0.8894,-0.8576,0.0,0.0,0.0,0.0,0.0,0.0,0.0,0.0,0.0,0.0,0.0,0.0,0.0,0.0,0.0,-0.6841,0.0,-0.6946,-0.6881,0.0,0.0,0.0,-0.6815,-0.6482,-0.6416,-0.6292,-0.5977,0.0,0.0,0.0,0.0,-0.554,-0.5132,-0.5262,-0.5297,-0.5212,-0.5594,-0.582,-0.582,-0.5952,-0.6047,-0.6051,-0.6152,-0.6307,-0.6307,-0.6261,-0.6321,-0.6321,-0.6321,-0.6196,-0.6074,-0.6047,-0.601,-0.5867,-0.5847,-0.5793,-0.5657,-0.5616,-0.5562,-0.543,-0.5459,-0.5449,-2.0135,-1.9861,-1.9022,-1.8489,-1.8109,-1.7788,-1.7556,-1.7363,-1.7044,-1.6918,-1.6876,-1.6461,-1.6333,-1.6496,-1.6693,-1.6811,-1.6783,-1.6561,-1.6382,-1.6204,-1.6155,-1.5946,-1.5719,-1.5588,-1.5351,-1.4954,-1.4442,-1.413,-1.401,-1.3545,-1.3172,-1.2981,-1.2716,-1.2364,-1.1997,-1.1826,-1.1677,-1.1498,-1.1373,-1.1115,-1.0807,-1.0618,-1.0434,-1.0308,-1.0238,-1.0053,-0.9804,-0.974,-0.9676,-0.9478,-0.9344,-0.921,-0.9087,-0.87,0.0,0.0,0.0,0.0,0.0,0.0,0.0,0.0,0.0,-0.6681,-0.6677,0.0,-0.6811,0.0,-0.685,-0.6946,-0.7138,-0.7007,0.0,0.0,-0.7007,-0.6881,-0.6815,-0.6679,-0.6597,-0.6531,-0.6347,-0.6272,-0.6227,-0.6111,-0.5943,-0.5762,-0.561,-0.5483,-0.5447,-0.5762,-0.5976,-0.5989,-0.6105,-0.6203,-0.6203,-0.6234,-0.6261,-0.6261,-0.6261,-0.6261,-0.6261,-0.6261,-0.6247,-0.621,-0.6203,-0.619,-0.6149,-0.6152,-0.6091,-0.5956,-0.5833,-0.5708,-0.5566,-0.5668,-0.5698,-2.0917,-2.068,-2.0063,-1.9615,-1.9127,-1.8194,-1.7679,-1.7419,-1.7086,-1.7059,-1.7229,-1.704,-1.6934,-1.7026,-1.7171,-1.7274,-1.7361,-1.7171,-1.7003,-1.6852,-1.684,-1.6589,-1.6224,-1.6012,-1.5662,-1.5254,-1.4715,-1.43,-1.407,-1.3718,-1.3354,-1.3111,-1.2989,-1.2683,-1.2313,-1.2058,-1.1809,-1.1622,-1.1373,-1.1059,-1.0807,-1.0681,-1.0561,-1.0434,-1.0371,-1.0244,-1.0053,-0.9926,-0.9798,-0.9612,-0.9472,-0.9396,-0.9274,-0.8894,-0.8576,0.0,0.0,0.0,0.0,0.0,0.0,0.0,0.0,0.0,0.0,0.0,-0.7073,0.0,-0.7204,0.0,-0.733,-0.7269,-0.7204,-0.733,-0.7199,-0.717,-0.7198,-0.7078,-0.7009,-0.6982,-0.6867,-0.6726,-0.6607,-0.6485,-0.6401,-0.6259,-0.6132,-0.5932,-0.5712,-0.5931,-0.6132,-0.6135,-0.6203,-0.6261,-0.6261,-0.6261,-0.6261,-0.6261,-0.6261,-0.6261,-0.6261,-0.6261,-0.6261,-0.6261,-0.6261,-0.6261,-0.6261,-0.6261,-0.6227,-0.6152,-0.6064,-0.5932,-0.5732,-0.5825,-0.593,-2.1719,-2.1506,-2.124,-2.0865,-2.0401,-1.8838,-1.8004,-1.7743,-1.7392,-1.7406,-1.7727,-1.7852,-1.786,-1.7691,-1.7507,-1.7606,-1.789,-1.7798,-1.7725,-1.7689,-1.7579,-1.719,-1.6694,-1.6285,-1.5884,-1.5468,-1.4951,-1.4538,-1.4249,-1.3941,-1.3657,-1.3302,-1.3111,-1.2867,-1.2629,-1.2305,-1.1996,-1.1622,-1.131,-1.1052,-1.087,-1.0688,-1.0624,-1.0618,-1.0434,-1.0364,-1.0301,-1.011,-0.9983,-0.9862,-0.9664,-0.9524,-0.9402,-0.9087,-0.8765,0.0,-0.8252,0.0,0.0,0.0,0.0,0.0,0.0,0.0,0.0,-0.7269,-0.733,-0.7456,-0.7526,-0.7531,-0.7559,-0.7499,-0.7574,-0.7602,-0.7602,-0.755,-0.7591,-0.755,-0.7485,-0.7392,-0.741,-0.7262,-0.7072,-0.7025,-0.6938,-0.6678,-0.6619,-0.6451,-0.6086,-0.6167,-0.6247,-0.6261,-0.6261,-0.6261,-0.6261,-0.6261,-0.6257,-0.6257,-0.6257,-0.6257,-0.6257,-0.6257,-0.6261,-0.6261,-0.6261,-0.6261,-0.6261,-0.6261,-0.6261,-0.6251,-0.624,-0.6146,-0.5981,-0.605,-0.619,-2.2416,-2.2081,-2.1442,-2.0934,-2.0458,-1.9963,-1.9524,-1.9101,-1.8668,-1.8265,-1.7972,-1.8411,-1.8487,-1.8274,-1.8661,-1.8653,-1.8472,-1.8419,-1.8197,-1.7854,-1.7634,-1.7368,-1.7155,-1.6602,-1.6192,-1.5816,-1.5196,-1.4784,-1.4419,-1.401,-1.37,-1.3459,-1.3294,-1.2997,0.0,0.0,0.0,0.0,-1.1373,-1.1178,-1.1059,-1.0863,-1.0744,-1.0624,-1.0561,0.0,-1.0301,-1.0238,-1.0174,-0.9983,-0.9919,0.0,0.0,0.0,0.0,0.0,0.0,0.0,0.0,0.0,0.0,0.0,-0.7601,-0.7531,-0.7456,-0.7456,-0.7456,-0.7526,-0.7526,-0.7598,-0.7702,-0.7716,-0.7787,-0.7938,-0.7957,-0.7981,-0.8023,-0.7817,-0.7753,-0.7952,-0.7828,-0.7677,-0.7626,-0.7512,-0.7291,-0.7096,-0.6942,-0.6791,-0.6483,-0.6335,-0.6261,-0.6261,-0.6261,-0.6261,-0.6261,-0.6261,-0.6257,-0.6099,-0.618,-0.618,-0.6099,-0.618,-0.6261,-0.6261,-0.6261,-0.6261,-0.6261,-0.6261,-0.6261,-0.6261,-0.6261,-0.628,-0.6243,-0.6356,-0.6544,-2.3215,0.0,-2.242,-2.2017,0.0,-2.1391,-2.1032,-2.0566,-1.9436,-1.8802,-1.8618,-1.9008,-1.9092,-1.9002,-1.9141,-1.9052,-1.8774,-1.8667,-1.8398,-1.7975,-1.77,-1.7479,-1.7278,-1.6761,-1.6353,-1.6124,-1.5488,-1.502,-1.4725,-1.4359,-1.4001,-1.364,-1.3467,-1.3224,-1.2936,-1.2744,-1.2313,-1.1685,-1.156,-1.1373,-1.1185,-1.1059,-1.0933,-1.0877,0.0,0.0,0.0,0.0,0.0,0.0,0.0,0.0,0.0,0.0,0.0,-0.9268,-0.8894,-0.8576,-0.8371,-0.8177,-0.8047,-0.7862,-0.7824,-0.7768,-0.7531,-0.7617,-0.7683,-0.7617,-0.7769,-0.781,-0.7914,-0.7929,-0.7966,-0.807,-0.808,-0.8113,-0.8217,-0.8168,-0.8107,-0.8212,-0.8173,-0.8067,-0.794,-0.7799,-0.7565,-0.7411,-0.7176,-0.6945,-0.6791,-0.6563,-0.6412,-0.6338,-0.6261,-0.6261,-0.6261,-0.6261,-0.6257,-0.6177,-0.618,-0.6257,-0.6099,-0.618,-0.6261,-0.6261,-0.6261,-0.6261,-0.6261,-0.6261,-0.6261,-0.6338,-0.6416,-0.6465,-0.6605,-0.6666,-0.6798,-2.3925,-2.3653,-2.3436,-2.3216,-2.2934,-2.2601,-2.2184,-2.1629,0.0,0.0,0.0,-1.952,-1.9604,-1.9577,-1.9368,-1.917,-1.8987,-1.8732,-1.8452,-1.8139,-1.7865,-1.7601,-1.7323,-1.692,-1.6637,-1.6431,-1.5836,-1.5362,-1.5088,-1.4706,-1.4359,-1.3941,-1.37,-1.3459,-1.3302,-1.2875,-1.2436,-1.1988,-1.1809,-1.156,-1.1365,-1.1247,-1.1122,-1.1129,-1.0933,-1.087,-1.087,-1.0744,-1.0624,-1.0428,-1.0428,-1.0301,-1.011,-0.9843,-0.9646,-0.9588,-0.921,-0.8829,-0.8705,-0.8436,-0.8257,-0.8108,-0.8115,-0.7943,-0.7598,-0.7779,-0.7834,-0.7829,-0.7985,-0.8094,-0.8132,-0.8136,-0.8151,-0.8184,-0.8193,-0.8264,-0.8425,-0.8453,-0.8445,-0.8443,-0.847,-0.8403,-0.8174,-0.803,-0.7799,-0.7642,-0.7411,-0.718,-0.6945,-0.6714,-0.6563,-0.6412,-0.6338,-0.6261,-0.6261,-0.6261,-0.6257,-0.618,-0.6257,-0.6261,-0.6261,-0.6261,-0.6338,-0.6335,-0.6338,-0.6261,-0.6261,-0.6261,-0.6338,-0.6338,-0.6486,-0.6718,-0.6865,-0.6938,-0.7088,-2.4135,-2.3925,-2.3653,-2.3377,-2.3024,-2.2737,-2.2137,-2.1396,-2.0588,-2.0091,-1.9876,-1.9825,-1.9708,-1.9617,-1.9473,-1.921,-1.8999,-1.8721,-1.8506,0.0,-1.8018,-1.781,-1.7601,-1.7334,-1.6987,-1.6581,-1.6171,-1.5758,-1.5352,-1.4883,-1.4588,-1.435,-1.395,-1.3588,-1.3302,-1.3058,-1.2867,-1.2683,-1.2251,-1.1872,-1.156,-1.156,-1.1373,-1.1129,-1.1059,-1.1059,-1.1059,-1.1066,-1.0996,-1.0996,-1.0807,-1.0681,-1.0498,-1.0301,-1.011,-0.9919,-0.9588,-0.9396,-0.9326,-0.8958,-0.8663,-0.8539,-0.8551,-0.8374,-0.7957,-0.7984,-0.8037,-0.8037,-0.8075,-0.8155,-0.8325,-0.8359,-0.842,-0.8571,-0.8609,-0.8628,-0.8647,-0.8647,-0.8661,-0.8623,-0.8627,-0.8551,-0.8403,-0.8327,-0.8178,-0.7876,-0.7723,-0.7569,-0.718,-0.6872,-0.6641,-0.6567,-0.6416,-0.6338,-0.6335,-0.6338,-0.6257,-0.6018,-0.618,-0.6335,-0.6335,-0.6335,-0.6416,-0.6486,-0.6412,-0.6338,-0.6338,-0.6261,-0.6335,-0.6486,-0.6563,-0.6718,-0.7103,-0.7253,-0.7484,-2.4343,-2.4135,-2.3824,-2.3551,-2.3334,-2.2814,-2.2231,-2.1602,-2.1068,-2.0586,-2.0233,-2.0016,-1.9823,-1.9708,-1.946,-1.9316,-1.921,-1.8774,-1.856,-1.8464,-1.8073,-1.7799,-1.7711,-1.7445,-1.7155,-1.6786,-1.6477,-1.6124,-1.5758,-1.5294,-1.4951,-1.4784,-1.4249,-1.389,-1.3597,-1.3338,-1.3224,-1.305,-1.2621,-1.2243,-1.1996,-1.1934,-1.1755,-1.1498,-1.1435,-1.131,-1.1185,-1.1122,-1.1129,-1.1129,-1.1003,-1.0933,-1.0877,-1.0618,-1.0434,-1.0308,-0.9977,-0.9716,-0.9518,-0.9273,-0.9131,-0.9119,-0.9135,-0.9082,-0.876,-0.8561,-0.8394,-0.8259,-0.8349,-0.8453,-0.8552,-0.8566,-0.86,-0.8689,-0.8703,-0.8703,-0.8703,-0.8703,-0.8703,-0.8703,-0.8703,-0.8703,-0.8551,-0.8479,-0.8331,-0.8106,-0.7957,-0.7723,-0.7411,-0.7103,-0.6868,-0.6791,-0.6714,-0.6637,-0.6641,-0.6641,-0.656,-0.6479,-0.656,-0.6637,-0.6641,-0.6637,-0.6637,-0.671,-0.6641,-0.6486,-0.649,-0.6486,-0.6486,-0.6563,-0.6795,-0.7026,-0.733,-0.7714,-0.7944,-2.4549,-2.4343,-2.4036,-2.3782,-2.348,-2.2904,-2.2356,-2.1855,-2.152,-2.1019,-2.0536,-2.0195,-1.9978,-1.9823,-1.9565,-1.942,-1.9368,-1.8934,-1.8667,-1.856,-1.8182,-1.7909,-1.7755,-1.7501,-1.7267,-1.7022,-1.6648,-1.6363,-1.6114,-1.571,-1.5371,-1.497,-1.4547,-1.4189,-1.389,-1.3761,-1.358,-1.3424,-1.2989,-1.2674,-1.2367,-1.2251,-1.212,-1.1864,-1.1747,-1.1622,-1.1428,-1.131,-1.1247,-1.1185,-1.1185,-1.1122,-1.1122,-1.0877,-1.0688,-1.0624,-1.0366,-1.0103,-0.9717,-0.9685,-0.9645,-0.9645,-0.9735,-0.9653,-0.9437,-0.9137,-0.8842,-0.8639,-0.8755,-0.8775,-0.8775,-0.8699,-0.8703,-0.8703,-0.8703,-0.8703,-0.8703,-0.8703,-0.8703,-0.8703,-0.8703,-0.8703,-0.8703,-0.8551,-0.8479,-0.8331,-0.803,-0.7723,-0.7565,-0.7411,-0.7176,-0.7096,-0.6942,-0.6865,-0.6865,-0.6865,-0.6865,-0.6865,-0.6865,-0.6865,-0.6942,-0.6942,-0.6942,-0.6942,-0.6791,-0.6714,-0.6637,-0.6637,-0.6714,-0.6791,-0.6953,-0.7257,-0.7565,-0.8016,-0.8327,-2.4806,-2.4549,-2.4343,-2.3882,-2.3304,-2.2994,-2.2586,-2.217,-2.1841,-2.1471,-2.0934,-2.0422,-2.0144,-1.9939,-1.972,-1.9512,-1.9368,-1.9105,-1.8827,-1.8602,-1.841,-1.8193,-1.7909,-1.7711,-1.7545,-1.7267,-1.6931,-1.6648,-1.6374,-1.5999,-1.5584,-1.5029,-1.4775,-1.4478,-1.4189,-1.413,-1.401,-1.3769,-1.3519,-1.3155,-1.2621,-1.256,-1.2375,-1.2065,-1.2058,-1.1934,-1.174,-1.1747,-1.1677,-1.156,-1.1365,-1.131,-1.1247,-1.1129,-1.0996,-1.0814,-1.0866,-1.0736,-1.038,-1.0502,-1.0432,-1.0202,-1.0188,-1.0018,-0.9879,-0.9658,-0.9437,-0.9286,-0.9084,-0.8946,-0.8946,-0.8861,-0.878,-0.878,-0.8703,-0.8703,-0.8703,-0.8703,-0.8703,-0.8703,-0.8703,-0.8703,-0.8703,-0.8627,-0.8556,-0.8403,-0.8102,-0.7799,-0.7723,-0.7565,-0.748,-0.733,-0.7169,-0.6938,-0.6942,-0.6865,-0.6942,-0.6942,-0.6942,-0.7022,-0.7099,-0.7022,-0.6942,-0.7099,-0.7022,-0.6868,-0.6868,-0.6865,-0.6945,-0.7022,-0.718,-0.7411,-0.7872,-0.8255,-0.8479,-2.4966,-2.4589,-2.4482,-2.4009,-2.3407,-2.3127,-2.2814,-2.2417,-2.2137,-2.1807,-2.1313,-2.0885,-2.0435,-1.999,-1.972,-1.9512,-1.9368,-1.9105,-1.8869,-1.8614,-1.8464,-1.8193,-1.7897,-1.7854,-1.7689,-1.7423,-1.7211,-1.6931,-1.6591,-1.6239,-1.5758,-1.5313,-1.5186,-1.4883,-1.4529,-1.4419,-1.424,-1.4061,-1.3821,-1.3511,-1.3155,-1.292,-1.2683,-1.2436,-1.2375,-1.2243,-1.1996,-1.1996,-1.1872,-1.1747,-1.1615,-1.1553,-1.1498,-1.131,-1.1178,-1.1136,-1.1023,-1.1068,-1.1243,-1.1165,-1.0936,-1.0722,-1.0754,-1.0588,-1.0293,-1.0067,-0.9922,-0.9776,-0.9473,-0.9175,-0.9175,-0.9094,-0.9008,-0.9013,-0.8937,-0.8865,-0.8865,-0.8784,-0.8703,-0.8703,-0.8703,-0.8703,-0.8703,-0.8703,-0.8627,-0.8475,-0.8255,-0.8102,-0.7876,-0.7718,-0.7638,-0.7484,-0.7326,-0.7249,-0.7249,-0.7249,-0.7249,-0.7249,-0.7253,-0.733,-0.733,-0.7326,-0.7249,-0.7334,-0.7176,-0.7103,-0.7103,-0.7103,-0.7103,-0.7257,-0.7565,-0.7795,-0.8025,-0.8484,-0.8713,-2.5084,-2.471,-2.4482,-2.4067,-2.3581,-2.326,-2.2949,-2.2646,-2.2356,-2.203,-2.1664,-2.1229,-2.0736,-2.0233,-1.9862,-1.9617,-1.942,-1.921,-1.8946,-1.8679,-1.8518,-1.8356,-1.8073,-1.7952,-1.7854,-1.759,-1.7379,-1.7099,-1.6807,-1.641,-1.6009,-1.571,-1.5536,-1.5303,-1.4942,-1.4775,-1.4538,-1.4309,-1.4061,-1.3881,-1.3631,-1.3346,-1.305,-1.2744,-1.2683,-1.2552,-1.2243,-1.2251,-1.2127,-1.1872,-1.1809,-1.174,-1.1622,-1.1498,-1.1445,-1.1489,-1.1383,-1.1506,-1.1951,-1.1768,-1.149,-1.1304,-1.126,-1.1037,-1.0738,-1.0438,-1.0363,-1.0212,-0.9846,-0.9549,-0.9397,-0.9322,-0.9322,-0.9322,-0.9099,-0.9027,-0.8951,-0.8789,-0.8703,-0.8703,-0.8703,-0.8703,-0.8703,-0.8703,-0.8627,-0.8551,-0.8403,-0.8327,-0.803,-0.7876,-0.7723,-0.7638,-0.7557,-0.748,-0.748,-0.748,-0.748,-0.748,-0.748,-0.748,-0.748,-0.748,-0.748,-0.7407,-0.7334,-0.7257,-0.7257,-0.7257,-0.7338,-0.7415,-0.7723,-0.8102,-0.8178,-0.8641,-0.8951,-2.5224,-2.4926,-2.4369,-2.4009,-2.3754,-2.3451,-2.3127,-2.2859,-2.2555,-2.2231,-2.1935,-2.1423,-2.1019,-2.0696,-2.0233,-1.9784,-1.9433,-1.9368,-1.9158,-1.8798,-1.8744,-1.8637,-1.8367,-1.8193,-1.803,-1.7854,-1.7534,-1.7155,-1.6818,-1.6545,-1.6384,-1.6306,-1.5904,-1.5604,-1.5362,-1.5196,-1.4911,-1.4588,-1.4469,-1.43,-1.4001,-1.383,-1.3528,-1.305,-1.2989,-1.2867,-1.2621,-1.256,-1.2436,-1.2127,-1.1934,-1.1802,-1.1809,-1.1622,-1.1745,-1.2069,-1.1995,-1.1998,-1.2224,-1.2251,-1.2057,-1.17,-1.1484,-1.1335,-1.1111,-1.0887,-1.0663,-1.0519,-1.0293,-0.9997,-0.9695,-0.9473,-0.9397,-0.9322,-0.917,-0.9027,-0.9022,-0.8861,-0.8703,-0.8703,-0.8703,-0.8703,-0.8703,-0.8703,-0.8703,-0.8627,-0.8551,-0.8403,-0.8331,-0.8025,-0.7876,-0.7799,-0.7642,-0.748,-0.748,-0.748,-0.748,-0.748,-0.748,-0.748,-0.748,-0.748,-0.748,-0.748,-0.7484,-0.7484,-0.7484,-0.7488,-0.7565,-0.7718,-0.7876,-0.8106,-0.8327,-0.8713,-0.9022,-2.5294,-2.4806,-2.4426,-2.4051,-2.3782,-2.3566,-2.3319,-2.3023,-2.2709,-2.2449,-2.2231,-2.1793,-2.1361,-2.1033,-2.066,-2.022,-1.9656,-1.946,-1.921,-1.8946,-1.8851,-1.8637,-1.8422,-1.8313,-1.8139,-1.7909,-1.7744,-1.7479,-1.7099,-1.6818,-1.6545,-1.6384,-1.6269,-1.6019,-1.572,-1.543,-1.5245,-1.5069,-1.4765,-1.4529,-1.435,-1.413,-1.389,-1.3536,-1.3294,-1.3111,-1.2867,-1.2813,-1.2629,-1.2436,-1.2243,-1.1996,-1.1802,-1.1685,-1.175,-1.2029,-1.1999,-1.2089,-1.2336,-1.2351,-1.2157,-1.1929,-1.1855,-1.1706,-1.1484,-1.1186,-1.0968,-1.0818,-1.0588,-1.0293,-1.0143,-0.9846,-0.9695,-0.9625,-0.9549,-0.9397,-0.9322,-0.9094,-0.887,-0.8865,-0.8784,-0.8703,-0.8703,-0.8703,-0.8703,-0.8703,-0.8627,-0.8551,-0.8403,-0.8255,-0.8102,-0.7953,-0.7799,-0.7718,-0.7718,-0.7561,-0.748,-0.748,-0.748,-0.748,-0.748,-0.748,-0.748,-0.748,-0.748,-0.748,-0.7484,-0.7561,-0.7642,-0.7799,-0.803,-0.8255,-0.8551,-0.8861,-0.917,-2.6006,-2.5491,-2.4984,-2.4599,-2.4286,-2.3771,-2.3451,-2.3201,-2.2904,-2.2678,-2.2402,-2.2091,-2.1759,-2.1361,-2.1068,-2.0646,-2.0105,-1.9708,-1.9356,-1.9052,-1.8958,-1.8744,-1.8518,-1.8476,-1.8302,-1.8018,-1.7897,-1.7689,-1.7379,-1.7099,-1.6818,-1.6581,-1.6488,-1.6269,-1.6029,-1.572,-1.5546,-1.5352,-1.5069,-1.4824,-1.4656,-1.4419,-1.424,-1.4001,-1.3649,-1.3354,-1.3111,-1.2989,-1.2867,-1.2683,-1.249,-1.2243,-1.1872,-1.1685,-1.1762,-1.1956,-1.1995,-1.2102,-1.2346,-1.2428,-1.2305,-1.2157,-1.2077,-1.2003,-1.1787,-1.1564,-1.1335,-1.118,-1.0887,-1.0663,-1.0513,-1.0288,-1.0067,-0.9992,-0.9771,-0.962,-0.9625,-0.9322,-0.917,-0.9094,-0.8937,-0.8861,-0.8784,-0.8708,-0.8703,-0.8703,-0.8703,-0.8627,-0.8632,-0.8479,-0.8403,-0.8255,-0.8102,-0.7953,-0.7876,-0.7718,-0.7561,-0.7561,-0.748,-0.748,-0.748,-0.748,-0.748,-0.748,-0.7557,-0.7557,-0.7561,-0.7561,-0.7718,-0.7953,-0.8106,-0.8403,-0.8708,-0.9013,-0.9322,-2.741,-2.6904,-2.6083,-2.5563,-2.5229,-2.423,-2.3611,-2.3496,-2.3098,-2.2814,-2.2586,-2.2324,-2.203,-2.1759,-2.1361,-2.1068,-2.0709,-2.0156,-1.9656,-1.9275,-1.9223,-1.8946,-1.8614,-1.8614,-1.8398,-1.8084,-1.7963,-1.7799,-1.7523,-1.7368,-1.7145,-1.6965,-1.6648,-1.6431,-1.6384,-1.6087,-1.573,-1.5536,-1.541,-1.5245,-1.5029,-1.4715,-1.4529,-1.441,-1.4061,-1.3649,-1.3302,-1.3302,-1.3119,-1.2805,-1.2683,-1.2375,-1.1934,-1.1802,-1.1818,-1.1977,-1.2107,-1.2225,-1.2389,-1.2466,-1.2405,-1.2305,-1.2305,-1.2224,-1.2003,-1.1929,-1.1781,-1.1484,-1.1186,-1.1037,-1.0812,-1.0588,-1.0368,-1.0218,-0.9846,-0.9695,-0.9625,-0.9397,-0.9322,-0.9246,-0.9099,-0.9018,-0.8941,-0.8861,-0.8784,-0.878,-0.878,-0.8861,-0.8941,-0.8713,-0.8556,-0.8551,-0.8403,-0.8178,-0.803,-0.7953,-0.7718,-0.7561,-0.7557,-0.748,-0.748,-0.748,-0.7561,-0.7561,-0.7638,-0.7714,-0.7791,-0.7795,-0.7949,-0.8178,-0.8331,-0.8556,-0.8865,-0.9246,-0.9392,-2.7648,-2.7274,-2.6857,-2.6436,-2.5993,-2.5085,-2.4593,-2.4224,-2.3437,-2.2949,-2.2768,-2.2463,-2.2231,-2.203,-2.1746,-2.1423,-2.1068,-2.066,-2.0144,-1.9656,-1.942,-1.9158,-1.8881,-1.8667,-1.841,-1.8139,-1.7963,-1.7843,-1.7744,-1.7534,-1.7368,-1.7211,-1.6909,-1.6684,-1.6524,-1.6316,-1.6134,-1.5884,-1.5778,-1.5604,-1.5303,-1.5177,-1.4942,-1.4529,-1.4359,-1.4061,-1.3649,-1.3424,-1.318,-1.2928,-1.2805,-1.249,-1.212,-1.1864,-1.1792,-1.1721,-1.1812,-1.2062,-1.2232,-1.2255,-1.2308,-1.2464,-1.2372,-1.2305,-1.2224,-1.2077,-1.1929,-1.1781,-1.1484,-1.126,-1.1186,-1.0887,-1.0594,-1.0218,-1.0073,-0.9922,-0.9846,-0.962,-0.9473,-0.9322,-0.9251,-0.9246,-0.917,-0.9094,-0.9089,-0.9089,-0.9089,-0.917,-0.917,-0.9094,-0.9018,-0.9089,-0.8784,-0.8479,-0.8408,-0.8255,-0.8025,-0.7791,-0.7714,-0.7561,-0.7561,-0.7561,-0.7638,-0.7714,-0.7795,-0.7872,-0.7949,-0.8102,-0.8255,-0.8403,-0.8556,-0.8784,-0.917,-0.9322,-0.9544,-2.869,-2.8323,-2.7844,-2.7387,-2.6956,-2.6039,-2.5329,-2.4776,-2.3955,-2.3347,-2.2947,-2.2601,-2.2417,-2.2231,-2.1996,-2.165,-2.1313,-2.1118,-2.0709,-2.0105,-1.9708,-1.9408,-1.9146,-1.8774,-1.8464,-1.8193,-1.8018,-1.7897,-1.7799,-1.7634,-1.749,-1.7267,-1.7145,-1.7022,-1.674,-1.6581,-1.642,-1.6192,-1.6077,-1.5846,-1.5604,-1.5468,-1.5235,-1.4874,-1.4647,-1.441,-1.4061,-1.3769,-1.3415,-1.3111,-1.2928,-1.2621,-1.2189,-1.1996,-1.1802,-1.1744,-1.1789,-1.1883,-1.2016,-1.2019,-1.2177,-1.2432,-1.2428,-1.2344,-1.2338,-1.2305,-1.2157,-1.2003,-1.1781,-1.1558,-1.1409,-1.1186,-1.0893,-1.0443,-1.0368,-1.0293,-1.0143,-0.9916,-0.9771,-0.9695,-0.9544,-0.9468,-0.9397,-0.9322,-0.9322,-0.9322,-0.9322,-0.9322,-0.9322,-0.9322,-0.9322,-0.9322,-0.9165,-0.8937,-0.8784,-0.8556,-0.8331,-0.8102,-0.7872,-0.7718,-0.7642,-0.7642,-0.7718,-0.7872,-0.7949,-0.8174,-0.825,-0.8327,-0.8479,-0.8632,-0.878,-0.9089,-0.9322,-0.9473,-0.962,-3.0284,-2.9919,-2.8984,-2.8407,-2.8018,-2.6943,-2.5952,-2.5121,-2.4642,-2.388,-2.3036,-2.2678,-2.2509,-2.237,-2.2137,-2.1855,-2.1616,-2.141,-2.1118,-2.061,-2.0105,-1.9708,-1.9303,-1.8881,-1.8572,-1.8367,-1.8127,-1.792,-1.7755,-1.7711,-1.7545,-1.7379,-1.7323,-1.72,-1.6965,-1.674,-1.6581,-1.642,-1.6239,-1.6066,-1.5904,-1.5652,-1.541,-1.5352,-1.5001,-1.4715,-1.4478,-1.4121,-1.3769,-1.3302,-1.2928,-1.2683,-1.2375,-1.2189,-1.1996,-1.1817,-1.1781,-1.179,-1.184,-1.1861,-1.2081,-1.2368,-1.2395,-1.2478,-1.2483,-1.2565,-1.2452,-1.215,-1.2003,-1.1855,-1.1552,-1.1409,-1.1186,-1.0893,-1.0594,-1.0443,-1.0438,-1.0293,-1.0137,-1.0143,-0.9922,-0.9695,-0.969,-0.9549,-0.9473,-0.9392,-0.9397,-0.9473,-0.9549,-0.9544,-0.9468,-0.9392,-0.9392,-0.9241,-0.9089,-0.8865,-0.856,-0.8484,-0.8178,-0.7949,-0.7872,-0.7872,-0.7872,-0.8025,-0.8255,-0.8403,-0.8556,-0.8632,-0.8784,-0.9013,-0.9165,-0.9397,-0.9473,-0.962,-0.9771,-3.0518,-3.0149,-2.9686,-2.9271,-2.8878,-2.7886,-2.6839,-2.5833,-2.5017,-2.4149,-2.3289,-2.2814,-2.2632,-2.2523,-2.2278,-2.203,-2.1841,-2.1664,-2.1471,-2.1166,-2.066,-2.0003,-1.946,-1.9052,-1.8786,-1.8572,-1.8356,-1.8139,-1.7854,-1.7755,-1.7645,-1.7612,-1.7379,-1.7267,-1.7211,-1.7022,-1.6853,-1.6705,-1.6524,-1.641,-1.6249,-1.6009,-1.5836,-1.5614,-1.5362,-1.5069,-1.4843,-1.4428,-1.383,-1.3111,-1.2928,-1.2613,-1.2367,-1.2243,-1.212,-1.1894,-1.1821,-1.1858,-1.1927,-1.184,-1.1981,-1.2211,-1.2333,-1.2395,-1.2472,-1.2694,-1.2645,-1.2452,-1.2305,-1.215,-1.1855,-1.1706,-1.149,-1.126,-1.0887,-1.0588,-1.0513,-1.0443,-1.0438,-1.0368,-1.0293,-1.0218,-1.0143,-1.0067,-0.9916,-0.9916,-0.9841,-0.9695,-0.9771,-0.9771,-0.9695,-0.9695,-0.962,-0.9549,-0.9397,-0.9094,-0.8865,-0.8789,-0.856,-0.8255,-0.8178,-0.8178,-0.8174,-0.8327,-0.856,-0.8713,-0.8865,-0.9018,-0.917,-0.9316,-0.9468,-0.9544,-0.9695,-0.9765,-0.9992,-3.0797,-3.0452,-3.0113,-2.9782,-2.9409,-2.8695,-2.7609,-2.6411,-2.5591,-2.4552,-2.3526,-2.2994,-2.2723,-2.2569,-2.237,-2.217,-2.1983,-2.1807,-2.1616,-2.1326,-2.0809,-2.0207,-1.9656,-1.9356,-1.9093,-1.8774,-1.856,-1.829,-1.803,-1.792,-1.7822,-1.7711,-1.7601,-1.749,-1.7379,-1.7211,-1.7022,-1.6909,-1.674,-1.6591,-1.6477,-1.6306,-1.6124,-1.5904,-1.572,-1.543,-1.5079,-1.4606,-1.4001,-1.3398,-1.3155,-1.2911,-1.2552,-1.2436,-1.2305,-1.2058,-1.1988,-1.1969,-1.1978,-1.1902,-1.1927,-1.213,-1.2241,-1.2232,-1.2326,-1.2586,-1.2704,-1.2473,-1.2444,-1.2365,-1.215,-1.1855,-1.1706,-1.1484,-1.1186,-1.0962,-1.0738,-1.0669,-1.0669,-1.0588,-1.0588,-1.0513,-1.0513,-1.0368,-1.0368,-1.0293,-1.0067,-1.0067,-0.9992,-0.9997,-0.9922,-0.9846,-0.9846,-0.9695,-0.9625,-0.9397,-0.917,-0.9094,-0.8865,-0.856,-0.8403,-0.8403,-0.8484,-0.856,-0.887,-0.9027,-0.9175,-0.9322,-0.9473,-0.9544,-0.9695,-0.9771,-0.9916,-0.9992,-1.0218,-3.1032,-3.0692,-3.0359,-3.0033,-2.9697,-2.9273,-2.8104,-2.6727,-2.6153,-2.5047,-2.3703,-2.3068,-2.2814,-2.2646,-2.2477,-2.2263,-2.2044,-2.1902,-2.1664,-2.1375,-2.0921,-2.0409,-1.9952,-1.9656,-1.9396,-1.9093,-1.8774,-1.8506,-1.8247,-1.8139,-1.7986,-1.7822,-1.7865,-1.7744,-1.759,-1.7379,-1.7267,-1.7067,-1.6909,-1.6751,-1.6637,-1.6534,-1.6306,-1.6181,-1.5961,-1.5652,-1.5235,-1.4824,-1.435,-1.3623,-1.3563,-1.3268,-1.2858,-1.2744,-1.256,-1.2367,-1.2243,-1.2135,-1.2081,-1.1932,-1.1936,-1.2149,-1.2101,-1.2073,-1.2258,-1.2477,-1.2628,-1.2487,-1.2545,-1.251,-1.2298,-1.2003,-1.1781,-1.1706,-1.1706,-1.1484,-1.126,-1.0962,-1.0887,-1.0812,-1.0663,-1.0588,-1.0513,-1.0519,-1.0519,-1.0513,-1.0368,-1.0293,-1.0218,-1.0073,-0.9992,-0.9992,-0.9916,-0.9846,-0.9771,-0.97,-0.9549,-0.9392,-0.917,-0.8865,-0.8708,-0.8632,-0.8713,-0.887,-0.9027,-0.9251,-0.9473,-0.962,-0.9695,-0.9841,-0.9916,-1.0067,-1.0148,-1.0293,-1.0443,-3.1196,-3.0831,-3.0485,-3.0189,-2.9886,-2.9409,-2.8271,-2.6689,-2.6289,-2.5181,-2.379,-2.3201,-2.2994,-2.2799,-2.2555,-2.237,-2.2263,-2.2044,-2.1759,-2.1423,-2.118,-2.0809,-2.0409,-2.0003,-1.9656,-1.9396,-1.9093,-1.8774,-1.8506,-1.8302,-1.8096,-1.803,-1.7865,-1.7755,-1.7799,-1.7579,-1.7412,-1.7357,-1.7134,-1.6955,-1.6853,-1.6694,-1.6524,-1.6457,-1.6171,-1.5826,-1.5468,-1.5294,-1.4932,-1.435,-1.3812,-1.3511,-1.3216,-1.3042,-1.2805,-1.2621,-1.2498,-1.2375,-1.2127,-1.2065,-1.2081,-1.2132,-1.221,-1.226,-1.2262,-1.2431,-1.2586,-1.2571,-1.265,-1.2627,-1.2451,-1.2291,-1.215,-1.2003,-1.1855,-1.1706,-1.1558,-1.1416,-1.1186,-1.1037,-1.0962,-1.0962,-1.0962,-1.0812,-1.0738,-1.0738,-1.0588,-1.0443,-1.0368,-1.0223,-1.0218,-1.0143,-1.0143,-1.0073,-1.0073,-0.9997,-0.9846,-0.962,-0.9397,-0.9175,-0.9018,-0.8861,-0.8941,-0.9018,-0.9099,-0.9402,-0.962,-0.9771,-0.9846,-0.9992,-1.0137,-1.0293,-1.0368,-1.0519,-1.0669,-3.1291,-3.0912,-3.0568,-3.0274,-2.9924,-2.9207,-2.8164,-2.691,-2.614,-2.5114,-2.3947,-2.348,-2.3172,-2.2904,-2.2723,-2.2586,-2.2463,-2.2231,-2.1902,-2.1568,-2.1326,-2.1118,-2.0871,-2.0409,-2.0067,-1.9772,-1.95,-1.9251,-1.8934,-1.8667,-1.8518,-1.8356,-1.8139,-1.7975,-1.7909,-1.7744,-1.7634,-1.7579,-1.7357,-1.7179,-1.7088,-1.6909,-1.6684,-1.657,-1.6275,-1.5931,-1.5768,-1.5468,-1.5235,-1.4883,-1.435,-1.3872,-1.3571,-1.3338,-1.3164,-1.2981,-1.2805,-1.2683,-1.2498,-1.2375,-1.2321,-1.2182,-1.2233,-1.2223,-1.2274,-1.237,-1.2469,-1.2541,-1.2564,-1.2557,-1.2497,-1.2478,-1.2358,-1.2305,-1.2083,-1.1929,-1.1855,-1.1706,-1.1484,-1.1335,-1.126,-1.1186,-1.1111,-1.1037,-1.0962,-1.0962,-1.0812,-1.0663,-1.0594,-1.0519,-1.0368,-1.0368,-1.0368,-1.0368,-1.0293,-1.0218,-1.0067,-0.9916,-0.9695,-0.9473,-0.9246,-0.9165,-0.9089,-0.917,-0.9327,-0.9549,-0.9771,-0.9922,-0.9997,-1.0143,-1.0218,-1.0438,-1.0588,-1.0663,-1.0812,-3.1325,-3.1015,-3.0692,-3.0342,-2.9903,-2.9,-2.8051,-2.7063,-2.5998,-2.5022,-2.4101,-2.3739,-2.3377,-2.3068,-2.2889,-2.2783,-2.2555,-2.2324,-2.1983,-2.1712,-2.1506,-2.1326,-2.1118,-2.0822,-2.0485,-2.0144,-1.9875,-1.9668,-1.9408,-1.921,-1.8893,-1.8679,-1.8518,-1.8302,-1.8018,-1.7909,-1.7854,-1.7755,-1.759,-1.7423,-1.7323,-1.7134,-1.6909,-1.657,-1.64,-1.6171,-1.5999,-1.5768,-1.5468,-1.541,-1.501,-1.4538,-1.4121,-1.3752,-1.3511,-1.339,-1.3216,-1.3042,-1.2867,-1.2744,-1.256,-1.2367,-1.2259,-1.2197,-1.2212,-1.2325,-1.2387,-1.2437,-1.2513,-1.2626,-1.248,-1.2555,-1.2583,-1.2586,-1.2452,-1.2231,-1.2083,-1.1855,-1.1706,-1.1484,-1.1409,-1.1409,-1.1335,-1.126,-1.1186,-1.1186,-1.1037,-1.0887,-1.0812,-1.0738,-1.0588,-1.0594,-1.0519,-1.0669,-1.0669,-1.0519,-1.0368,-1.0293,-1.0067,-0.9846,-0.9549,-0.9544,-0.9539,-0.9468,-0.9625,-0.9695,-0.9841,-0.9992,-1.0143,-1.0218,-1.0368,-1.0588,-1.0738,-1.0807,-1.0962,-3.1406,-3.1151,-3.0814,-3.0526,-3.0175,-2.9209,-2.8142,-2.7206,-2.6094,-2.516,-2.428,-2.3782,-2.3595,-2.3377,-2.3024,-2.2768,-2.2509,-2.231,-2.2137,-2.1902,-2.1698,-2.152,-2.1326,-2.118,-2.0947,-2.0675,-2.0309,-1.9926,-1.9708,-1.946,-1.9198,-1.8946,-1.8798,-1.8583,-1.8302,-1.8139,-1.8018,-1.7909,-1.7755,-1.759,-1.7479,-1.7323,-1.7032,-1.6684,-1.6513,-1.6343,-1.6171,-1.6056,-1.5816,-1.5478,-1.5352,-1.5128,-1.4725,-1.43,-1.4001,-1.3761,-1.358,-1.3398,-1.3216,-1.3042,-1.2867,-1.2744,-1.256,-1.2436,-1.2321,-1.2243,-1.2287,-1.2474,-1.263,-1.2772,-1.2895,-1.2749,-1.2641,-1.257,-1.2565,-1.2432,-1.2298,-1.2231,-1.2077,-1.1781,-1.1706,-1.1632,-1.1484,-1.1484,-1.1484,-1.1409,-1.1335,-1.126,-1.1186,-1.1037,-1.0887,-1.0812,-1.0738,-1.0887,-1.0962,-1.0812,-1.0738,-1.0663,-1.0443,-1.0293,-1.0148,-1.0073,-1.0067,-0.9922,-0.9771,-0.9771,-0.9916,-1.0143,-1.0368,-1.0519,-1.0669,-1.0812,-1.0887,-1.0956,-1.1037,-3.1466,-3.1196,-3.0855,-3.0377,-2.9741,-2.8697,-2.7711,-2.6814,-2.5772,-2.4998,-2.4477,-2.4094,-2.3824,-2.361,-2.3421,-2.3068,-2.2723,-2.254,-2.2356,-2.2123,-2.1888,-2.1698,-2.152,-2.1361,-2.1229,-2.0997,-2.0662,-2.036,-2.0144,-1.9772,-1.9512,-1.9303,-1.9052,-1.8786,-1.8572,-1.8367,-1.8247,-1.8127,-1.792,-1.7755,-1.7689,-1.749,-1.7099,-1.6853,-1.6684,-1.6513,-1.64,-1.6171,-1.5989,-1.5826,-1.572,-1.5478,-1.5245,-1.4951,-1.4656,-1.424,-1.4001,-1.3692,-1.3511,-1.3277,-1.3155,-1.2928,-1.2805,-1.2683,-1.256,-1.2452,-1.2391,-1.2444,-1.2527,-1.266,-1.2609,-1.2589,-1.262,-1.2649,-1.259,-1.2514,-1.2551,-1.2579,-1.2365,-1.2137,-1.2003,-1.1855,-1.1632,-1.1632,-1.1706,-1.1632,-1.1632,-1.1558,-1.1558,-1.1335,-1.1111,-1.1186,-1.1111,-1.1111,-1.126,-1.1186,-1.1037,-1.0962,-1.0887,-1.0669,-1.0519,-1.0443,-1.0293,-1.0218,-1.0067,-0.9916,-1.0067,-1.0293,-1.0519,-1.0738,-1.0887,-1.0962,-1.1037,-1.1111,-1.1186,-3.1504,-3.1312,-3.0935,-3.0218,-2.9327,-2.8274,-2.7332,-2.6446,-2.5481,-2.4918,-2.4564,-2.4343,-2.4078,-2.3809,-2.3595,-2.3334,-2.2934,-2.2754,-2.2526,-2.2263,-2.2077,-2.1888,-2.1712,-2.152,-2.1375,-2.1242,-2.101,-2.0825,-2.0448,-2.0131,-1.9875,-1.9604,-1.9303,-1.9052,-1.8839,-1.8625,-1.8518,-1.8313,-1.8193,-1.8018,-1.7799,-1.7534,-1.7267,-1.7078,-1.6853,-1.6751,-1.657,-1.6343,-1.6171,-1.6056,-1.5961,-1.5788,-1.5546,-1.5478,-1.5235,-1.4765,-1.4419,-1.4061,-1.3812,-1.3571,-1.3398,-1.3155,-1.2989,-1.2867,-1.2744,-1.2621,-1.2514,-1.2429,-1.2405,-1.2459,-1.2538,-1.2491,-1.2562,-1.2596,-1.2494,-1.2509,-1.2662,-1.2694,-1.267,-1.2464,-1.2285,-1.2157,-1.2003,-1.1929,-1.1929,-1.1929,-1.1855,-1.1781,-1.1706,-1.1632,-1.1484,-1.1558,-1.1484,-1.1409,-1.1484,-1.1484,-1.1335,-1.126,-1.1186,-1.1117,-1.0893,-1.0669,-1.0588,-1.0438,-1.0293,-1.0143,-1.0293,-1.0443,-1.0588,-1.0812,-1.0962,-1.1111,-1.1186,-1.126,-1.1335,-3.1559,-3.1423,-3.1032,-3.0396,-2.947,-2.8458,-2.7476,-2.646,-2.5495,-2.5045,-2.4846,-2.4523,-2.4261,-2.4094,-2.3767,-2.3334,-2.3038,-2.2904,-2.2723,-2.2417,-2.2278,-2.2091,-2.1902,-2.1712,-2.152,-2.1375,-2.1242,-2.0934,-2.0686,-2.0485,-2.0182,-1.9862,-1.9708,-1.9512,-1.9093,-1.8946,-1.8721,-1.8476,-1.8367,-1.8193,-1.7963,-1.7755,-1.7534,-1.7323,-1.7155,-1.7043,-1.674,-1.6581,-1.64,-1.6171,-1.6114,-1.6009,-1.5846,-1.574,-1.5546,-1.5186,-1.4824,-1.441,-1.4291,-1.3992,-1.37,-1.3459,-1.3294,-1.3119,-1.2867,-1.2683,-1.2621,-1.256,-1.2445,-1.2445,-1.2519,-1.2577,-1.2534,-1.2505,-1.2509,-1.2462,-1.2551,-1.2906,-1.2892,-1.286,-1.2684,-1.2505,-1.2305,-1.2305,-1.2231,-1.2157,-1.2083,-1.2009,-1.1935,-1.1855,-1.1781,-1.1787,-1.1787,-1.1706,-1.1632,-1.1706,-1.1632,-1.1632,-1.1558,-1.149,-1.126,-1.0962,-1.0812,-1.0738,-1.0519,-1.0443,-1.0594,-1.0738,-1.0738,-1.0887,-1.1037,-1.1186,-1.1341,-1.1409,-1.1484,-3.1671,-3.1479,-3.1112,-3.0241,-2.9087,-2.8372,-2.731,-2.6156,-2.5484,-2.5123,-2.4966,-2.4742,-2.4482,-2.4261,-2.3852,-2.3551,-2.329,-2.3113,-2.2889,-2.2678,-2.2449,-2.2217,-2.2077,-2.1888,-2.1746,-2.152,-2.1375,-2.1242,-2.0934,-2.0673,-2.0372,-2.0182,-1.9914,-1.9708,-1.9396,-1.9251,-1.8987,-1.8732,-1.853,-1.8259,-1.803,-1.792,-1.7755,-1.7545,-1.739,-1.7211,-1.7043,-1.6807,-1.6637,-1.64,-1.64,-1.6239,-1.6066,-1.5951,-1.5836,-1.5662,-1.5294,-1.4883,-1.4529,-1.43,-1.4052,-1.3692,-1.3528,-1.3224,-1.2981,-1.2805,-1.2674,-1.2683,-1.256,-1.2523,-1.25,-1.246,-1.2477,-1.2458,-1.2504,-1.258,-1.2672,-1.2998,-1.3167,-1.3093,-1.3078,-1.2903,-1.2732,-1.2599,-1.2452,-1.2305,-1.2305,-1.2231,-1.2157,-1.2157,-1.2003,-1.1861,-1.1861,-1.1861,-1.1855,-1.1855,-1.1929,-1.1855,-1.1855,-1.1781,-1.1564,-1.1335,-1.126,-1.1111,-1.0962,-1.0887,-1.0968,-1.0887,-1.0807,-1.0962,-1.1117,-1.1267,-1.1409,-1.1564,-1.1632,-3.1856,-3.1538,-3.119,-3.0118,-2.8712,-2.8279,-2.724,-2.5798,-2.5432,-2.5217,-2.5045,-2.4846,-2.4564,-2.4302,-2.4009,-2.3797,-2.3595,-2.3334,-2.3113,-2.2904,-2.2678,-2.2495,-2.231,-2.2156,-2.1935,-2.1746,-2.152,-2.1375,-2.118,-2.0921,-2.0686,-2.0549,-2.0182,-1.9914,-1.9747,-1.9488,-1.9239,-1.8946,-1.8691,-1.8422,-1.8247,-1.8116,-1.7963,-1.781,-1.7601,-1.7434,-1.7278,-1.7099,-1.6874,-1.6694,-1.657,-1.6467,-1.6285,-1.6114,-1.5999,-1.5894,-1.5604,-1.5303,-1.4883,-1.4588,-1.43,-1.3992,-1.3631,-1.3338,-1.3103,-1.292,-1.2858,-1.2858,-1.2797,-1.2613,-1.2498,-1.2452,-1.2461,-1.2482,-1.2439,-1.2653,-1.28,-1.2961,-1.3194,-1.3308,-1.3307,-1.3295,-1.3055,-1.2959,-1.2753,-1.2532,-1.2452,-1.2452,-1.2452,-1.2378,-1.2378,-1.2231,-1.2305,-1.2305,-1.2305,-1.2224,-1.2231,-1.2157,-1.2157,-1.2083,-1.1935,-1.1787,-1.1713,-1.1558,-1.1329,-1.1186,-1.1186,-1.0962,-1.0881,-1.0962,-1.1117,-1.126,-1.1409,-1.1632,-1.1861,-3.2143,-3.1726,-3.1346,-3.0289,-2.8827,-2.8362,-2.7323,-2.5959,-2.5502,-2.5294,-2.5162,-2.4831,-2.4523,-2.4317,-2.4193,-2.3925,-2.3595,-2.3551,-2.3377,-2.3127,-2.2949,-2.2754,-2.2572,-2.2356,-2.217,-2.2044,-2.1807,-2.1568,-2.1375,-2.1229,-2.0921,-2.0623,-2.0435,-2.0169,-1.9914,-1.9747,-1.9436,-1.9146,-1.8839,-1.8691,-1.8572,-1.8506,-1.8344,-1.8139,-1.803,-1.781,-1.7334,-1.7278,-1.7099,-1.6874,-1.6751,-1.6627,-1.6513,-1.6285,-1.6171,-1.6124,-1.5961,-1.5662,-1.5352,-1.4883,-1.4529,-1.4291,-1.3932,-1.3519,-1.3354,-1.3111,-1.2989,-1.2981,-1.2928,-1.2867,-1.2805,-1.2752,-1.2615,-1.2585,-1.2555,-1.2601,-1.2724,-1.2783,-1.3048,-1.334,-1.3419,-1.3431,-1.3373,-1.3187,-1.2938,-1.2732,-1.268,-1.2673,-1.2746,-1.2753,-1.2753,-1.2753,-1.2753,-1.2753,-1.2826,-1.2753,-1.2599,-1.2599,-1.2599,-1.2452,-1.2305,-1.2231,-1.2083,-1.1855,-1.1626,-1.1484,-1.1335,-1.1186,-1.1037,-1.1111,-1.1186,-1.1335,-1.1632,-1.1855,-1.2083,-3.2354,-3.2143,-3.1726,-3.081,-2.9546,-2.8736,-2.7722,-2.6611,-2.5816,-2.5355,-2.5162,-2.4846,-2.4645,-2.4482,-2.4317,-2.4151,-2.3925,-2.3696,-2.3551,-2.3377,-2.3157,-2.2979,-2.2768,-2.2632,-2.2417,-2.2231,-2.2044,-2.1855,-2.1664,-2.1471,-2.1277,-2.1068,-2.0772,-2.0485,-2.0233,-1.9965,-1.9708,-1.9436,-1.9146,-1.8893,-1.8827,-1.8667,-1.856,-1.8452,-1.8139,-1.803,-1.7767,-1.7545,-1.7323,-1.7155,-1.6976,-1.6853,-1.6751,-1.6524,-1.64,-1.6343,-1.6181,-1.5951,-1.5768,-1.5294,-1.4942,-1.4469,-1.4052,-1.3761,-1.3597,-1.3407,-1.3294,-1.3172,-1.3111,-1.3042,-1.2928,-1.292,-1.2867,-1.2797,-1.2707,-1.2725,-1.2758,-1.2838,-1.2979,-1.3302,-1.346,-1.3531,-1.3499,-1.3454,-1.3172,-1.3004,-1.2952,-1.29,-1.2973,-1.2973,-1.2973,-1.2973,-1.3046,-1.2973,-1.2973,-1.2973,-1.29,-1.2973,-1.2973,-1.2826,-1.2673,-1.2526,-1.2378,-1.215,-1.1929,-1.1781,-1.1558,-1.1335,-1.126,-1.1186,-1.126,-1.1484,-1.1781,-1.2077,-1.2224,-3.2557,-3.2388,-3.209,-3.1278,-3.0173,-2.9257,-2.8222,-2.7118,-2.6287,-2.5609,-2.5107,-2.4902,-2.4766,-2.4589,-2.4441,-2.4317,-2.4135,-2.3925,-2.3739,-2.3551,-2.3377,-2.3201,-2.3083,-2.2904,-2.2723,-2.2463,-2.2324,-2.2184,-2.1902,-2.1712,-2.152,-2.1313,-2.1068,-2.0785,-2.0435,-2.0131,-1.9914,-1.9695,-1.9488,-1.9146,-1.9093,-1.8946,-1.8774,-1.8721,-1.8464,-1.8313,-1.815,-1.7865,-1.7645,-1.7423,-1.7256,-1.7088,-1.692,-1.6751,-1.6684,-1.6513,-1.64,-1.6239,-1.5999,-1.5642,-1.5167,-1.4647,-1.4359,-1.4061,-1.3941,-1.3761,-1.3588,-1.3536,-1.3346,-1.3224,-1.3164,-1.3103,-1.305,-1.2928,-1.292,-1.2915,-1.2956,-1.3,-1.3115,-1.3308,-1.3435,-1.3576,-1.3606,-1.3615,-1.3536,-1.3317,-1.3258,-1.32,-1.32,-1.32,-1.32,-1.3193,-1.3193,-1.3119,-1.3046,-1.3127,-1.32,-1.32,-1.32,-1.3119,-1.2973,-1.282,-1.2599,-1.2378,-1.215,-1.2003,-1.1855,-1.1632,-1.1409,-1.126,-1.1409,-1.1632,-1.1855,-1.2077,-1.2231,-3.2802,-3.2507,-3.2422,-3.1655,-3.0587,-2.9985,-2.8858,-2.7433,-2.6722,-2.6002,-2.5162,-2.4926,-2.4822,-2.4742,-2.458,-2.4441,-2.4317,-2.4193,-2.4024,-2.3797,-2.3638,-2.3523,-2.3407,-2.3216,-2.2994,-2.2859,-2.2678,-2.2463,-2.2231,-2.1983,-2.1746,-2.1568,-2.1326,-2.1082,-2.0623,-2.0334,-2.0067,-1.985,-1.9798,-1.9552,-1.942,-1.921,-1.9105,-1.8999,-1.8827,-1.8625,-1.8464,-1.8193,-1.803,-1.781,-1.7534,-1.7323,-1.7211,-1.6987,-1.6807,-1.6627,-1.6637,-1.641,-1.6124,-1.5642,-1.5235,-1.4834,-1.4597,-1.4419,-1.4181,-1.407,-1.395,-1.3838,-1.3778,-1.364,-1.3519,-1.3407,-1.3294,-1.3233,-1.3224,-1.3172,-1.3275,-1.323,-1.3405,-1.3317,-1.3457,-1.3598,-1.3693,-1.3766,-1.3769,-1.369,-1.36,-1.3499,-1.3419,-1.3419,-1.3419,-1.3346,-1.3339,-1.3346,-1.3346,-1.3419,-1.3499,-1.3499,-1.3419,-1.3346,-1.3273,-1.3119,-1.29,-1.2673,-1.2452,-1.2305,-1.2077,-1.1855,-1.1632,-1.1484,-1.1632,-1.1781,-1.2003,-1.2157,-1.2231,-3.2993,-3.2802,-3.2507,-3.2179,-3.1638,-3.0634,-2.9428,-2.8119,-2.6716,-2.5734,-2.5349,-2.5084,-2.4966,-2.4902,-2.4782,-2.458,-2.4441,-2.4317,-2.4151,-2.4067,-2.3839,-2.3696,-2.3581,-2.3407,-2.3231,-2.3038,-2.2859,-2.2723,-2.2526,-2.2296,-2.2123,-2.1902,-2.1568,-2.1193,-2.0848,-2.0599,-2.0359,-2.022,-2.0016,-1.9759,-1.9656,-1.9473,-1.9316,-1.9263,-1.9146,-1.8987,-1.8786,-1.856,-1.8344,-1.8127,-1.781,-1.7645,-1.749,-1.7211,-1.7032,-1.6909,-1.6797,-1.6581,-1.6353,-1.5999,-1.5652,-1.5294,-1.4951,-1.4715,-1.4419,-1.435,-1.424,-1.407,-1.401,-1.3941,-1.3821,-1.383,-1.3709,-1.3709,-1.37,-1.3649,-1.3666,-1.3606,-1.3613,-1.3403,-1.338,-1.3526,-1.3639,-1.3832,-1.3868,-1.3964,-1.3889,-1.3745,-1.3702,-1.3637,-1.3637,-1.3492,-1.3492,-1.3572,-1.3645,-1.3717,-1.3783,-1.3783,-1.371,-1.3645,-1.3572,-1.3419,-1.32,-1.2973,-1.2826,-1.2606,-1.2378,-1.215,-1.1929,-1.1855,-1.1929,-1.1929,-1.2157,-1.2231,-1.2231,-3.2379,-3.2151,-3.1906,-3.1714,-3.1547,-3.1024,-3.0,-2.8457,-2.6536,-2.5584,-2.5448,-2.5278,-2.5107,-2.5029,-2.4926,-2.4742,-2.4523,-2.44,-2.4276,-2.4166,-2.3982,-2.3797,-2.3696,-2.3566,-2.3407,-2.326,-2.3127,-2.3038,-2.2859,-2.2572,-2.2356,-2.2091,-2.1807,-2.1485,-2.1144,-2.0885,-2.0673,-2.0485,-2.022,-2.0055,-1.9914,-1.9708,-1.9565,-1.9512,-1.9408,-1.9251,-1.9093,-1.8881,-1.8655,-1.8441,-1.8236,-1.8018,-1.7755,-1.759,-1.7368,-1.72,-1.692,-1.6705,-1.6534,-1.6306,-1.6009,-1.5836,-1.543,-1.5079,-1.4834,-1.4775,-1.4606,-1.4428,-1.4309,-1.4181,-1.4181,-1.4189,-1.407,-1.407,-1.401,-1.395,-1.389,-1.383,-1.383,-1.3606,-1.3449,-1.3591,-1.3622,-1.381,-1.4012,-1.4167,-1.4237,-1.4111,-1.3977,-1.3928,-1.3855,-1.371,-1.3702,-1.3775,-1.3855,-1.3928,-1.3992,-1.4065,-1.3992,-1.3928,-1.3855,-1.3702,-1.3492,-1.3273,-1.3127,-1.29,-1.268,-1.2452,-1.2305,-1.2157,-1.215,-1.2224,-1.2305,-1.2305,-1.2305,-3.1084,-3.0725,-3.0646,-3.0462,-3.0314,-3.0941,-3.0173,-2.8331,-2.6529,-2.5733,-2.5616,-2.541,-2.5278,-2.5146,-2.5045,-2.4886,-2.463,-2.4539,-2.4416,-2.425,-2.4082,-2.3925,-2.3782,-2.3696,-2.3581,-2.3494,-2.3407,-2.326,-2.3127,-2.2844,-2.2572,-2.231,-2.203,-2.1759,-2.1471,-2.118,-2.0934,-2.0736,-2.0523,-2.0359,-2.0169,-1.9965,-1.9811,-1.9759,-1.9617,-1.946,-1.9356,-1.9239,-1.9081,-1.8922,-1.8721,-1.841,-1.8193,-1.7963,-1.77,-1.7368,-1.7032,-1.6789,-1.6807,-1.6581,-1.641,-1.6218,-1.5836,-1.5536,-1.5303,-1.5137,-1.5029,-1.4852,-1.4734,-1.4597,-1.4538,-1.4419,-1.4249,-1.4249,-1.4189,-1.413,-1.407,-1.4061,-1.4001,-1.389,-1.3769,-1.3796,-1.3825,-1.3975,-1.409,-1.4328,-1.4494,-1.4473,-1.4331,-1.4137,-1.4065,-1.3992,-1.3992,-1.4057,-1.4137,-1.4145,-1.4209,-1.4281,-1.4201,-1.4065,-1.3992,-1.392,-1.3775,-1.3557,-1.3346,-1.32,-1.2973,-1.2826,-1.2606,-1.2526,-1.2378,-1.2305,-1.2305,-1.2378,-1.2378,-3.1164,-3.0957,-3.0733,-3.0511,-3.0313,-2.9834,-2.8956,-2.7868,-2.6643,-2.6046,-2.5864,-2.5637,-2.5486,-2.5448,-2.5201,-2.5045,-2.4846,-2.4686,-2.4539,-2.4374,-2.4208,-2.4067,-2.394,-2.3839,-2.3711,-2.361,-2.3566,-2.3538,-2.3363,-2.3127,-2.283,-2.2558,-2.231,-2.2091,-2.1902,-2.1616,-2.1277,-2.0934,-2.0772,-2.0623,-2.0472,-2.022,-2.0118,-2.0029,-1.9875,-1.9772,-1.9656,-1.9552,-1.9396,-1.9186,-1.8987,-1.8721,-1.8506,-1.8302,-1.8084,-1.7688,-1.7181,-1.6688,-1.697,-1.6575,-1.6367,-1.6652,-1.64,-1.6009,-1.5778,-1.5546,-1.5439,-1.5264,-1.5147,-1.502,-1.4893,-1.4784,-1.4666,-1.4616,-1.4547,-1.4488,-1.4428,-1.4359,-1.43,-1.4061,-1.4001,-1.3985,-1.3961,-1.4027,-1.4226,-1.4512,-1.4663,-1.4722,-1.4687,-1.4498,-1.4353,-1.4281,-1.4201,-1.4201,-1.4281,-1.4289,-1.4353,-1.4425,-1.4353,-1.4274,-1.4281,-1.4137,-1.3992,-1.3848,-1.363,-1.3484,-1.3346,-1.3127,-1.29,-1.2753,-1.2673,-1.2452,-1.2378,-1.2452,-1.2526,-3.0369,-3.0217,-2.9945,-2.9771,-2.9454,-2.8735,-2.8143,-2.762,-2.6809,-2.6314,-2.6118,-2.5897,-2.5728,-2.5578,-2.541,-2.5201,-2.4982,-2.4846,-2.4686,-2.4482,-2.4333,-2.4234,-2.4109,-2.3982,-2.3839,-2.3782,-2.3739,-2.3754,-2.3625,-2.3348,-2.3113,-2.274,-2.254,-2.2356,-2.217,-2.1888,-2.1616,-2.1326,-2.1019,-2.0822,-2.0636,-2.0485,-2.0385,-2.0283,-2.0182,-2.0067,-1.9965,-1.9875,-1.9708,-1.95,-1.9356,-1.9198,-1.8869,-1.8679,-1.8302,-1.7918,-1.7564,-1.7312,-1.7357,-1.7049,-1.6949,-1.6935,-1.6909,-1.6627,-1.6285,-1.6056,-1.5836,-1.5662,-1.5556,-1.5439,-1.5323,-1.5205,-1.5147,-1.5098,-1.497,-1.4911,-1.4784,-1.4715,-1.4538,-1.43,-1.4189,-1.413,-1.4125,-1.4171,-1.4266,-1.4513,-1.4686,-1.4816,-1.4849,-1.4743,-1.4681,-1.4569,-1.4418,-1.4346,-1.4425,-1.4505,-1.4505,-1.4569,-1.4497,-1.4497,-1.4425,-1.4353,-1.4209,-1.4057,-1.3912,-1.3775,-1.3637,-1.3419,-1.3127,-1.3046,-1.29,-1.2753,-1.2606,-1.2526,-1.2606,-2.9108,-2.896,-2.8743,-2.8611,-2.8227,-2.7993,-2.7801,-2.7539,-2.7021,-2.659,-2.6365,-2.6134,-2.5897,-2.5766,-2.5562,-2.5371,-2.5162,-2.5045,-2.4846,-2.4645,-2.4482,-2.4359,-2.4276,-2.4151,-2.4051,-2.4024,-2.4024,-2.3982,-2.394,-2.3653,-2.329,-2.2979,-2.2844,-2.2663,-2.2402,-2.217,-2.1949,-2.165,-2.1375,-2.118,-2.0898,-2.0736,-2.0573,-2.0549,-2.0385,-2.0271,-2.0271,-2.0233,-2.0195,-2.0029,-1.9823,-1.9668,-1.9303,-1.8987,-1.856,-1.8209,-1.7878,-1.7784,-1.7643,-1.7389,-1.739,-1.7346,-1.7357,-1.719,-1.6853,-1.6503,-1.6285,-1.6114,-1.6009,-1.5846,-1.572,-1.5604,-1.5488,-1.5439,-1.5332,-1.5205,-1.5079,-1.4951,-1.4784,-1.4606,-1.4547,-1.4488,-1.4387,-1.4499,-1.454,-1.4648,-1.4778,-1.4884,-1.5027,-1.5018,-1.4956,-1.4887,-1.4776,-1.4633,-1.4641,-1.4649,-1.4649,-1.4641,-1.4641,-1.4569,-1.4497,-1.4425,-1.4353,-1.4209,-1.4137,-1.4065,-1.3928,-1.3637,-1.3419,-1.3346,-1.3193,-1.2973,-1.29,-1.2826,-1.2826,-2.913,-2.8929,-2.8669,-2.8458,-2.8246,-2.8109,-2.7893,-2.7642,-2.7417,-2.7053,-2.6674,-2.6383,-2.617,-2.6023,-2.5728,-2.5524,-2.5448,-2.5201,-2.5045,-2.4886,-2.4742,-2.4564,-2.4482,-2.4416,-2.4276,-2.4177,-2.4135,-2.4193,-2.4067,-2.3797,-2.3551,-2.3377,-2.3143,-2.2844,-2.2663,-2.2449,-2.217,-2.203,-2.1793,-2.152,-2.1229,-2.1046,-2.0898,-2.0848,-2.0723,-2.066,-2.061,-2.0472,-2.0372,-2.0271,-2.008,-1.9823,-1.9565,-1.9303,-1.9093,-1.8768,-1.8225,-1.8123,-1.8032,-1.7781,-1.7628,-1.7731,-1.7689,-1.759,-1.7357,-1.7011,-1.6729,-1.657,-1.64,-1.6239,-1.6124,-1.5999,-1.5884,-1.5788,-1.5682,-1.5498,-1.5313,-1.5196,-1.5029,-1.497,-1.4911,-1.4793,-1.4734,-1.4758,-1.4865,-1.4919,-1.4969,-1.5115,-1.5239,-1.5292,-1.5236,-1.5126,-1.5108,-1.4991,-1.4927,-1.4856,-1.4784,-1.4713,-1.4705,-1.4633,-1.4641,-1.4641,-1.4569,-1.4497,-1.4433,-1.4289,-1.4145,-1.3935,-1.3717,-1.3637,-1.3419,-1.3273,-1.3119,-1.3119,-1.3119,-2.9181,-2.9044,-2.8761,-2.8518,-2.838,-2.8246,-2.8081,-2.7864,-2.7642,-2.74,-2.7053,-2.6691,-2.64,-2.6293,-2.597,-2.5766,-2.5675,-2.5432,-2.5317,-2.5162,-2.4982,-2.4846,-2.4726,-2.462,-2.4482,-2.4385,-2.4359,-2.4333,-2.4208,-2.4024,-2.3839,-2.3638,-2.329,-2.3098,-2.2979,-2.2678,-2.2449,-2.237,-2.2184,-2.1902,-2.1616,-2.1423,-2.1229,-2.118,-2.1131,-2.1055,-2.097,-2.0822,-2.0723,-2.0623,-2.0422,-2.0182,-1.9914,-1.972,-1.946,-1.9137,-1.8794,-1.8453,-1.8384,-1.8212,-1.7924,-1.8078,-1.817,-1.8127,-1.8041,-1.7689,-1.7412,-1.7245,-1.6909,-1.674,-1.6627,-1.6457,-1.6343,-1.6239,-1.6009,-1.5836,-1.5662,-1.5498,-1.5323,-1.5196,-1.5137,-1.497,-1.4911,-1.4862,-1.4952,-1.5018,-1.5065,-1.5155,-1.5294,-1.5486,-1.5453,-1.5411,-1.5329,-1.5234,-1.5062,-1.4991,-1.4991,-1.4919,-1.4848,-1.4848,-1.4919,-1.4919,-1.4856,-1.4784,-1.4713,-1.4577,-1.4433,-1.4217,-1.4072,-1.392,-1.371,-1.3499,-1.3419,-1.3339,-1.3346,-2.9267,-2.9156,-2.8905,-2.8712,-2.8518,-2.8362,-2.8246,-2.8081,-2.7864,-2.7659,-2.7448,-2.6989,-2.6691,-2.6469,-2.6277,-2.6115,-2.5934,-2.5733,-2.5584,-2.5394,-2.5201,-2.5084,-2.4966,-2.4791,-2.467,-2.4605,-2.4523,-2.4416,-2.425,-2.4151,-2.4009,-2.3739,-2.3551,-2.3465,-2.3201,-2.3024,-2.2844,-2.2692,-2.2509,-2.2402,-2.2123,-2.1902,-2.1664,-2.152,-2.1471,-2.1361,-2.1313,-2.1229,-2.118,-2.0983,-2.0772,-2.0523,-2.0321,-2.0118,-1.9875,-1.9567,-1.9294,-1.9113,-1.8922,-1.8738,-1.8661,-1.8655,-1.8655,-1.8614,-1.8476,-1.8313,-1.803,-1.7799,-1.7523,-1.7245,-1.7134,-1.6965,-1.6853,-1.6637,-1.6343,-1.6124,-1.5961,-1.5798,-1.5614,-1.5488,-1.5371,-1.5215,-1.5156,-1.5098,-1.5077,-1.5075,-1.5138,-1.5172,-1.5274,-1.5432,-1.5503,-1.5545,-1.5575,-1.5426,-1.5305,-1.5204,-1.5204,-1.5125,-1.5062,-1.5125,-1.5196,-1.5062,-1.5062,-1.5062,-1.4999,-1.4856,-1.4713,-1.4497,-1.4353,-1.4209,-1.3992,-1.3783,-1.3645,-1.3564,-1.3492,-2.9267,-2.9108,-2.8934,-2.8834,-2.8712,-2.8484,-2.8327,-2.8246,-2.8025,-2.7853,-2.7659,-2.7386,-2.7053,-2.6624,-2.6418,-2.6295,-2.6187,-2.6007,-2.5749,-2.5562,-2.547,-2.5371,-2.5217,-2.4989,-2.491,-2.4766,-2.4645,-2.4523,-2.4416,-2.4317,-2.4234,-2.4067,-2.3839,-2.3696,-2.3508,-2.3334,-2.3172,-2.3053,-2.2904,-2.2754,-2.2526,-2.2263,-2.1996,-2.1855,-2.1759,-2.1712,-2.1664,-2.1554,-2.1471,-2.1277,-2.1082,-2.0871,-2.0709,-2.051,-2.0271,-2.0016,-1.9798,-1.9604,-1.9408,-1.9198,-1.9133,-1.9028,-1.8975,-1.8881,-1.8786,-1.8744,-1.8518,-1.8398,-1.8073,-1.7799,-1.7579,-1.7412,-1.7301,-1.6909,-1.6627,-1.641,-1.6259,-1.6029,-1.5856,-1.573,-1.5672,-1.5566,-1.5498,-1.5439,-1.5323,-1.5312,-1.5263,-1.5295,-1.5341,-1.5482,-1.5551,-1.5674,-1.5739,-1.5722,-1.5649,-1.5488,-1.5426,-1.5346,-1.5275,-1.5346,-1.5346,-1.5196,-1.5204,-1.5284,-1.5275,-1.5133,-1.4919,-1.4784,-1.4633,-1.4418,-1.4201,-1.3985,-1.3855,-1.3717,-1.3645]},{"header":{"parameterUnit":"m.s-1","parameterCategory":1,"la1":31.0,"la2":29.5877,"lo1":-88.7671,"lo2":-86.6584,"dy":0.0162,"dx":0.0185,"nx":115,"ny":88,"refTime":"2023-05-07T06:00:00:Z","depth":0,"parameterNumber":3,"parameterNumberName":"V-component_of_WINDS"},"data":[0.0,0.0,0.0,0.0,0.0,0.0,0.0,0.0,0.0,0.0,0.0,0.0,0.0,0.0,0.0,0.0,0.0,0.0,0.0,0.0,0.0,0.0,0.0,0.0,0.0,0.0,0.0,0.0,0.0,0.0,0.0,0.0,0.0,0.0,0.0,0.0,0.0,0.0,0.0,0.0,0.0,0.0,0.0,0.0,0.0,0.0,0.0,0.0,0.0,0.0,0.0,0.0,0.0,0.0,0.0,0.0,0.0,0.0,0.0,0.0,0.0,0.0,0.0,0.0,0.0,0.0,0.0,0.0,0.0,0.0,0.0,0.0,0.0,0.0,0.0,0.0,0.0,0.0,0.0,0.0,0.0,0.0,0.0,0.0,0.0,0.0,0.0,0.0,0.0,0.0,0.0,0.0,0.0,0.0,0.0,0.0,0.0,0.0,0.0,0.0,0.0,0.0,0.0,0.0,0.0,0.0,0.0,0.0,0.0,0.0,0.0,0.0,0.0,0.0,0.0,0.0,0.0,0.0,0.0,0.0,0.0,0.0,0.0,0.0,0.0,0.0,0.0,0.0,0.0,0.0,0.0,0.0,0.0,0.0,0.0,0.0,0.0,0.0,0.0,0.0,0.0,0.0,0.0,0.0,0.0,0.0,0.0,0.0,0.0,0.0,0.0,0.0,0.0,0.0,0.0,0.0,0.0,0.0,0.0,0.0,0.0,0.0,0.0,0.0,0.0,0.0,0.0,0.0,0.0,0.0,0.0,0.0,0.0,0.0,0.0,0.0,0.0,0.0,0.0,0.0,0.0,0.0,0.0,0.0,0.0,0.0,0.0,0.0,0.0,0.0,0.0,0.0,0.0,0.0,0.0,0.0,0.0,0.0,0.0,0.0,0.0,0.0,0.0,0.0,0.0,0.0,0.0,0.0,0.0,0.0,0.0,0.0,0.0,0.0,0.0,0.0,0.0,0.0,0.0,0.0,0.0,0.0,0.0,0.0,0.0,0.0,0.0,0.0,0.0,0.0,0.0,0.0,0.0,0.0,0.0,0.0,0.0,0.0,0.0,0.0,0.0,0.0,0.0,0.0,0.0,0.0,0.0,0.0,0.0,0.0,0.0,0.0,0.0,0.0,0.0,0.0,0.0,0.0,0.0,0.0,0.0,0.0,0.0,0.0,0.0,0.0,0.0,0.0,0.0,0.0,0.0,0.0,0.0,0.0,0.0,0.0,0.0,0.0,0.0,0.0,0.0,0.0,0.0,0.0,0.0,0.0,0.0,0.0,0.0,0.0,0.0,0.0,0.0,0.0,0.0,0.0,0.0,0.0,0.0,0.0,0.0,0.0,0.0,0.0,0.0,0.0,0.0,0.0,0.0,0.0,0.0,0.0,0.0,0.0,0.0,0.0,0.0,0.0,0.0,0.0,0.0,0.0,0.0,0.0,0.0,0.0,0.0,0.0,0.0,0.0,0.0,0.0,0.0,0.0,0.0,0.0,0.0,0.0,0.0,0.0,0.0,0.0,0.0,0.0,0.0,0.0,0.0,0.0,0.0,0.0,0.0,0.0,0.0,0.0,0.0,0.0,0.0,0.0,0.0,0.0,0.0,0.0,0.0,0.0,0.0,0.0,0.0,0.0,0.0,0.0,0.0,0.0,0.0,0.0,0.0,0.0,0.0,0.0,0.0,0.0,0.0,0.0,0.0,0.0,0.0,0.0,0.0,0.0,0.0,0.0,0.0,0.0,0.0,0.0,0.0,0.0,0.0,0.0,0.0,0.0,0.0,0.0,0.0,0.0,0.0,0.0,0.0,0.0,0.0,0.0,0.0,0.0,0.0,0.0,0.0,0.0,0.0,0.0,0.0,0.0,0.0,0.0,0.0,0.0,0.0,0.0,0.0,0.0,0.0,0.0,0.0,0.0,0.0,0.0,0.0,0.0,0.0,0.0,0.0,0.0,0.0,0.0,0.0,0.0,0.0,0.0,0.0,0.0,0.0,0.0,0.0,0.0,0.0,0.0,0.0,0.0,0.0,0.0,0.0,0.0,0.0,0.0,0.0,0.0,0.0,0.0,0.0,0.0,0.0,0.0,0.0,0.0,0.0,0.0,0.0,0.0,0.0,0.0,0.0,0.0,0.0,0.0,0.0,0.0,0.0,0.0,0.0,0.0,0.0,0.0,0.0,0.0,0.0,0.0,0.0,0.0,0.0,0.0,0.0,0.0,0.0,0.0,0.0,0.0,0.0,0.0,0.0,0.0,0.0,0.0,0.0,0.0,0.0,0.0,0.0,0.0,0.0,0.0,0.0,0.0,0.0,0.0,0.0,0.0,0.0,0.0,0.0,0.0,0.0,0.0,0.0,0.0,0.0,0.0,0.0,0.0,0.0,0.0,0.0,0.0,0.0,0.0,0.0,0.0,0.0,0.0,0.0,0.0,0.0,0.0,0.0,0.0,0.0,0.0,0.0,0.0,0.0,0.0,0.0,0.0,0.0,0.0,0.0,0.0,0.0,0.0,0.0,0.0,0.0,0.0,0.0,0.0,0.0,0.0,0.0,0.0,0.0,0.0,0.0,0.0,0.0,0.0,0.0,0.0,0.0,0.0,0.0,0.0,0.0,0.0,0.0,0.0,0.0,0.0,0.0,0.0,0.0,0.0,0.0,0.0,0.0,0.0,0.0,0.0,0.0,0.0,0.0,0.0,0.0,0.0,0.0,0.0,0.0,0.0,0.0,0.0,0.0,0.0,0.0,0.0,0.0,0.0,0.0,0.0,0.0,0.0,0.0,0.0,0.0,0.0,0.0,0.0,0.0,0.0,0.0,0.0,0.0,0.0,0.0,0.0,0.0,0.0,0.0,0.0,0.0,0.0,0.0,0.0,0.0,0.0,0.0,0.0,0.0,0.0,0.0,0.0,0.0,0.0,0.0,0.0,0.0,0.0,0.0,0.0,0.0,0.0,0.0,0.0,0.0,0.0,0.0,0.0,0.0,0.0,0.0,0.0,0.0,0.0,0.0,0.0,0.0,0.0,0.0,0.0,0.0,0.0,0.0,0.0,0.0,0.0,0.0,0.0,0.0,0.0,0.0,0.0,0.0,0.0,0.0,0.0,0.0,0.0,0.0,0.0,0.0,0.0,0.0,0.0,0.0,0.0,0.0,0.0,0.0,0.0,0.0,0.0,0.0,0.0,0.0,0.0,0.0,0.0,0.0,0.0,0.0,0.0,0.0,0.0,0.0,0.0,0.0,0.0,0.0,0.0,0.0,0.0,0.0,0.0,0.0,0.0,0.0,0.0,0.0,0.0,0.0,0.0,0.0,0.0,0.0,0.0,0.0,0.0,0.0,0.0,0.0,0.0,0.0,0.0,0.0,0.0,0.0,0.0,0.0,0.0,0.0,0.0,0.0,0.0,0.0,0.0,0.0,0.0,0.0,0.0,0.0,0.0,0.0,0.0,0.0,0.0,0.0,0.0,0.0,0.0,0.0,0.0,0.0,0.0,0.0,0.0,0.0,0.0,0.0,0.0,0.0,0.0,0.0,0.0,0.0,0.0,0.0,0.0,0.0,0.0,0.0,0.0,0.0,0.0,0.0,0.0,0.0,0.0,0.0,0.0,0.0,0.0,0.0,0.0,0.0,0.0,0.0,0.0,0.0,0.0,0.0,0.0,0.0,0.0,0.0,0.0,0.0,0.0,0.0,0.0,0.0,0.0,0.0,0.0,0.0,0.0,0.0,0.0,0.0,0.0,0.0,0.0,0.0,0.0,0.0,0.0,0.0,0.0,0.0,0.0,0.0,0.0,0.0,0.0,0.0,0.0,0.0,0.0,0.0,0.0,0.0,0.0,0.0,0.0,0.0,0.0,0.0,0.0,0.0,0.0,0.0,0.0,0.0,0.0,0.0,0.0,0.0,0.0,0.0,0.0,0.0,0.0,0.0,0.0,0.0,0.0,0.0,0.0,0.0,0.0,0.0,0.0,0.0,0.0,0.0,0.0,0.0,0.0,0.0,0.0,0.0,0.0,0.0,0.0,0.0,0.0,0.0,0.0,0.0,0.0,0.0,0.0,0.0,0.0,0.0,0.0,0.0,0.0,0.0,0.0,0.0,0.0,0.0,0.0,0.0,0.0,0.0,0.0,0.0,0.0,0.0,0.0,0.0,0.0,0.0,0.0,0.0,0.0,0.0,0.0,0.0,0.0,0.0,0.0,0.0,0.0,0.0,0.0,0.0,0.0,0.0,0.0,0.0,0.0,0.0,0.0,0.0,0.0,0.0,0.0,0.0,0.0,-1.8074,0.0,0.0,0.0,0.0,0.0,0.0,0.0,0.0,0.0,0.0,0.0,0.0,0.0,0.0,0.0,0.0,0.0,0.0,0.0,0.0,0.0,0.0,0.0,0.0,0.0,0.0,0.0,0.0,0.0,0.0,0.0,0.0,0.0,0.0,0.0,0.0,0.0,0.0,0.0,0.0,0.0,0.0,0.0,0.0,0.0,0.0,0.0,0.0,0.0,0.0,0.0,0.0,0.0,0.0,0.0,0.0,0.0,0.0,0.0,0.0,0.0,0.0,0.0,0.0,0.0,0.0,0.0,0.0,0.0,0.0,0.0,0.0,0.0,0.0,0.0,0.0,0.0,0.0,0.0,0.0,0.0,0.0,0.0,0.0,0.0,0.0,0.0,0.0,0.0,0.0,0.0,0.0,0.0,0.0,0.0,0.0,0.0,0.0,0.0,0.0,0.0,0.0,0.0,0.0,0.0,0.0,0.0,0.0,0.0,0.0,-1.8087,-1.8108,-1.813,-1.8151,-1.8151,0.0,0.0,0.0,0.0,0.0,0.0,0.0,0.0,0.0,0.0,0.0,0.0,0.0,0.0,0.0,0.0,0.0,0.0,0.0,0.0,0.0,0.0,0.0,0.0,0.0,0.0,0.0,0.0,0.0,0.0,0.0,0.0,0.0,0.0,0.0,0.0,0.0,0.0,0.0,0.0,0.0,0.0,0.0,0.0,0.0,0.0,0.0,0.0,0.0,0.0,0.0,0.0,0.0,0.0,0.0,0.0,0.0,0.0,0.0,0.0,0.0,0.0,0.0,0.0,0.0,0.0,0.0,0.0,0.0,0.0,0.0,0.0,0.0,0.0,0.0,0.0,0.0,0.0,0.0,0.0,0.0,0.0,0.0,0.0,0.0,0.0,0.0,0.0,0.0,0.0,0.0,0.0,0.0,0.0,0.0,0.0,0.0,0.0,0.0,0.0,0.0,0.0,0.0,0.0,0.0,0.0,0.0,0.0,0.0,0.0,0.0,0.0,-1.8211,-1.8215,-1.8218,0.0,0.0,0.0,0.0,0.0,0.0,0.0,0.0,0.0,0.0,0.0,0.0,0.0,0.0,0.0,0.0,0.0,0.0,0.0,0.0,0.0,0.0,0.0,0.0,0.0,0.0,0.0,0.0,0.0,0.0,0.0,0.0,0.0,0.0,0.0,0.0,0.0,0.0,0.0,0.0,0.0,0.0,0.0,0.0,0.0,0.0,0.0,0.0,0.0,0.0,0.0,0.0,0.0,0.0,0.0,0.0,0.0,0.0,0.0,0.0,0.0,0.0,0.0,0.0,0.0,0.0,0.0,0.0,0.0,0.0,0.0,0.0,0.0,0.0,0.0,0.0,0.0,0.0,0.0,0.0,0.0,0.0,0.0,0.0,0.0,0.0,0.0,0.0,0.0,0.0,0.0,0.0,0.0,0.0,0.0,0.0,0.0,0.0,0.0,0.0,0.0,0.0,0.0,0.0,0.0,0.0,0.0,0.0,0.0,0.0,-1.819,-1.819,-1.8274,0.0,-1.8307,0.0,0.0,0.0,0.0,0.0,0.0,0.0,0.0,0.0,0.0,0.0,0.0,0.0,0.0,0.0,0.0,0.0,0.0,0.0,0.0,0.0,0.0,0.0,0.0,0.0,0.0,0.0,0.0,0.0,0.0,0.0,0.0,0.0,0.0,0.0,0.0,0.0,0.0,0.0,0.0,0.0,0.0,0.0,0.0,0.0,0.0,0.0,0.0,0.0,0.0,0.0,0.0,0.0,0.0,0.0,0.0,0.0,0.0,0.0,0.0,0.0,0.0,0.0,0.0,0.0,0.0,0.0,0.0,0.0,0.0,0.0,0.0,0.0,0.0,0.0,0.0,0.0,0.0,0.0,0.0,0.0,0.0,0.0,0.0,0.0,0.0,0.0,0.0,0.0,0.0,0.0,0.0,0.0,0.0,0.0,0.0,0.0,0.0,0.0,0.0,0.0,0.0,0.0,0.0,0.0,0.0,0.0,0.0,0.0,0.0,-1.8263,-1.8263,-1.8284,-1.8328,0.0,0.0,0.0,0.0,0.0,0.0,0.0,0.0,0.0,0.0,0.0,0.0,0.0,0.0,0.0,0.0,0.0,0.0,0.0,0.0,0.0,0.0,0.0,0.0,0.0,0.0,0.0,0.0,0.0,0.0,0.0,0.0,0.0,0.0,0.0,0.0,0.0,0.0,0.0,0.0,0.0,0.0,0.0,0.0,0.0,0.0,0.0,0.0,0.0,0.0,0.0,0.0,0.0,0.0,0.0,0.0,0.0,0.0,0.0,0.0,0.0,0.0,0.0,0.0,0.0,0.0,0.0,0.0,0.0,0.0,0.0,0.0,0.0,0.0,0.0,0.0,0.0,0.0,0.0,0.0,0.0,0.0,0.0,0.0,0.0,0.0,0.0,0.0,0.0,0.0,0.0,0.0,0.0,0.0,0.0,0.0,0.0,0.0,0.0,0.0,0.0,0.0,0.0,0.0,0.0,0.0,0.0,0.0,0.0,0.0,-1.8307,-1.8348,-1.8368,-1.8388,-1.8428,-1.8524,0.0,0.0,0.0,0.0,0.0,0.0,0.0,0.0,0.0,0.0,0.0,0.0,0.0,0.0,0.0,0.0,0.0,0.0,0.0,0.0,0.0,0.0,0.0,0.0,0.0,0.0,0.0,0.0,0.0,0.0,0.0,0.0,0.0,0.0,0.0,0.0,0.0,0.0,0.0,0.0,0.0,0.0,0.0,0.0,0.0,0.0,0.0,0.0,0.0,0.0,0.0,0.0,0.0,0.0,0.0,0.0,0.0,0.0,0.0,0.0,0.0,0.0,0.0,0.0,0.0,0.0,0.0,0.0,0.0,0.0,0.0,0.0,0.0,0.0,0.0,0.0,0.0,0.0,0.0,0.0,0.0,0.0,0.0,0.0,0.0,0.0,0.0,0.0,0.0,0.0,0.0,0.0,0.0,0.0,0.0,0.0,0.0,0.0,0.0,0.0,0.0,0.0,0.0,0.0,0.0,0.0,0.0,0.0,0.0,-1.8385,-1.8463,-1.8596,-1.8596,-1.8581,0.0,0.0,0.0,0.0,0.0,0.0,0.0,0.0,0.0,0.0,0.0,0.0,0.0,0.0,0.0,0.0,0.0,0.0,0.0,0.0,0.0,0.0,0.0,0.0,0.0,0.0,0.0,0.0,0.0,0.0,0.0,0.0,0.0,0.0,0.0,0.0,0.0,0.0,0.0,0.0,0.0,0.0,0.0,0.0,0.0,0.0,0.0,0.0,0.0,0.0,0.0,0.0,0.0,0.0,0.0,0.0,0.0,0.0,0.0,0.0,0.0,0.0,0.0,0.0,0.0,0.0,0.0,0.0,0.0,0.0,0.0,0.0,0.0,0.0,0.0,0.0,0.0,0.0,0.0,0.0,0.0,0.0,0.0,0.0,0.0,0.0,0.0,0.0,0.0,0.0,0.0,0.0,0.0,0.0,0.0,0.0,0.0,0.0,0.0,0.0,0.0,0.0,0.0,0.0,0.0,0.0,0.0,0.0,0.0,-1.8428,-1.8487,-1.8545,-1.8601,-1.9137,-1.9442,0.0,0.0,0.0,0.0,0.0,0.0,0.0,0.0,0.0,0.0,0.0,0.0,0.0,0.0,0.0,0.0,0.0,0.0,0.0,0.0,0.0,0.0,0.0,0.0,0.0,0.0,0.0,0.0,0.0,0.0,0.0,0.0,0.0,0.0,0.0,0.0,0.0,0.0,0.0,0.0,0.0,0.0,0.0,0.0,0.0,0.0,0.0,0.0,0.0,0.0,0.0,0.0,0.0,0.0,0.0,0.0,0.0,0.0,0.0,0.0,0.0,0.0,0.0,0.0,0.0,0.0,0.0,0.0,0.0,0.0,0.0,0.0,0.0,0.0,0.0,0.0,0.0,0.0,0.0,0.0,0.0,0.0,0.0,0.0,0.0,0.0,0.0,0.0,0.0,0.0,0.0,0.0,0.0,0.0,0.0,0.0,0.0,0.0,0.0,0.0,0.0,0.0,0.0,0.0,0.0,0.0,0.0,0.0,0.0,-1.8972,0.0,-1.9479,0.0,-2.0055,-2.0362,0.0,0.0,0.0,0.0,0.0,0.0,0.0,0.0,0.0,0.0,0.0,0.0,0.0,0.0,0.0,0.0,0.0,0.0,0.0,0.0,0.0,0.0,0.0,0.0,0.0,0.0,0.0,0.0,0.0,0.0,0.0,0.0,0.0,0.0,0.0,0.0,0.0,0.0,0.0,0.0,0.0,0.0,0.0,0.0,0.0,0.0,0.0,0.0,0.0,0.0,0.0,0.0,0.0,0.0,0.0,0.0,0.0,0.0,0.0,0.0,0.0,0.0,0.0,0.0,0.0,0.0,0.0,0.0,0.0,0.0,0.0,0.0,0.0,0.0,0.0,0.0,0.0,0.0,0.0,0.0,0.0,0.0,0.0,0.0,0.0,0.0,0.0,0.0,0.0,0.0,0.0,0.0,0.0,0.0,0.0,0.0,0.0,0.0,0.0,0.0,0.0,0.0,0.0,0.0,0.0,0.0,0.0,0.0,-1.9122,-2.0005,-2.0753,-2.1133,-2.1269,-2.1288,-2.1306,0.0,0.0,0.0,0.0,0.0,0.0,0.0,0.0,0.0,0.0,0.0,0.0,0.0,0.0,0.0,0.0,0.0,0.0,0.0,0.0,0.0,0.0,0.0,0.0,0.0,0.0,0.0,0.0,0.0,0.0,0.0,0.0,0.0,0.0,0.0,0.0,0.0,0.0,0.0,0.0,0.0,0.0,0.0,0.0,0.0,0.0,0.0,0.0,0.0,0.0,0.0,0.0,0.0,0.0,0.0,0.0,0.0,0.0,0.0,0.0,0.0,0.0,0.0,0.0,0.0,0.0,0.0,0.0,0.0,0.0,0.0,0.0,0.0,0.0,0.0,0.0,0.0,0.0,0.0,0.0,0.0,0.0,0.0,0.0,0.0,0.0,0.0,0.0,0.0,0.0,0.0,0.0,0.0,0.0,0.0,0.0,0.0,0.0,0.0,0.0,0.0,0.0,0.0,0.0,0.0,0.0,0.0,0.0,0.0,-2.0829,-2.1102,-2.1267,-2.1324,-2.1944,-2.2272,0.0,0.0,0.0,0.0,0.0,0.0,0.0,0.0,0.0,0.0,0.0,0.0,0.0,0.0,0.0,0.0,0.0,0.0,0.0,0.0,0.0,0.0,0.0,0.0,0.0,0.0,0.0,0.0,0.0,0.0,0.0,0.0,0.0,0.0,0.0,0.0,0.0,0.0,0.0,0.0,0.0,0.0,0.0,0.0,0.0,0.0,0.0,0.0,0.0,0.0,0.0,0.0,0.0,0.0,0.0,0.0,0.0,0.0,0.0,0.0,0.0,0.0,0.0,0.0,0.0,0.0,0.0,0.0,0.0,0.0,0.0,0.0,0.0,0.0,0.0,0.0,0.0,0.0,0.0,0.0,0.0,0.0,0.0,0.0,0.0,0.0,0.0,0.0,0.0,0.0,0.0,0.0,0.0,0.0,0.0,0.0,0.0,0.0,0.0,0.0,0.0,0.0,0.0,0.0,0.0,0.0,0.0,0.0,0.0,-2.2204,-2.2226,-2.2229,-2.2249,-2.2817,-2.315,-2.3168,0.0,0.0,0.0,0.0,0.0,0.0,0.0,0.0,0.0,0.0,0.0,0.0,0.0,0.0,0.0,0.0,0.0,0.0,0.0,0.0,0.0,0.0,0.0,0.0,0.0,0.0,0.0,0.0,0.0,0.0,0.0,0.0,0.0,0.0,0.0,0.0,0.0,0.0,0.0,0.0,0.0,0.0,0.0,0.0,0.0,0.0,0.0,0.0,0.0,0.0,0.0,0.0,0.0,0.0,0.0,0.0,0.0,0.0,0.0,0.0,0.0,0.0,0.0,0.0,0.0,0.0,0.0,0.0,0.0,0.0,0.0,0.0,0.0,0.0,0.0,0.0,0.0,0.0,0.0,0.0,0.0,0.0,0.0,0.0,0.0,0.0,0.0,0.0,0.0,0.0,0.0,0.0,0.0,0.0,0.0,0.0,0.0,0.0,0.0,0.0,0.0,0.0,0.0,0.0,0.0,0.0,0.0,0.0,-2.3804,-2.3804,-2.3771,-2.3759,-2.384,-2.3896,0.0,0.0,0.0,0.0,0.0,0.0,0.0,0.0,0.0,0.0,0.0,0.0,0.0,0.0,0.0,0.0,0.0,0.0,0.0,0.0,0.0,0.0,0.0,0.0,0.0,0.0,0.0,0.0,0.0,0.0,0.0,0.0,0.0,0.0,0.0,0.0,0.0,0.0,0.0,0.0,0.0,0.0,0.0,0.0,0.0,0.0,0.0,0.0,0.0,0.0,0.0,0.0,0.0,0.0,0.0,0.0,0.0,0.0,0.0,0.0,0.0,0.0,0.0,0.0,0.0,0.0,0.0,0.0,0.0,0.0,0.0,0.0,0.0,0.0,0.0,0.0,0.0,0.0,0.0,0.0,0.0,0.0,0.0,0.0,0.0,0.0,0.0,0.0,0.0,0.0,0.0,0.0,0.0,0.0,0.0,0.0,0.0,0.0,0.0,0.0,0.0,0.0,0.0,0.0,0.0,0.0,0.0,0.0,0.0,-2.3855,-2.3852,-2.3834,-2.3876,-2.3955,-2.4034,0.0,0.0,0.0,0.0,0.0,0.0,0.0,0.0,0.0,0.0,0.0,0.0,0.0,0.0,0.0,0.0,0.0,0.0,0.0,0.0,0.0,0.0,0.0,0.0,0.0,0.0,0.0,0.0,0.0,0.0,0.0,0.0,0.0,0.0,0.0,0.0,0.0,0.0,0.0,0.0,0.0,0.0,0.0,0.0,0.0,0.0,0.0,0.0,0.0,0.0,0.0,0.0,0.0,0.0,0.0,0.0,0.0,0.0,0.0,0.0,0.0,0.0,0.0,0.0,0.0,0.0,0.0,0.0,0.0,0.0,0.0,0.0,0.0,0.0,0.0,0.0,0.0,0.0,0.0,0.0,0.0,0.0,0.0,0.0,0.0,0.0,0.0,0.0,0.0,0.0,0.0,0.0,0.0,0.0,0.0,0.0,0.0,0.0,0.0,0.0,0.0,0.0,0.0,0.0,0.0,0.0,0.0,0.0,-2.3935,-2.3937,-2.3858,-2.3896,-2.3976,-2.3996,-2.4074,0.0,0.0,0.0,0.0,0.0,0.0,0.0,0.0,0.0,0.0,0.0,0.0,0.0,0.0,0.0,0.0,0.0,0.0,0.0,0.0,0.0,0.0,0.0,0.0,0.0,0.0,0.0,0.0,0.0,0.0,0.0,0.0,0.0,0.0,0.0,0.0,0.0,0.0,0.0,0.0,0.0,0.0,0.0,0.0,0.0,0.0,0.0,0.0,0.0,0.0,0.0,0.0,0.0,0.0,0.0,0.0,0.0,0.0,0.0,0.0,0.0,0.0,0.0,0.0,0.0,0.0,0.0,0.0,0.0,0.0,0.0,0.0,0.0,0.0,0.0,0.0,0.0,0.0,0.0,0.0,0.0,0.0,0.0,0.0,0.0,0.0,0.0,0.0,0.0,0.0,0.0,0.0,0.0,0.0,0.0,0.0,0.0,0.0,0.0,0.0,0.0,0.0,0.0,0.0,0.0,0.0,0.0,0.0,-2.3955,-2.3996,-2.3955,-2.3976,-2.4112,-2.4036,-2.4074,0.0,0.0,0.0,0.0,0.0,0.0,0.0,0.0,0.0,0.0,0.0,0.0,0.0,0.0,0.0,0.0,0.0,0.0,0.0,0.0,0.0,0.0,0.0,0.0,0.0,0.0,0.0,0.0,0.0,0.0,0.0,0.0,0.0,0.0,0.0,0.0,0.0,0.0,0.0,0.0,0.0,0.0,0.0,0.0,0.0,0.0,0.0,0.0,0.0,0.0,0.0,0.0,0.0,0.0,0.0,0.0,0.0,0.0,0.0,0.0,0.0,0.0,0.0,0.0,0.0,0.0,0.0,0.0,0.0,0.0,0.0,0.0,0.0,0.0,0.0,0.0,0.0,0.0,0.0,0.0,0.0,0.0,0.0,0.0,0.0,0.0,0.0,0.0,0.0,0.0,0.0,0.0,0.0,0.0,0.0,0.0,0.0,0.0,0.0,0.0,0.0,0.0,0.0,0.0,0.0,0.0,0.0,0.0,-2.4074,-2.4074,-2.4016,-2.4036,-2.417,-2.417,-2.4209,0.0,0.0,0.0,0.0,0.0,0.0,0.0,0.0,0.0,0.0,0.0,0.0,0.0,0.0,0.0,0.0,0.0,0.0,0.0,0.0,0.0,0.0,0.0,0.0,0.0,0.0,0.0,0.0,0.0,0.0,0.0,0.0,0.0,0.0,0.0,0.0,0.0,0.0,0.0,0.0,0.0,0.0,0.0,0.0,0.0,0.0,0.0,0.0,-2.4637,0.0,0.0,0.0,0.0,0.0,0.0,0.0,0.0,0.0,0.0,0.0,0.0,0.0,0.0,0.0,0.0,0.0,0.0,0.0,0.0,0.0,0.0,0.0,0.0,0.0,0.0,0.0,0.0,0.0,0.0,0.0,0.0,0.0,0.0,0.0,0.0,0.0,0.0,0.0,0.0,0.0,0.0,0.0,0.0,0.0,0.0,0.0,0.0,0.0,0.0,0.0,0.0,0.0,0.0,0.0,0.0,0.0,0.0,0.0,-2.4113,-2.4151,-2.4113,-2.4133,-2.4209,-2.4266,-2.4321,0.0,0.0,0.0,0.0,0.0,0.0,0.0,0.0,0.0,0.0,0.0,0.0,0.0,0.0,0.0,0.0,0.0,0.0,0.0,0.0,0.0,0.0,0.0,0.0,0.0,0.0,0.0,0.0,0.0,0.0,0.0,0.0,0.0,0.0,0.0,0.0,0.0,0.0,0.0,0.0,0.0,0.0,0.0,0.0,0.0,0.0,0.0,0.0,0.0,0.0,0.0,0.0,0.0,0.0,0.0,0.0,0.0,0.0,0.0,0.0,0.0,0.0,0.0,0.0,0.0,0.0,0.0,0.0,0.0,0.0,0.0,0.0,0.0,0.0,0.0,0.0,0.0,0.0,0.0,0.0,0.0,0.0,0.0,0.0,0.0,0.0,0.0,0.0,0.0,0.0,0.0,0.0,0.0,0.0,0.0,0.0,0.0,0.0,0.0,0.0,0.0,0.0,0.0,0.0,0.0,0.0,0.0,-2.4151,-2.4151,-2.4208,-2.419,-2.4209,-2.421,-2.4358,-2.4447,-2.4498,0.0,0.0,0.0,0.0,0.0,0.0,0.0,0.0,0.0,0.0,0.0,0.0,0.0,0.0,0.0,0.0,0.0,0.0,0.0,0.0,0.0,0.0,0.0,0.0,0.0,0.0,0.0,0.0,0.0,0.0,0.0,0.0,0.0,0.0,0.0,0.0,0.0,0.0,-2.5393,-2.5395,0.0,0.0,0.0,0.0,0.0,0.0,0.0,0.0,-2.521,0.0,0.0,0.0,0.0,0.0,0.0,0.0,0.0,0.0,0.0,0.0,0.0,0.0,0.0,0.0,0.0,0.0,0.0,0.0,0.0,0.0,0.0,0.0,0.0,0.0,0.0,0.0,0.0,0.0,0.0,0.0,0.0,0.0,0.0,0.0,0.0,0.0,0.0,0.0,0.0,0.0,0.0,0.0,0.0,0.0,0.0,0.0,0.0,0.0,0.0,0.0,0.0,0.0,0.0,0.0,0.0,-2.4113,-2.417,-2.4208,-2.419,-2.4191,-2.4229,-2.4303,-2.443,-2.4498,-2.4582,0.0,0.0,0.0,0.0,0.0,0.0,0.0,0.0,0.0,0.0,0.0,0.0,0.0,0.0,0.0,0.0,0.0,0.0,0.0,0.0,0.0,0.0,0.0,0.0,0.0,0.0,0.0,0.0,0.0,0.0,0.0,0.0,0.0,0.0,0.0,0.0,0.0,0.0,0.0,-2.5397,-2.5398,0.0,0.0,0.0,0.0,0.0,0.0,0.0,0.0,-2.5203,0.0,0.0,0.0,0.0,0.0,0.0,0.0,0.0,0.0,0.0,0.0,0.0,0.0,0.0,0.0,0.0,0.0,0.0,0.0,0.0,0.0,0.0,0.0,0.0,0.0,0.0,0.0,0.0,0.0,0.0,0.0,0.0,0.0,0.0,0.0,0.0,0.0,0.0,0.0,0.0,0.0,0.0,0.0,0.0,0.0,0.0,0.0,0.0,0.0,0.0,0.0,0.0,0.0,0.0,0.0,-2.4094,-2.417,-2.419,-2.419,-2.4229,-2.4266,-2.4303,-2.4428,-2.4549,0.0,0.0,0.0,0.0,0.0,0.0,0.0,0.0,0.0,0.0,0.0,0.0,0.0,0.0,0.0,0.0,0.0,0.0,0.0,0.0,0.0,0.0,0.0,0.0,0.0,0.0,0.0,0.0,0.0,0.0,0.0,0.0,0.0,0.0,0.0,0.0,0.0,0.0,0.0,0.0,-2.5388,-2.5398,-2.5398,0.0,0.0,0.0,0.0,0.0,0.0,-2.5203,-2.5203,0.0,0.0,0.0,0.0,0.0,0.0,0.0,0.0,0.0,0.0,0.0,0.0,0.0,0.0,0.0,0.0,0.0,0.0,0.0,0.0,0.0,0.0,0.0,0.0,0.0,0.0,0.0,0.0,0.0,0.0,0.0,0.0,0.0,0.0,0.0,0.0,0.0,0.0,0.0,0.0,0.0,0.0,0.0,0.0,0.0,0.0,0.0,0.0,0.0,0.0,0.0,0.0,0.0,0.0,0.0,-2.4074,-2.417,-2.419,-2.419,-2.4266,-2.4303,-2.4303,-2.4445,-2.4547,0.0,0.0,0.0,0.0,0.0,0.0,0.0,0.0,0.0,0.0,0.0,0.0,0.0,0.0,0.0,0.0,0.0,0.0,0.0,0.0,0.0,0.0,0.0,0.0,0.0,0.0,0.0,0.0,0.0,0.0,0.0,0.0,0.0,0.0,0.0,0.0,0.0,0.0,0.0,0.0,0.0,-2.5389,-2.5389,-2.5322,0.0,0.0,0.0,0.0,-2.5209,-2.5206,0.0,0.0,0.0,0.0,0.0,0.0,0.0,0.0,0.0,0.0,0.0,0.0,0.0,0.0,0.0,0.0,0.0,0.0,0.0,0.0,0.0,0.0,0.0,0.0,0.0,0.0,0.0,0.0,0.0,0.0,0.0,0.0,0.0,0.0,0.0,0.0,0.0,0.0,0.0,0.0,0.0,0.0,0.0,0.0,0.0,0.0,0.0,0.0,0.0,0.0,0.0,0.0,0.0,0.0,0.0,0.0,-2.4016,-2.4133,-2.419,-2.419,-2.4266,-2.4303,-2.4303,-2.4426,-2.4547,0.0,0.0,0.0,0.0,0.0,0.0,0.0,0.0,0.0,0.0,0.0,0.0,0.0,0.0,0.0,0.0,0.0,0.0,0.0,0.0,0.0,0.0,0.0,0.0,0.0,0.0,0.0,0.0,0.0,0.0,0.0,0.0,0.0,0.0,0.0,0.0,0.0,0.0,0.0,0.0,0.0,-2.5313,-2.5313,-2.5313,-2.5303,0.0,0.0,0.0,-2.5212,-2.5201,0.0,0.0,0.0,0.0,0.0,0.0,0.0,0.0,0.0,0.0,0.0,0.0,0.0,0.0,0.0,0.0,0.0,0.0,0.0,0.0,0.0,0.0,0.0,0.0,0.0,0.0,0.0,0.0,0.0,0.0,0.0,0.0,0.0,0.0,0.0,0.0,0.0,0.0,0.0,0.0,0.0,0.0,0.0,0.0,0.0,0.0,0.0,0.0,0.0,0.0,0.0,0.0,0.0,0.0,0.0,-2.4016,-2.4074,-2.4151,-2.419,-2.419,-2.4266,-2.4303,-2.4303,-2.4426,-2.4547,0.0,0.0,0.0,0.0,0.0,0.0,0.0,0.0,0.0,0.0,0.0,0.0,0.0,0.0,0.0,0.0,0.0,0.0,0.0,0.0,0.0,0.0,0.0,0.0,0.0,0.0,0.0,0.0,0.0,0.0,0.0,0.0,0.0,0.0,0.0,0.0,0.0,0.0,0.0,0.0,0.0,0.0,-2.5313,-2.5293,0.0,0.0,0.0,-2.5425,-2.5915,0.0,0.0,0.0,0.0,0.0,0.0,0.0,0.0,0.0,0.0,0.0,0.0,0.0,0.0,0.0,0.0,0.0,0.0,0.0,0.0,0.0,0.0,0.0,0.0,0.0,0.0,0.0,0.0,0.0,0.0,0.0,0.0,0.0,0.0,0.0,0.0,0.0,0.0,0.0,0.0,0.0,0.0,0.0,0.0,0.0,0.0,0.0,0.0,0.0,0.0,0.0,0.0,0.0,0.0,0.0,0.0,0.0,-2.4074,-2.4151,-2.417,-2.419,-2.4266,-2.4303,-2.4303,-2.4428,0.0,0.0,0.0,0.0,0.0,0.0,0.0,0.0,0.0,0.0,0.0,0.0,0.0,0.0,0.0,0.0,0.0,0.0,0.0,0.0,0.0,0.0,0.0,0.0,0.0,0.0,0.0,-2.5322,0.0,0.0,0.0,0.0,0.0,0.0,0.0,0.0,0.0,0.0,0.0,0.0,0.0,0.0,-2.5967,-2.5947,-2.5936,-2.5926,0.0,0.0,-2.6096,-2.679,-2.6886,-2.7086,0.0,0.0,0.0,0.0,0.0,0.0,0.0,0.0,0.0,0.0,0.0,0.0,0.0,0.0,0.0,0.0,0.0,0.0,0.0,0.0,0.0,0.0,0.0,0.0,0.0,0.0,0.0,0.0,0.0,0.0,0.0,0.0,0.0,0.0,0.0,0.0,0.0,0.0,0.0,0.0,0.0,0.0,0.0,0.0,0.0,0.0,0.0,0.0,0.0,0.0,0.0,0.0,0.0,0.0,0.0,-2.4016,-2.4074,-2.4151,-2.4208,-2.4266,-2.4303,-2.4303,-2.4447,-2.4498,0.0,0.0,0.0,0.0,0.0,0.0,0.0,0.0,0.0,0.0,0.0,0.0,0.0,0.0,0.0,0.0,0.0,0.0,0.0,0.0,0.0,0.0,0.0,0.0,0.0,0.0,0.0,0.0,0.0,0.0,0.0,0.0,0.0,0.0,0.0,0.0,0.0,0.0,0.0,0.0,0.0,-2.7717,-2.7717,-2.7684,-2.7624,0.0,0.0,-2.7662,-2.77,-2.7772,-2.7832,-2.7909,0.0,0.0,0.0,0.0,0.0,0.0,0.0,0.0,0.0,0.0,0.0,0.0,0.0,0.0,0.0,0.0,0.0,0.0,0.0,0.0,0.0,0.0,0.0,0.0,0.0,0.0,0.0,0.0,0.0,0.0,0.0,0.0,0.0,0.0,0.0,0.0,0.0,0.0,0.0,0.0,0.0,0.0,0.0,0.0,0.0,0.0,0.0,0.0,0.0,0.0,0.0,0.0,0.0,-2.3976,-2.4074,-2.4569,-2.4884,-2.4944,-2.5003,-2.506,-2.5041,-2.4671,-2.4498,0.0,0.0,0.0,0.0,0.0,0.0,0.0,0.0,0.0,0.0,0.0,0.0,0.0,0.0,0.0,0.0,0.0,0.0,0.0,0.0,0.0,0.0,0.0,0.0,0.0,0.0,0.0,0.0,-2.537,-2.561,-2.6149,0.0,0.0,0.0,0.0,0.0,0.0,0.0,0.0,0.0,0.0,-2.789,-2.789,-2.783,0.0,0.0,-2.7846,-2.7988,-2.8522,-2.8618,-2.881,-2.9352,-2.944,0.0,0.0,0.0,0.0,0.0,0.0,0.0,0.0,0.0,0.0,0.0,0.0,0.0,0.0,0.0,0.0,0.0,0.0,0.0,0.0,0.0,0.0,0.0,0.0,0.0,0.0,0.0,0.0,0.0,0.0,0.0,0.0,0.0,0.0,0.0,0.0,0.0,0.0,0.0,0.0,0.0,0.0,0.0,0.0,0.0,0.0,0.0,0.0,0.0,0.0,0.0,0.0,-2.4301,-2.444,-2.5228,-2.567,-2.575,-2.5814,-2.5872,-2.5854,-2.5449,-2.5094,0.0,0.0,0.0,0.0,0.0,0.0,0.0,0.0,0.0,0.0,0.0,0.0,0.0,0.0,0.0,0.0,0.0,0.0,0.0,0.0,0.0,0.0,0.0,0.0,0.0,0.0,0.0,0.0,-2.5977,-2.64,-2.6988,0.0,0.0,0.0,0.0,0.0,0.0,0.0,0.0,0.0,0.0,-2.8651,-2.8659,-2.8599,-2.8568,-2.8629,-2.8595,-2.8775,-2.9356,-2.9471,-2.967,-3.0259,0.0,0.0,0.0,0.0,0.0,0.0,0.0,0.0,0.0,0.0,0.0,0.0,0.0,0.0,0.0,0.0,0.0,0.0,0.0,0.0,0.0,0.0,0.0,0.0,0.0,0.0,0.0,0.0,0.0,0.0,0.0,0.0,0.0,0.0,0.0,0.0,0.0,0.0,0.0,0.0,0.0,0.0,0.0,0.0,0.0,0.0,0.0,0.0,0.0,0.0,0.0,0.0,0.0,0.0,-2.5199,-2.5983,-2.645,-2.6594,-2.6643,-2.6685,-2.6685,-2.6765,-2.647,-2.5708,0.0,0.0,0.0,0.0,0.0,0.0,0.0,0.0,0.0,0.0,0.0,0.0,0.0,0.0,0.0,0.0,0.0,0.0,0.0,0.0,0.0,0.0,0.0,0.0,0.0,0.0,-2.6574,-2.7325,-2.7864,0.0,0.0,0.0,0.0,0.0,0.0,0.0,0.0,0.0,0.0,-3.034,-3.0348,-3.0314,-3.0271,-3.0189,-3.022,-3.0208,-3.0234,-3.0248,-3.026,-3.0292,0.0,0.0,0.0,0.0,0.0,0.0,0.0,0.0,0.0,0.0,0.0,0.0,0.0,0.0,0.0,0.0,0.0,0.0,0.0,0.0,0.0,0.0,0.0,0.0,0.0,0.0,0.0,0.0,-1.8209,0.0,0.0,0.0,0.0,0.0,0.0,0.0,0.0,0.0,0.0,0.0,-2.2027,-2.2287,0.0,0.0,0.0,0.0,0.0,0.0,0.0,0.0,0.0,0.0,0.0,0.0,-2.5328,-2.6002,-2.6786,-2.7273,-2.7402,-2.7509,-2.7551,-2.7532,-2.7117,-2.6786,-2.6581,0.0,0.0,0.0,0.0,0.0,0.0,0.0,0.0,0.0,0.0,0.0,0.0,0.0,0.0,0.0,0.0,0.0,0.0,0.0,0.0,0.0,0.0,0.0,0.0,0.0,-2.7399,0.0,0.0,0.0,0.0,0.0,0.0,0.0,0.0,0.0,0.0,0.0,-3.049,-3.0471,-3.0419,-3.0386,-3.0406,-3.039,-3.0367,0.0,0.0,0.0,0.0,0.0,0.0,0.0,0.0,0.0,0.0,0.0,0.0,0.0,0.0,-3.0428,-3.0499,-3.049,-3.049,-3.0471,0.0,0.0,0.0,0.0,0.0,0.0,0.0,0.0,0.0,0.0,0.0,0.0,0.0,0.0,0.0,0.0,-1.951,0.0,0.0,0.0,0.0,0.0,0.0,0.0,0.0,-2.1511,-2.1768,-2.1969,-2.253,-2.3062,0.0,-2.3673,-2.3728,0.0,0.0,0.0,0.0,0.0,0.0,0.0,0.0,-2.6164,-2.6822,-2.7606,-2.8072,-2.8209,-2.8316,-2.8399,-2.8402,-2.7692,-2.7344,-2.74,-2.7457,-2.7363,0.0,0.0,0.0,0.0,0.0,0.0,0.0,0.0,0.0,0.0,0.0,0.0,0.0,0.0,0.0,0.0,0.0,0.0,0.0,0.0,0.0,0.0,0.0,-2.8353,0.0,0.0,0.0,0.0,0.0,0.0,0.0,0.0,0.0,-3.046,-3.049,-3.0481,-3.0481,-3.046,-3.0428,-3.0398,0.0,0.0,0.0,0.0,0.0,0.0,0.0,-3.12,-3.1175,-3.1181,-3.1168,-3.1207,-3.1251,-3.1179,-3.0895,0.0,0.0,-3.0557,-3.049,-3.049,-3.0471,-3.0479,-3.0458,-3.0406,-3.0394,-3.0394,0.0,0.0,0.0,0.0,0.0,0.0,0.0,0.0,-1.9236,-1.9325,0.0,-1.969,0.0,0.0,0.0,0.0,0.0,0.0,0.0,0.0,-2.1575,-2.1801,-2.2011,-2.3025,-2.3573,-2.3727,-2.4694,-2.522,-2.524,-2.4028,0.0,0.0,0.0,0.0,0.0,0.0,-2.7483,-2.7661,-2.8385,-2.8858,-2.8975,-2.9044,-2.9134,-2.9163,-2.8509,-2.8142,-2.8123,-2.8201,-2.7904,-2.7232,-2.7996,0.0,0.0,0.0,0.0,0.0,0.0,0.0,0.0,0.0,0.0,0.0,0.0,0.0,0.0,0.0,0.0,0.0,0.0,0.0,0.0,-2.853,0.0,0.0,0.0,0.0,0.0,0.0,0.0,0.0,0.0,0.0,-3.0386,-3.046,-3.0491,-3.049,0.0,0.0,0.0,0.0,-3.0436,-3.0456,-3.1179,-3.1705,-3.1661,-3.2321,-3.2845,-3.2793,0.0,0.0,-3.2878,-3.2885,-3.2602,-3.1872,-3.1737,-3.1492,-3.0758,-3.0557,-3.0469,-3.0409,-3.0398,-3.0406,-3.039,-3.039,-3.039,-1.7378,0.0,0.0,0.0,0.0,-1.8798,-1.8912,-1.9101,-1.9228,-1.9339,-1.9413,-1.969,0.0,0.0,0.0,0.0,0.0,0.0,-2.1006,-2.1247,-2.1939,-2.2421,-2.2715,-2.3755,-2.4564,-2.5244,-2.5213,-2.5516,-2.6026,-2.5306,-2.5009,-2.514,0.0,0.0,0.0,0.0,-2.7713,-2.8373,-2.8676,-2.8834,-2.8929,-2.9044,-2.9152,-2.9262,-2.9061,-2.8973,-2.9035,-2.9057,-2.8947,-2.8762,-2.9082,0.0,0.0,0.0,0.0,0.0,0.0,0.0,0.0,0.0,0.0,0.0,0.0,0.0,0.0,0.0,0.0,0.0,0.0,0.0,-2.9434,-2.971,-2.9953,0.0,0.0,0.0,0.0,0.0,0.0,0.0,0.0,0.0,-3.0402,-3.0458,-3.05,0.0,0.0,-3.0479,-3.0469,-3.0945,-3.1333,-3.1333,0.0,0.0,0.0,-3.2737,-3.2897,-3.2883,-3.2864,-3.2883,-3.2897,-3.2904,-3.2814,-3.2583,-3.2564,-3.248,-3.2204,-3.1222,-3.0491,-3.0386,-3.0394,-3.039,-3.041,-3.0398,-3.0398,-1.717,-1.7543,-1.7935,-1.8307,-1.8634,-1.876,-1.8912,-1.9093,-1.9213,-1.9339,-1.9428,-1.9654,-1.9884,-2.0005,-2.0185,0.0,0.0,0.0,-2.1547,-2.2019,-2.2654,-2.3096,-2.3434,-2.4421,-2.5232,-2.5877,-2.5996,-2.633,-2.6824,-2.6616,-2.657,-2.665,0.0,0.0,-2.7277,-2.7651,-2.8123,-2.8676,-2.8761,-2.8834,-2.8905,-2.9021,-2.9152,-2.9218,-2.9262,-2.9323,-2.9365,-2.9388,-2.9392,-2.9394,-2.9511,-2.9607,0.0,0.0,0.0,0.0,0.0,0.0,0.0,0.0,0.0,0.0,0.0,-2.7656,0.0,0.0,0.0,0.0,-2.9155,-2.9608,-3.0104,-3.0157,0.0,0.0,0.0,0.0,0.0,0.0,0.0,-3.0299,-3.0311,-3.0458,-3.0828,-3.0933,-3.0979,-3.1002,-3.0981,-3.1105,-3.1444,0.0,-3.2179,-3.2179,-3.2872,-3.341,-3.341,-3.3705,-3.3942,-3.3928,-3.3928,-3.3928,-3.3928,-3.3936,-3.3814,-3.3506,-3.341,-3.3314,-3.2968,-3.2064,-3.1275,-3.0991,-3.0922,-3.0833,-3.0475,-3.0398,-3.0379,-1.7067,-1.7306,-1.7774,-1.8175,-1.8517,-1.8683,-1.8874,-1.9017,-1.9228,-1.9354,-1.9428,-1.9705,-1.9914,-2.0117,-2.0497,0.0,0.0,-2.1982,-2.2455,-2.3218,-2.3511,-2.3817,-2.4133,-2.5096,-2.5742,-2.6014,-2.6951,-2.7434,-2.7496,-2.7754,-2.7929,-2.7979,-2.746,-2.7215,-2.7353,-2.8106,-2.8587,-2.8694,-2.8761,-2.8852,-2.8905,-2.9021,-2.9089,-2.9108,-2.9218,-2.9283,-2.9302,-2.9365,-2.9388,-2.9392,-2.9453,-2.955,-2.9664,0.0,0.0,0.0,0.0,0.0,0.0,0.0,0.0,0.0,0.0,0.0,0.0,0.0,0.0,0.0,-2.9631,0.0,-3.0087,-3.0102,0.0,0.0,0.0,-3.0117,-3.0171,-3.0185,-3.0251,-3.0394,0.0,0.0,0.0,0.0,-3.1826,-3.1954,-3.1873,-3.2085,-3.291,-3.2986,-3.3006,-3.3006,-3.3757,-3.4295,-3.4314,-3.4891,-3.532,-3.532,-3.5507,-3.5397,-3.5397,-3.5397,-3.5141,-3.4449,-3.4295,-3.4083,-3.3276,-3.316,-3.2852,-3.2083,-3.1852,-3.1545,-3.0794,-3.0571,-3.0513,-1.7503,-1.7726,-1.7661,-1.7855,-1.8268,-1.8581,-1.8827,-1.9031,-1.9265,-1.9376,-1.9413,-1.9792,-2.035,-2.1019,-2.1657,-2.2108,-2.2373,-2.2587,-2.2861,-2.325,-2.4064,-2.4554,-2.4792,-2.5815,-2.6455,-2.6703,-2.7161,-2.7434,-2.7496,-2.7771,-2.7929,-2.7996,-2.7903,-2.7933,-2.8092,-2.8376,-2.8543,-2.8637,-2.8687,-2.8767,-2.8905,-2.8975,-2.9062,-2.9108,-2.9112,-2.9197,-2.9302,-2.9323,-2.9344,-2.9388,-2.9411,-2.9433,-2.9491,-2.9608,0.0,0.0,0.0,0.0,0.0,0.0,0.0,0.0,0.0,-2.9527,-2.9508,0.0,-2.9798,0.0,-2.9969,-3.0087,-3.0022,-3.0053,0.0,0.0,-3.0053,-3.0102,-3.0117,-3.0128,-3.0386,-3.1059,-3.1197,-3.1531,-3.2415,-3.2576,-3.2865,-3.3532,-3.3082,-3.2767,-3.2991,-3.3532,-3.3891,-3.3968,-3.4622,-3.518,-3.518,-3.5353,-3.5507,-3.5507,-3.5507,-3.5507,-3.5507,-3.5507,-3.543,-3.5218,-3.518,-3.5103,-3.4872,-3.4891,-3.4545,-3.3776,-3.3083,-3.2372,-3.1564,-3.1347,-3.1123,-1.7944,-1.8216,-1.8144,-1.8372,-1.8796,-1.8677,-1.8711,-1.8927,-1.9228,-1.9538,-1.9908,-2.058,-2.1194,-2.1695,-2.2176,-2.2614,-2.3039,-2.3205,-2.3618,-2.4179,-2.4733,-2.5183,-2.5466,-2.6129,-2.6589,-2.6825,-2.7103,-2.7324,-2.7465,-2.7665,-2.7842,-2.7957,-2.8014,-2.8154,-2.8318,-2.8406,-2.851,-2.8587,-2.8687,-2.881,-2.8905,-2.8952,-2.9017,-2.9062,-2.9085,-2.913,-2.9197,-2.924,-2.9283,-2.9365,-2.937,-2.9353,-2.9412,-2.955,-2.9664,0.0,0.0,0.0,0.0,0.0,0.0,0.0,0.0,0.0,0.0,0.0,-3.0038,0.0,-3.0007,0.0,-2.9956,-2.9991,-3.0007,-2.9956,-2.9988,-3.0155,-3.057,-3.0658,-3.0975,-3.1821,-3.1966,-3.2335,-3.3216,-3.336,-3.3714,-3.4614,-3.4339,-3.4077,-3.4135,-3.4514,-3.4776,-3.4795,-3.518,-3.5507,-3.5507,-3.5507,-3.5507,-3.5507,-3.5507,-3.5507,-3.5507,-3.5507,-3.5507,-3.5507,-3.5507,-3.5507,-3.5507,-3.5507,-3.5315,-3.4891,-3.4391,-3.3641,-3.2506,-3.2212,-3.1994,-1.8387,-1.8695,-1.8791,-1.912,-1.9445,-1.892,-1.8807,-1.9027,-1.94,-1.9935,-2.0665,-2.1657,-2.2154,-2.224,-2.2509,-2.3049,-2.3741,-2.3834,-2.4397,-2.5262,-2.5339,-2.5605,-2.5954,-2.6189,-2.6435,-2.6657,-2.6973,-2.7198,-2.7373,-2.7509,-2.7694,-2.7888,-2.7957,-2.8071,-2.82,-2.83,-2.8432,-2.8587,-2.8712,-2.8791,-2.8881,-2.897,-2.8994,-2.8975,-2.9062,-2.9067,-2.9089,-2.9156,-2.92,-2.9262,-2.9307,-2.9312,-2.9372,-2.9491,-2.9589,0.0,-2.9756,0.0,0.0,0.0,0.0,0.0,0.0,0.0,0.0,-2.9991,-2.9956,-2.9905,-2.9907,-2.9926,-3.004,-3.0075,-3.0097,-3.021,-3.021,-3.0566,-3.132,-3.145,-3.1787,-3.267,-3.2746,-3.3099,-3.3999,-3.4148,-3.4485,-3.5172,-3.5283,-3.5235,-3.5418,-3.5424,-3.543,-3.5507,-3.5507,-3.5507,-3.5507,-3.5507,-3.5488,-3.5488,-3.5488,-3.5488,-3.5488,-3.5488,-3.5507,-3.5507,-3.5507,-3.5507,-3.5507,-3.5507,-3.5507,-3.5449,-3.5391,-3.4853,-3.3493,-3.3044,-3.2999,-1.8893,-1.9195,-1.8887,-1.9015,-1.9499,-1.9533,-1.9781,-2.0216,-2.0643,-2.1104,-2.1609,-2.2335,-2.2728,-2.2974,-2.3565,-2.4091,-2.4402,-2.4443,-2.4705,-2.5146,-2.5301,-2.5508,-2.5675,-2.6059,-2.6293,-2.6453,-2.6859,-2.7087,-2.7261,-2.7496,-2.763,-2.7748,-2.7871,-2.8032,0.0,0.0,0.0,0.0,-2.8687,-2.8743,-2.881,-2.8863,-2.8929,-2.8994,-2.9017,0.0,-2.9089,-2.9112,-2.9134,-2.92,-2.9222,0.0,0.0,0.0,0.0,0.0,0.0,0.0,0.0,0.0,0.0,0.0,-2.9929,-2.9926,-2.9905,-2.9905,-2.9905,-2.9907,-2.9907,-3.0191,-3.089,-3.0947,-3.1231,-3.1838,-3.1914,-3.2008,-3.2179,-3.225,-3.2607,-3.3443,-3.3572,-3.3927,-3.4759,-3.4964,-3.5051,-3.527,-3.53,-3.535,-3.5407,-3.5474,-3.5507,-3.5507,-3.5507,-3.5507,-3.5507,-3.5507,-3.5488,-3.5495,-3.5501,-3.5501,-3.5495,-3.5501,-3.5507,-3.5507,-3.5507,-3.5507,-3.5507,-3.5507,-3.5507,-3.5507,-3.5507,-3.5166,-3.4101,-3.3882,-3.3667,-1.9308,0.0,-1.949,-1.9651,0.0,-2.0388,-2.0758,-2.1111,-2.1026,-2.1439,-2.2188,-2.2957,-2.3368,-2.3466,-2.3956,-2.4276,-2.4467,-2.4549,-2.4751,-2.5084,-2.5278,-2.5432,-2.5616,-2.5934,-2.617,-2.6312,-2.6691,-2.6957,-2.712,-2.7293,-2.7478,-2.7659,-2.7766,-2.7882,-2.806,-2.8126,-2.8318,-2.8562,-2.8612,-2.8687,-2.8761,-2.881,-2.8858,-2.89,0.0,0.0,0.0,0.0,0.0,0.0,0.0,0.0,0.0,0.0,0.0,-2.9394,-2.955,-2.9664,-2.9682,-2.9736,-2.9771,-2.9861,-3.0255,-3.0309,-2.9926,-3.0267,-3.0532,-3.0549,-3.0873,-3.1326,-3.1743,-3.18,-3.1951,-3.2368,-3.2406,-3.2539,-3.2956,-3.3069,-3.3446,-3.4204,-3.4374,-3.4599,-3.5089,-3.5181,-3.5212,-3.5245,-3.5273,-3.532,-3.535,-3.5412,-3.546,-3.5493,-3.5507,-3.5507,-3.5507,-3.5507,-3.5488,-3.5482,-3.5501,-3.5488,-3.5495,-3.5501,-3.5507,-3.5507,-3.5507,-3.5507,-3.5507,-3.5507,-3.5507,-3.5493,-3.5479,-3.5311,-3.4789,-3.4697,-3.4572,-1.946,-1.9759,-2.0016,-2.0271,-2.056,-2.0983,-2.1423,-2.1819,0.0,0.0,0.0,-2.3471,-2.3782,-2.3855,-2.4024,-2.4208,-2.4302,-2.4523,-2.471,-2.4966,-2.5162,-2.5371,-2.5562,-2.5807,-2.599,-2.6168,-2.6486,-2.6742,-2.6942,-2.7085,-2.7293,-2.7509,-2.763,-2.7748,-2.7888,-2.8088,-2.8264,-2.8414,-2.851,-2.8612,-2.8669,-2.8737,-2.8785,-2.8804,-2.8858,-2.8881,-2.8881,-2.8929,-2.8994,-2.9044,-2.9044,-2.9089,-2.9156,-2.9206,-2.9251,-2.9291,-2.9433,-2.9569,-2.9626,-2.9664,-2.9775,-2.9998,-3.0825,-3.099,-3.0191,-3.0911,-3.1421,-3.1402,-3.2027,-3.2463,-3.2615,-3.2634,-3.2691,-3.2823,-3.2861,-3.3145,-3.379,-3.3903,-3.4187,-3.4831,-3.4945,-3.5001,-3.5056,-3.5129,-3.5181,-3.5196,-3.5245,-3.5293,-3.532,-3.5364,-3.5412,-3.546,-3.5493,-3.5507,-3.5507,-3.5507,-3.5488,-3.5501,-3.5488,-3.5507,-3.5507,-3.5507,-3.5493,-3.5474,-3.5493,-3.5507,-3.5507,-3.5507,-3.5493,-3.5493,-3.5427,-3.5383,-3.5315,-3.5281,-3.5232,-1.9198,-1.946,-1.9759,-2.0055,-2.0459,-2.0835,-2.1471,-2.2156,-2.2566,-2.301,-2.3375,-2.3522,-2.3696,-2.3797,-2.394,-2.4151,-2.4317,-2.4508,-2.467,0.0,-2.5029,-2.5201,-2.5371,-2.5578,-2.5787,-2.6026,-2.626,-2.6487,-2.6725,-2.6989,-2.7149,-2.7276,-2.7526,-2.7707,-2.7888,-2.8003,-2.8071,-2.8154,-2.8345,-2.8484,-2.8612,-2.8612,-2.8687,-2.8804,-2.881,-2.881,-2.881,-2.8828,-2.8834,-2.8834,-2.8905,-2.8952,-2.904,-2.9089,-2.9156,-2.9222,-2.9291,-2.9353,-2.9355,-2.9531,-2.9964,-3.0791,-3.1638,-3.1807,-3.1047,-3.1726,-3.2236,-3.2236,-3.2387,-3.271,-3.3392,-3.3524,-3.3771,-3.4377,-3.4529,-3.4605,-3.468,-3.468,-3.4737,-3.4908,-3.4927,-3.4945,-3.5001,-3.502,-3.5075,-3.5164,-3.5198,-3.5231,-3.5293,-3.5354,-3.5398,-3.5432,-3.5479,-3.5493,-3.5474,-3.5493,-3.5488,-3.5489,-3.5501,-3.5474,-3.5474,-3.5474,-3.5479,-3.5427,-3.546,-3.5493,-3.5493,-3.5507,-3.5474,-3.5427,-3.5412,-3.5383,-3.5308,-3.5258,-3.5209,-1.8934,-1.9198,-1.9552,-1.985,-2.0105,-2.0723,-2.1375,-2.1983,-2.2495,-2.2963,-2.3275,-2.3436,-2.3625,-2.3696,-2.3925,-2.4067,-2.4151,-2.4467,-2.463,-2.4726,-2.4989,-2.5185,-2.5294,-2.5502,-2.5675,-2.5848,-2.6115,-2.6312,-2.6487,-2.6758,-2.6973,-2.7087,-2.7373,-2.7557,-2.7724,-2.7806,-2.7882,-2.7986,-2.8182,-2.8327,-2.8432,-2.8458,-2.8554,-2.8637,-2.8662,-2.8712,-2.8761,-2.8785,-2.8804,-2.8804,-2.8852,-2.8858,-2.89,-2.8975,-2.9062,-2.9108,-2.9181,-2.9249,-2.9293,-2.9863,-3.058,-3.154,-3.2389,-3.2748,-3.2411,-3.2808,-3.3052,-3.3126,-3.3486,-3.3903,-3.4301,-3.4358,-3.4491,-3.4851,-3.4908,-3.4908,-3.4908,-3.4908,-3.4908,-3.4908,-3.4908,-3.4908,-3.4945,-3.4983,-3.5039,-3.5111,-3.5166,-3.5198,-3.5245,-3.5308,-3.5335,-3.535,-3.5364,-3.5379,-3.5398,-3.5398,-3.5393,-3.5388,-3.5393,-3.5379,-3.5398,-3.5379,-3.5379,-3.5345,-3.5398,-3.5427,-3.5446,-3.5427,-3.5427,-3.5412,-3.5369,-3.5324,-3.5242,-3.516,-3.5108,-1.8667,-1.8934,-1.9291,-1.9604,-1.9965,-2.0623,-2.1215,-2.1759,-2.2091,-2.254,-2.3008,-2.3334,-2.3494,-2.3625,-2.3839,-2.3982,-2.4024,-2.4343,-2.4549,-2.463,-2.491,-2.5107,-2.524,-2.5464,-2.56,-2.5717,-2.6007,-2.6187,-2.6295,-2.6538,-2.6759,-2.7007,-2.7215,-2.7404,-2.7557,-2.76,-2.7689,-2.783,-2.8014,-2.8136,-2.8273,-2.8345,-2.838,-2.8466,-2.8536,-2.8587,-2.8644,-2.8712,-2.8737,-2.8761,-2.8761,-2.8785,-2.8785,-2.89,-2.897,-2.8994,-2.9273,-2.9551,-2.9906,-3.0716,-3.1547,-3.2302,-3.313,-3.3663,-3.3744,-3.3806,-3.3885,-3.4018,-3.4472,-3.487,-3.487,-3.4889,-3.4908,-3.4908,-3.4908,-3.4908,-3.4908,-3.4908,-3.4908,-3.4908,-3.4908,-3.4908,-3.4908,-3.4945,-3.4983,-3.5039,-3.5129,-3.5198,-3.5212,-3.5245,-3.5273,-3.527,-3.53,-3.5315,-3.5315,-3.5315,-3.5315,-3.5315,-3.5315,-3.5315,-3.53,-3.53,-3.53,-3.53,-3.535,-3.5364,-3.5379,-3.5379,-3.5364,-3.535,-3.5358,-3.5277,-3.5212,-3.5072,-3.502,-1.8356,-1.8667,-1.8934,-1.9512,-2.0169,-2.0523,-2.097,-2.141,-2.1746,-2.2137,-2.2646,-2.3083,-2.3378,-2.3553,-2.3711,-2.3882,-2.4024,-2.4234,-2.4426,-2.4574,-2.4766,-2.4926,-2.5107,-2.5294,-2.541,-2.56,-2.5824,-2.6007,-2.6203,-2.6365,-2.659,-2.6975,-2.707,-2.723,-2.7404,-2.7434,-2.7496,-2.7617,-2.7719,-2.7893,-2.8182,-2.8209,-2.8291,-2.8424,-2.8406,-2.8458,-2.8518,-2.8536,-2.8543,-2.8612,-2.8669,-2.8712,-2.8737,-2.8804,-2.8834,-2.8923,-2.9654,-3.053,-3.1477,-3.2321,-3.2836,-3.3112,-3.3852,-3.437,-3.4451,-3.4534,-3.4615,-3.4656,-3.4811,-3.4907,-3.4907,-3.4888,-3.4889,-3.4889,-3.4908,-3.4908,-3.4908,-3.4908,-3.4908,-3.4908,-3.4908,-3.4908,-3.4908,-3.4927,-3.4964,-3.5001,-3.5092,-3.5181,-3.5198,-3.5212,-3.519,-3.5242,-3.5235,-3.5281,-3.53,-3.5315,-3.53,-3.53,-3.53,-3.5304,-3.5289,-3.5304,-3.53,-3.5289,-3.5304,-3.5335,-3.5335,-3.5315,-3.532,-3.5304,-3.5293,-3.5245,-3.5145,-3.5057,-3.4983,-1.8139,-1.8614,-1.8786,-1.9356,-2.008,-2.0372,-2.0723,-2.118,-2.1471,-2.1807,-2.2263,-2.2692,-2.3098,-2.3509,-2.3711,-2.3882,-2.4024,-2.4234,-2.4369,-2.4589,-2.4726,-2.4926,-2.5091,-2.5146,-2.5262,-2.547,-2.5637,-2.5824,-2.6043,-2.6241,-2.6487,-2.6792,-2.6842,-2.6989,-2.7181,-2.7261,-2.7355,-2.7448,-2.7569,-2.7701,-2.7893,-2.8025,-2.8154,-2.8264,-2.8291,-2.8327,-2.8432,-2.8432,-2.8484,-2.8536,-2.8569,-2.8594,-2.8637,-2.8712,-2.8743,-2.8822,-2.9679,-3.0827,-3.2195,-3.2656,-3.3165,-3.3748,-3.4106,-3.4363,-3.4473,-3.4539,-3.4602,-3.4663,-3.4747,-3.4848,-3.4848,-3.4849,-3.4831,-3.4849,-3.4869,-3.4907,-3.4907,-3.4908,-3.4908,-3.4908,-3.4908,-3.4908,-3.4908,-3.4908,-3.4927,-3.4964,-3.5057,-3.5092,-3.5164,-3.5179,-3.5176,-3.5209,-3.5223,-3.5239,-3.5239,-3.5239,-3.5239,-3.5239,-3.5258,-3.5242,-3.5242,-3.5223,-3.5239,-3.5261,-3.5273,-3.5308,-3.5308,-3.5308,-3.5308,-3.5277,-3.5212,-3.5162,-3.511,-3.5002,-3.4946,-1.7975,-1.8452,-1.8786,-1.9316,-1.9875,-2.022,-2.0573,-2.0934,-2.1215,-2.1554,-2.1949,-2.237,-2.2828,-2.3275,-2.3566,-2.3797,-2.3982,-2.4151,-2.4359,-2.4564,-2.4686,-2.4806,-2.4989,-2.5052,-2.5146,-2.5355,-2.5524,-2.5712,-2.5881,-2.6134,-2.6382,-2.6538,-2.664,-2.6775,-2.6956,-2.707,-2.7198,-2.7341,-2.7448,-2.7539,-2.7642,-2.7824,-2.7986,-2.8126,-2.8154,-2.8191,-2.8327,-2.8345,-2.8398,-2.8484,-2.851,-2.8518,-2.8587,-2.8637,-2.8869,-2.9355,-3.0045,-3.1187,-3.2834,-3.3004,-3.337,-3.4031,-3.4148,-3.4221,-3.4316,-3.4409,-3.4431,-3.4476,-3.4623,-3.4727,-3.4768,-3.4788,-3.4788,-3.4788,-3.4868,-3.4906,-3.4926,-3.4927,-3.4908,-3.4908,-3.4908,-3.4908,-3.4908,-3.4908,-3.4927,-3.4945,-3.5001,-3.502,-3.5129,-3.5164,-3.5198,-3.5176,-3.5174,-3.519,-3.519,-3.519,-3.519,-3.519,-3.519,-3.519,-3.519,-3.519,-3.519,-3.5226,-3.5261,-3.5277,-3.5277,-3.5277,-3.528,-3.5264,-3.5198,-3.5092,-3.5075,-3.4984,-3.4926,-1.7744,-1.8193,-1.8869,-1.9356,-1.9668,-2.0029,-2.0372,-2.0673,-2.1033,-2.1375,-2.165,-2.2184,-2.254,-2.2785,-2.3275,-2.3683,-2.3997,-2.4024,-2.4193,-2.4498,-2.4539,-2.462,-2.4822,-2.4926,-2.5045,-2.5146,-2.5394,-2.5675,-2.5897,-2.6096,-2.622,-2.6222,-2.6468,-2.6623,-2.6742,-2.6859,-2.704,-2.7149,-2.7213,-2.7324,-2.7478,-2.7587,-2.7736,-2.7986,-2.8014,-2.8071,-2.8182,-2.8209,-2.8264,-2.8398,-2.8458,-2.8492,-2.851,-2.8587,-2.9254,-3.0638,-3.1045,-3.1879,-3.3358,-3.366,-3.3813,-3.3979,-3.4074,-3.4124,-3.4197,-3.4269,-3.434,-3.4404,-3.4473,-3.458,-3.4666,-3.4747,-3.4768,-3.4788,-3.4829,-3.4906,-3.4887,-3.4888,-3.4908,-3.4908,-3.4908,-3.4908,-3.4908,-3.4908,-3.4908,-3.4927,-3.4945,-3.5001,-3.5039,-3.511,-3.5164,-3.5181,-3.5196,-3.519,-3.519,-3.519,-3.519,-3.519,-3.519,-3.519,-3.519,-3.519,-3.519,-3.519,-3.5209,-3.5209,-3.5209,-3.5229,-3.5212,-3.5179,-3.5164,-3.5111,-3.502,-3.4946,-3.4887,-1.7711,-1.8356,-1.8827,-1.9303,-1.9604,-1.9862,-2.0182,-2.0549,-2.0809,-2.1118,-2.1375,-2.1793,-2.2217,-2.2555,-2.2844,-2.326,-2.3739,-2.3925,-2.4151,-2.4359,-2.4457,-2.462,-2.4782,-2.4862,-2.4966,-2.5107,-2.5224,-2.5432,-2.5712,-2.5897,-2.6096,-2.622,-2.6291,-2.6399,-2.6555,-2.6725,-2.6808,-2.6908,-2.7053,-2.7181,-2.7276,-2.7434,-2.7557,-2.7754,-2.7871,-2.7957,-2.8071,-2.8116,-2.82,-2.8264,-2.8327,-2.8432,-2.8492,-2.8562,-2.9083,-3.015,-3.0854,-3.1699,-3.2775,-3.3478,-3.386,-3.3921,-3.3947,-3.3998,-3.4074,-3.4173,-3.4264,-3.4311,-3.4363,-3.4473,-3.4517,-3.4623,-3.4666,-3.4706,-3.4727,-3.4768,-3.4788,-3.4849,-3.4926,-3.4907,-3.4908,-3.4908,-3.4908,-3.4908,-3.4908,-3.4908,-3.4927,-3.4945,-3.5001,-3.5057,-3.5092,-3.5147,-3.5181,-3.5179,-3.5179,-3.5193,-3.519,-3.519,-3.519,-3.519,-3.519,-3.519,-3.519,-3.519,-3.519,-3.519,-3.5209,-3.5193,-3.5196,-3.5181,-3.5129,-3.5057,-3.4945,-3.4888,-3.4829,-1.8125,-1.8777,-1.8998,-1.9305,-1.9666,-1.977,-2.0029,-2.0347,-2.0623,-2.0871,-2.1166,-2.152,-2.1855,-2.2217,-2.2495,-2.283,-2.3334,-2.3696,-2.4009,-2.4276,-2.4374,-2.4539,-2.4686,-2.4742,-2.4846,-2.5029,-2.5091,-2.5262,-2.5524,-2.5712,-2.5897,-2.6026,-2.6132,-2.6291,-2.6415,-2.6555,-2.6657,-2.6725,-2.6908,-2.7021,-2.7135,-2.7261,-2.7355,-2.7478,-2.7677,-2.7842,-2.7957,-2.8014,-2.8071,-2.8154,-2.8219,-2.8327,-2.8484,-2.8562,-2.8931,-2.9779,-3.0646,-3.1527,-3.2374,-3.3241,-3.3807,-3.386,-3.3868,-3.3895,-3.3991,-3.4067,-3.4124,-3.4154,-3.4269,-3.434,-3.4386,-3.4454,-3.4539,-3.4561,-3.4645,-3.4687,-3.4706,-3.4788,-3.4829,-3.4849,-3.4869,-3.4888,-3.4908,-3.4927,-3.4908,-3.4908,-3.4908,-3.4927,-3.4946,-3.4983,-3.5001,-3.5057,-3.5092,-3.5147,-3.5164,-3.5179,-3.5193,-3.5193,-3.519,-3.519,-3.519,-3.519,-3.519,-3.519,-3.5174,-3.5174,-3.5193,-3.5193,-3.5179,-3.5147,-3.5111,-3.5001,-3.4927,-3.4849,-3.4788,-1.9015,-1.9458,-1.9389,-1.9527,-1.9799,-1.9797,-1.99,-2.0156,-2.0435,-2.0723,-2.097,-2.1277,-2.1554,-2.1855,-2.2217,-2.2495,-2.2799,-2.329,-2.3739,-2.4124,-2.4166,-2.4359,-2.4589,-2.4589,-2.4751,-2.5005,-2.5068,-2.5185,-2.5378,-2.5508,-2.5659,-2.5754,-2.6007,-2.6168,-2.622,-2.638,-2.6572,-2.664,-2.6691,-2.6808,-2.6975,-2.7103,-2.7181,-2.7244,-2.7448,-2.7677,-2.7888,-2.7888,-2.7975,-2.8099,-2.8154,-2.8291,-2.8458,-2.8492,-2.8887,-2.9644,-3.0539,-3.1437,-3.2274,-3.3122,-3.3625,-3.3807,-3.3807,-3.3815,-3.3895,-3.3921,-3.3972,-3.4074,-3.4173,-3.4221,-3.4293,-3.4363,-3.445,-3.4495,-3.4623,-3.4666,-3.4706,-3.4768,-3.4788,-3.4809,-3.4868,-3.4868,-3.4888,-3.4888,-3.4908,-3.4889,-3.4889,-3.4888,-3.4888,-3.4946,-3.4964,-3.4945,-3.5001,-3.5075,-3.5129,-3.5147,-3.5179,-3.5193,-3.5174,-3.519,-3.519,-3.519,-3.5193,-3.5193,-3.5176,-3.516,-3.5143,-3.5162,-3.5127,-3.5075,-3.5039,-3.4964,-3.4907,-3.4809,-3.4749,-1.8736,-1.9276,-1.9423,-1.983,-2.0217,-2.0043,-2.0093,-2.0416,-2.0463,-2.0573,-2.0772,-2.1131,-2.1375,-2.1554,-2.1841,-2.2184,-2.2495,-2.2844,-2.3275,-2.3739,-2.3982,-2.4193,-2.4385,-2.4549,-2.4766,-2.4966,-2.5068,-2.513,-2.5224,-2.5394,-2.5508,-2.5637,-2.5791,-2.5937,-2.6063,-2.6239,-2.6329,-2.6435,-2.6521,-2.6623,-2.6775,-2.6825,-2.6956,-2.7181,-2.7293,-2.7448,-2.7677,-2.783,-2.7946,-2.8042,-2.8099,-2.8219,-2.838,-2.8466,-2.8644,-2.9011,-2.9795,-3.062,-3.1455,-3.2346,-3.314,-3.3561,-3.3762,-3.3807,-3.3815,-3.3868,-3.3921,-3.3972,-3.4074,-3.4148,-3.4173,-3.4269,-3.4381,-3.4495,-3.4558,-3.4602,-3.4623,-3.4687,-3.4747,-3.4788,-3.4827,-3.4809,-3.4829,-3.4849,-3.483,-3.483,-3.483,-3.4829,-3.4829,-3.4849,-3.4868,-3.483,-3.4908,-3.4983,-3.502,-3.5057,-3.511,-3.5143,-3.516,-3.5193,-3.5193,-3.5193,-3.5176,-3.516,-3.5162,-3.5145,-3.5127,-3.5092,-3.5057,-3.5001,-3.4964,-3.4908,-3.4829,-3.4788,-3.4708,-1.8899,-1.9375,-1.9587,-1.9989,-2.0405,-2.0253,-2.0238,-2.0424,-2.055,-2.0565,-2.0662,-2.0983,-2.118,-2.1375,-2.1616,-2.1935,-2.2263,-2.2449,-2.2799,-2.3334,-2.3696,-2.3967,-2.4177,-2.4467,-2.4726,-2.4926,-2.5029,-2.5091,-2.5185,-2.5301,-2.5448,-2.56,-2.5659,-2.5717,-2.5901,-2.6026,-2.6151,-2.6293,-2.6364,-2.6503,-2.6623,-2.6657,-2.6791,-2.6971,-2.7117,-2.7244,-2.7448,-2.7617,-2.7813,-2.7957,-2.8042,-2.8182,-2.8371,-2.8432,-2.8492,-2.8706,-2.9362,-3.0166,-3.0701,-3.1516,-3.2354,-3.3031,-3.3241,-3.346,-3.367,-3.3807,-3.386,-3.3895,-3.3972,-3.4049,-3.4099,-3.4173,-3.4288,-3.4427,-3.445,-3.4473,-3.4517,-3.4583,-3.4645,-3.4666,-3.4708,-3.4728,-3.4768,-3.4788,-3.4788,-3.4788,-3.4788,-3.4788,-3.4788,-3.4788,-3.4788,-3.4788,-3.481,-3.4869,-3.4908,-3.4964,-3.5039,-3.5092,-3.5145,-3.5179,-3.5196,-3.5196,-3.5179,-3.5145,-3.5127,-3.5056,-3.5038,-3.502,-3.4983,-3.4946,-3.4889,-3.483,-3.4788,-3.4747,-3.4687,-1.9386,-1.9803,-1.9827,-2.0076,-2.045,-2.0488,-2.0459,-2.0342,-2.0586,-2.0668,-2.0651,-2.0871,-2.1082,-2.1229,-2.1471,-2.1759,-2.1996,-2.217,-2.2449,-2.2889,-2.3334,-2.3696,-2.4051,-2.4385,-2.4645,-2.4822,-2.495,-2.5123,-2.524,-2.5294,-2.541,-2.5524,-2.5562,-2.5621,-2.5754,-2.5901,-2.6026,-2.6151,-2.6241,-2.6347,-2.6468,-2.6572,-2.6691,-2.6725,-2.6923,-2.7103,-2.723,-2.7417,-2.7617,-2.7888,-2.8042,-2.8154,-2.8291,-2.8371,-2.8432,-2.8528,-2.9344,-2.974,-3.0057,-3.0698,-3.1472,-3.2219,-3.2502,-3.2721,-3.3387,-3.3607,-3.3753,-3.3842,-3.3895,-3.3947,-3.403,-3.4099,-3.4173,-3.4288,-3.4381,-3.4427,-3.4409,-3.4473,-3.4498,-3.4517,-3.4602,-3.4666,-3.4647,-3.4727,-3.4747,-3.4749,-3.4768,-3.4747,-3.4727,-3.4708,-3.4728,-3.4749,-3.4749,-3.479,-3.483,-3.4907,-3.4983,-3.5002,-3.5075,-3.5127,-3.5145,-3.5145,-3.5145,-3.511,-3.5057,-3.5001,-3.4964,-3.4946,-3.4908,-3.4849,-3.481,-3.4768,-3.4747,-3.4687,-3.4645,-1.8977,-1.9486,-1.9836,-2.0306,-2.0694,-2.0729,-2.0687,-2.0641,-2.0623,-2.0534,-2.0424,-2.0723,-2.0921,-2.1095,-2.1326,-2.1554,-2.1746,-2.1949,-2.2137,-2.2402,-2.2844,-2.3421,-2.3925,-2.4276,-2.4482,-2.4645,-2.4806,-2.4966,-2.5146,-2.524,-2.5317,-2.5388,-2.5524,-2.56,-2.5637,-2.5717,-2.5828,-2.597,-2.6063,-2.6134,-2.6258,-2.6382,-2.6486,-2.664,-2.6742,-2.6908,-2.7055,-2.7279,-2.7587,-2.7957,-2.8042,-2.8164,-2.8273,-2.8327,-2.838,-2.8539,-2.8717,-2.9166,-2.9707,-3.0057,-3.061,-3.1401,-3.1919,-3.2502,-3.2703,-3.3286,-3.3597,-3.3753,-3.3807,-3.3842,-3.3947,-3.3998,-3.4092,-3.4148,-3.4269,-3.4363,-3.4386,-3.4427,-3.4409,-3.445,-3.4473,-3.4495,-3.4517,-3.4539,-3.4583,-3.4583,-3.4604,-3.4666,-3.4645,-3.4645,-3.4666,-3.4666,-3.4687,-3.4727,-3.4768,-3.4849,-3.4907,-3.4927,-3.4983,-3.5057,-3.5075,-3.5075,-3.5056,-3.502,-3.4983,-3.4946,-3.4907,-3.4868,-3.4829,-3.4769,-3.4728,-3.4708,-3.4666,-3.4626,-3.4561,-1.8596,-1.9121,-1.9649,-2.0183,-2.0688,-2.0848,-2.0805,-2.0634,-2.0723,-2.0511,-2.0271,-2.0523,-2.0822,-2.1046,-2.1229,-2.141,-2.1602,-2.1807,-2.1996,-2.2278,-2.2709,-2.3246,-2.3739,-2.4009,-2.4219,-2.4467,-2.463,-2.4831,-2.5045,-2.5123,-2.5217,-2.5294,-2.5371,-2.5448,-2.5524,-2.5637,-2.5717,-2.5791,-2.5901,-2.6043,-2.6115,-2.6222,-2.6312,-2.6468,-2.6555,-2.6725,-2.6925,-2.7184,-2.7478,-2.7777,-2.7893,-2.8007,-2.8191,-2.8264,-2.83,-2.8406,-2.8414,-2.8719,-2.9096,-2.9274,-2.9707,-3.0404,-3.1074,-3.1455,-3.1901,-3.2575,-3.3095,-3.314,-3.3506,-3.3743,-3.3842,-3.3947,-3.3998,-3.4074,-3.4173,-3.4245,-3.4316,-3.4358,-3.4358,-3.4363,-3.4363,-3.4386,-3.4386,-3.445,-3.445,-3.4473,-3.4539,-3.4539,-3.4561,-3.458,-3.4602,-3.4623,-3.4623,-3.4666,-3.4706,-3.4768,-3.4829,-3.4849,-3.4907,-3.4983,-3.5001,-3.5001,-3.5002,-3.4983,-3.4926,-3.4906,-3.4848,-3.4788,-3.4747,-3.4708,-3.4666,-3.4645,-3.4583,-3.4561,-3.4495,-1.8279,-1.8808,-1.9341,-1.9878,-2.041,-2.088,-2.0796,-2.0416,-2.071,-2.0556,-2.0155,-2.0409,-2.0723,-2.0934,-2.1144,-2.1313,-2.1568,-2.1712,-2.1949,-2.2231,-2.2632,-2.3068,-2.3465,-2.3739,-2.3952,-2.4219,-2.4467,-2.467,-2.4886,-2.4966,-2.51,-2.5217,-2.5162,-2.5224,-2.5355,-2.5524,-2.56,-2.5663,-2.5791,-2.5917,-2.599,-2.6079,-2.6222,-2.6277,-2.6434,-2.6572,-2.6791,-2.7021,-2.7276,-2.7624,-2.7654,-2.7818,-2.8053,-2.8126,-2.8209,-2.8273,-2.8327,-2.8416,-2.846,-2.8629,-2.8817,-2.9511,-2.9763,-3.0069,-3.0921,-3.1674,-3.2265,-3.2529,-3.3113,-3.346,-3.3788,-3.3895,-3.3972,-3.3998,-3.3998,-3.4074,-3.4148,-3.4245,-3.4269,-3.4293,-3.434,-3.4363,-3.4386,-3.4404,-3.4404,-3.4386,-3.445,-3.4473,-3.4495,-3.4558,-3.4561,-3.4561,-3.4583,-3.4623,-3.4645,-3.4685,-3.4727,-3.4749,-3.4829,-3.4907,-3.4927,-3.4946,-3.4946,-3.4926,-3.4906,-3.4827,-3.4747,-3.4687,-3.4666,-3.4604,-3.4583,-3.4539,-3.4536,-3.4473,-3.4427,-1.792,-1.8617,-1.9142,-1.9605,-2.0064,-2.0688,-2.0634,-2.0111,-2.0632,-2.0391,-2.0051,-2.0258,-2.0523,-2.0709,-2.1033,-2.1229,-2.1313,-2.1568,-2.1855,-2.2184,-2.2417,-2.2709,-2.3068,-2.3421,-2.3739,-2.3952,-2.4219,-2.4467,-2.467,-2.4846,-2.5021,-2.5045,-2.5162,-2.524,-2.5185,-2.5339,-2.5454,-2.5492,-2.5642,-2.5738,-2.5828,-2.5954,-2.6063,-2.6082,-2.626,-2.6469,-2.6657,-2.6758,-2.6939,-2.7276,-2.7552,-2.7701,-2.7864,-2.7968,-2.8099,-2.8182,-2.8237,-2.8291,-2.8398,-2.8424,-2.846,-2.8756,-2.9296,-2.9782,-2.9972,-3.0767,-3.1547,-3.212,-3.2529,-3.2894,-3.3524,-3.377,-3.3842,-3.3895,-3.3947,-3.3998,-3.4049,-3.4117,-3.4173,-3.4221,-3.4245,-3.4245,-3.4245,-3.4293,-3.4316,-3.4316,-3.4363,-3.4427,-3.445,-3.4514,-3.4495,-3.4517,-3.4517,-3.4558,-3.4558,-3.458,-3.4623,-3.4687,-3.4768,-3.4848,-3.4868,-3.4888,-3.4888,-3.4868,-3.4868,-3.4787,-3.4687,-3.4645,-3.4623,-3.4561,-3.4498,-3.4473,-3.445,-3.4404,-3.4358,-1.7794,-1.8482,-1.9008,-1.9473,-1.9901,-2.0262,-2.0182,-1.9913,-2.0058,-1.9976,-1.9741,-1.9965,-2.0321,-2.0623,-2.0822,-2.097,-2.1131,-2.1375,-2.1712,-2.2044,-2.2278,-2.2449,-2.2678,-2.3068,-2.3392,-2.3668,-2.3867,-2.4094,-2.4343,-2.4549,-2.4686,-2.4806,-2.4966,-2.5084,-2.5107,-2.5224,-2.5301,-2.5339,-2.5492,-2.5589,-2.5696,-2.5791,-2.5937,-2.601,-2.6173,-2.6383,-2.6504,-2.6657,-2.6791,-2.6989,-2.7276,-2.7522,-2.7672,-2.7806,-2.7911,-2.7996,-2.8099,-2.8154,-2.8237,-2.8291,-2.8336,-2.8353,-2.882,-2.8972,-2.9269,-2.9864,-3.0478,-3.1039,-3.1492,-3.2083,-3.2985,-3.3597,-3.3725,-3.3807,-3.3887,-3.3921,-3.3947,-3.3998,-3.4074,-3.4124,-3.4148,-3.4173,-3.4197,-3.4221,-3.4245,-3.4245,-3.4293,-3.434,-3.4381,-3.4404,-3.445,-3.445,-3.445,-3.445,-3.4473,-3.4495,-3.4539,-3.4583,-3.4666,-3.4747,-3.4809,-3.481,-3.483,-3.4829,-3.4807,-3.4727,-3.4645,-3.4602,-3.458,-3.4517,-3.4495,-3.4409,-3.4363,-3.434,-3.4293,-1.7813,-1.8269,-1.8808,-1.933,-1.9792,-1.9838,-1.9733,-1.9572,-1.9502,-1.9461,-1.9429,-1.9656,-2.0055,-2.0409,-2.061,-2.0785,-2.1033,-2.1277,-2.1602,-2.1902,-2.2077,-2.2278,-2.2449,-2.2723,-2.3053,-2.3378,-2.3581,-2.3754,-2.3967,-2.4151,-2.44,-2.4564,-2.4686,-2.4846,-2.5029,-2.5107,-2.5146,-2.524,-2.5355,-2.547,-2.5562,-2.5642,-2.5791,-2.601,-2.6118,-2.626,-2.6365,-2.6504,-2.6657,-2.6691,-2.694,-2.7198,-2.7417,-2.7582,-2.7701,-2.776,-2.7864,-2.7968,-2.8071,-2.8126,-2.8209,-2.8273,-2.8362,-2.8389,-2.8595,-2.9035,-2.9539,-3.0026,-3.0586,-3.1447,-3.2302,-3.2922,-3.3433,-3.3662,-3.3753,-3.3834,-3.3887,-3.3947,-3.3998,-3.4074,-3.4099,-3.4099,-3.4124,-3.4148,-3.4173,-3.4173,-3.4221,-3.4269,-3.4293,-3.4316,-3.4363,-3.4381,-3.4404,-3.4358,-3.4358,-3.4404,-3.445,-3.4473,-3.4539,-3.4623,-3.4727,-3.4708,-3.4689,-3.4728,-3.4706,-3.4666,-3.4604,-3.4561,-3.4517,-3.4495,-3.445,-3.4363,-3.4316,-3.4274,-3.4245,-1.7588,-1.8076,-1.8607,-1.9075,-1.941,-1.9425,-1.9432,-1.9406,-1.9308,-1.9219,-1.9141,-1.9604,-1.9798,-2.0055,-2.0459,-2.0772,-2.1082,-2.1264,-2.1471,-2.1712,-2.1888,-2.2091,-2.2278,-2.2417,-2.2661,-2.2962,-2.326,-2.3538,-2.3696,-2.3925,-2.4135,-2.4359,-2.4498,-2.4661,-2.4846,-2.4966,-2.5029,-2.5107,-2.524,-2.5355,-2.5432,-2.5562,-2.5733,-2.5937,-2.6046,-2.6154,-2.626,-2.633,-2.6453,-2.6674,-2.6725,-2.6875,-2.712,-2.7324,-2.7478,-2.76,-2.7689,-2.7777,-2.7864,-2.7968,-2.8071,-2.8126,-2.8209,-2.8264,-2.8336,-2.8497,-2.8945,-2.9566,-3.0305,-3.1219,-3.2117,-3.2365,-3.2931,-3.3396,-3.3607,-3.3698,-3.3788,-3.3834,-3.3868,-3.3972,-3.3998,-3.4023,-3.4074,-3.4074,-3.4074,-3.4099,-3.4124,-3.4148,-3.4173,-3.4221,-3.4269,-3.4293,-3.4316,-3.4269,-3.4245,-3.4293,-3.4316,-3.434,-3.4427,-3.4473,-3.4536,-3.4558,-3.4539,-3.4602,-3.4645,-3.4645,-3.4583,-3.4517,-3.445,-3.4404,-3.4358,-3.4293,-3.4269,-3.4227,-3.4221,-1.7442,-1.792,-1.8539,-1.8798,-1.8856,-1.8994,-1.8956,-1.8776,-1.8724,-1.8752,-1.8952,-1.9251,-1.9552,-1.9811,-2.0003,-2.0409,-2.0822,-2.1019,-2.1215,-2.1458,-2.1698,-2.1888,-2.2091,-2.2217,-2.237,-2.2615,-2.2947,-2.3216,-2.3378,-2.3668,-2.3882,-2.4051,-2.4276,-2.4482,-2.4645,-2.4822,-2.4886,-2.495,-2.5123,-2.524,-2.5262,-2.5448,-2.5712,-2.5828,-2.5937,-2.6046,-2.6118,-2.626,-2.6349,-2.6469,-2.6555,-2.6674,-2.6808,-2.6973,-2.7135,-2.7355,-2.7478,-2.7612,-2.7701,-2.7836,-2.7893,-2.8042,-2.8099,-2.8154,-2.8209,-2.83,-2.8497,-2.8963,-2.9692,-3.0377,-3.0821,-3.1356,-3.2038,-3.2739,-3.3013,-3.325,-3.357,-3.3643,-3.3743,-3.3805,-3.3895,-3.3947,-3.4023,-3.4023,-3.3998,-3.4023,-3.4023,-3.4049,-3.4049,-3.4124,-3.4197,-3.4173,-3.4197,-3.4197,-3.4148,-3.4173,-3.4221,-3.4245,-3.4269,-3.4358,-3.4404,-3.4427,-3.4473,-3.4495,-3.4539,-3.4583,-3.4539,-3.4473,-3.4404,-3.4316,-3.4269,-3.4245,-3.4221,-3.4197,-3.4173,-1.7373,-1.7716,-1.8405,-1.8609,-1.8415,-1.8537,-1.8436,-1.8176,-1.8091,-1.8271,-1.8679,-1.8934,-1.9239,-1.954,-1.9798,-2.0105,-2.056,-2.0759,-2.1006,-2.1313,-2.1506,-2.1698,-2.1902,-2.2091,-2.2231,-2.2385,-2.2629,-2.2826,-2.3112,-2.3363,-2.3581,-2.3782,-2.4051,-2.4276,-2.4441,-2.4605,-2.4686,-2.4862,-2.4926,-2.5029,-2.5185,-2.5394,-2.56,-2.568,-2.5828,-2.5917,-2.601,-2.6154,-2.626,-2.633,-2.6434,-2.6537,-2.6657,-2.6674,-2.6791,-2.7053,-2.7261,-2.7448,-2.7552,-2.7672,-2.7777,-2.7893,-2.8014,-2.8071,-2.8126,-2.8182,-2.8272,-2.8416,-2.8874,-2.953,-2.9899,-3.0342,-3.1093,-3.1774,-3.2129,-3.2375,-3.2985,-3.3286,-3.3442,-3.3561,-3.3752,-3.386,-3.3895,-3.3921,-3.3921,-3.3921,-3.3947,-3.3972,-3.3998,-3.4023,-3.4074,-3.4049,-3.4074,-3.4099,-3.4074,-3.4074,-3.4124,-3.4148,-3.4173,-3.4216,-3.4288,-3.4358,-3.4363,-3.4409,-3.4473,-3.4517,-3.4473,-3.4427,-3.4363,-3.4293,-3.4245,-3.4197,-3.4173,-3.4148,-3.4124,-1.7314,-1.7598,-1.8279,-1.8354,-1.8148,-1.8217,-1.8186,-1.8016,-1.7935,-1.803,-1.8302,-1.8732,-1.904,-1.9251,-1.9592,-2.0105,-2.0472,-2.0623,-2.0822,-2.118,-2.1326,-2.152,-2.1712,-2.1902,-2.2091,-2.2231,-2.2385,-2.2646,-2.2873,-2.3053,-2.3319,-2.3566,-2.3696,-2.3882,-2.4219,-2.4359,-2.4508,-2.4742,-2.4822,-2.4926,-2.5068,-2.524,-2.5394,-2.5562,-2.5675,-2.5749,-2.5901,-2.6026,-2.6118,-2.626,-2.6295,-2.6382,-2.6503,-2.6589,-2.6657,-2.6842,-2.7021,-2.7244,-2.7307,-2.7461,-2.763,-2.7748,-2.7871,-2.7975,-2.8071,-2.8154,-2.8182,-2.8209,-2.8452,-2.8793,-2.9314,-2.9629,-3.0261,-3.0758,-3.1157,-3.1638,-3.2274,-3.2764,-3.2938,-3.3285,-3.3478,-3.3671,-3.3807,-3.3807,-3.3834,-3.386,-3.3887,-3.3913,-3.3939,-3.3947,-3.3972,-3.3991,-3.3991,-3.3998,-3.4023,-3.3998,-3.4023,-3.4023,-3.4049,-3.4092,-3.4148,-3.4245,-3.4293,-3.4316,-3.4404,-3.4427,-3.4381,-3.4316,-3.4316,-3.4269,-3.4221,-3.4173,-3.4142,-3.4099,-3.4074,-1.7107,-1.7539,-1.8144,-1.8081,-1.765,-1.7988,-1.7905,-1.756,-1.7679,-1.792,-1.8139,-1.8476,-1.8786,-1.904,-1.9488,-1.985,-2.0156,-2.0359,-2.061,-2.0871,-2.1118,-2.1361,-2.1506,-2.1698,-2.1841,-2.2091,-2.2231,-2.2385,-2.2646,-2.2859,-2.3127,-2.3319,-2.3523,-2.3696,-2.3952,-2.4094,-2.4302,-2.4523,-2.4701,-2.4902,-2.5045,-2.5123,-2.524,-2.541,-2.554,-2.5637,-2.5749,-2.5881,-2.599,-2.6118,-2.6118,-2.6241,-2.6347,-2.6417,-2.6486,-2.6589,-2.6758,-2.6989,-2.7181,-2.7324,-2.743,-2.7612,-2.7736,-2.7882,-2.7996,-2.8099,-2.8136,-2.8154,-2.8209,-2.846,-2.8748,-2.8829,-2.9395,-2.9891,-3.0188,-3.0749,-3.1365,-3.197,-3.2386,-3.2817,-3.3201,-3.3395,-3.3606,-3.3698,-3.3753,-3.3807,-3.3807,-3.3834,-3.386,-3.386,-3.3895,-3.3965,-3.3965,-3.3965,-3.3947,-3.3947,-3.3921,-3.3947,-3.3947,-3.3972,-3.4067,-3.4124,-3.4148,-3.4197,-3.4245,-3.4269,-3.4264,-3.4269,-3.4274,-3.4245,-3.4216,-3.4167,-3.4099,-3.4067,-3.4023,-1.676,-1.7392,-1.8008,-1.783,-1.7252,-1.7843,-1.769,-1.7076,-1.7479,-1.7822,-1.803,-1.8302,-1.8679,-1.8987,-1.9356,-1.9617,-1.9798,-2.0105,-2.0359,-2.0623,-2.0871,-2.1068,-2.1264,-2.1396,-2.165,-2.1841,-2.2091,-2.2231,-2.2417,-2.2632,-2.2873,-2.3023,-2.3319,-2.3523,-2.3638,-2.3852,-2.4078,-2.4359,-2.458,-2.4782,-2.4886,-2.4934,-2.5068,-2.5201,-2.5371,-2.5486,-2.5616,-2.5712,-2.586,-2.5954,-2.601,-2.6099,-2.6189,-2.6295,-2.6365,-2.6452,-2.6623,-2.6775,-2.6989,-2.7149,-2.7324,-2.7461,-2.7642,-2.7806,-2.794,-2.8025,-2.8053,-2.8053,-2.8081,-2.8164,-2.8237,-2.83,-2.8658,-2.9053,-2.9305,-2.9808,-3.034,-3.0908,-3.1657,-3.2329,-3.273,-3.3114,-3.3356,-3.3541,-3.3661,-3.3744,-3.3753,-3.3753,-3.3753,-3.378,-3.378,-3.3834,-3.3807,-3.3807,-3.3807,-3.3815,-3.3834,-3.386,-3.386,-3.3887,-3.3939,-3.3991,-3.4016,-3.4049,-3.4105,-3.4173,-3.4173,-3.4245,-3.425,-3.4245,-3.4216,-3.4148,-3.4099,-3.4023,-3.3965,-1.6289,-1.7047,-1.7735,-1.7576,-1.6981,-1.7637,-1.749,-1.6938,-1.7445,-1.7711,-1.7865,-1.829,-1.8732,-1.8999,-1.9158,-1.946,-1.9798,-1.985,-2.0055,-2.0372,-2.0573,-2.0759,-2.0957,-2.1215,-2.141,-2.1568,-2.1807,-2.2044,-2.2231,-2.237,-2.2632,-2.2904,-2.3098,-2.3304,-2.3523,-2.3638,-2.3894,-2.4177,-2.4441,-2.458,-2.4645,-2.467,-2.4791,-2.4966,-2.5045,-2.5201,-2.5578,-2.5616,-2.5712,-2.586,-2.5917,-2.5974,-2.6046,-2.6189,-2.626,-2.6312,-2.6434,-2.6589,-2.6725,-2.6989,-2.7181,-2.7307,-2.7491,-2.7719,-2.7842,-2.7957,-2.8014,-2.7996,-2.8042,-2.8071,-2.8099,-2.8144,-2.8334,-2.8433,-2.8702,-2.898,-2.9438,-2.9753,-3.0553,-3.1618,-3.2198,-3.2426,-3.2893,-3.3052,-3.3486,-3.3606,-3.3689,-3.3671,-3.3643,-3.3661,-3.3661,-3.3661,-3.3661,-3.3661,-3.3633,-3.3661,-3.3698,-3.3698,-3.3698,-3.3753,-3.3807,-3.3834,-3.3887,-3.3947,-3.4005,-3.4074,-3.4124,-3.4173,-3.4221,-3.4197,-3.4173,-3.4124,-3.4023,-3.3947,-3.3887,-1.5867,-1.6289,-1.7047,-1.7254,-1.7145,-1.7438,-1.7407,-1.7117,-1.7331,-1.759,-1.7865,-1.8302,-1.8572,-1.8786,-1.8999,-1.921,-1.946,-1.9708,-1.985,-2.0055,-2.0308,-2.051,-2.0772,-2.0921,-2.118,-2.1375,-2.1568,-2.1759,-2.1949,-2.2137,-2.2324,-2.2495,-2.2768,-2.3053,-2.3275,-2.348,-2.3696,-2.3894,-2.4177,-2.44,-2.4426,-2.4549,-2.463,-2.471,-2.4966,-2.5045,-2.5256,-2.541,-2.5562,-2.5675,-2.577,-2.5828,-2.5917,-2.6063,-2.6118,-2.6154,-2.6277,-2.6417,-2.6504,-2.6758,-2.6956,-2.7213,-2.743,-2.76,-2.7724,-2.7795,-2.7871,-2.7929,-2.7957,-2.7968,-2.8042,-2.8025,-2.8071,-2.8081,-2.8208,-2.8413,-2.8655,-2.9005,-2.9497,-3.0592,-3.1141,-3.1494,-3.1995,-3.248,-3.3016,-3.3439,-3.3522,-3.3605,-3.3577,-3.3577,-3.3577,-3.3577,-3.3549,-3.3577,-3.3577,-3.3577,-3.3605,-3.3577,-3.3577,-3.3633,-3.3671,-3.3726,-3.378,-3.3842,-3.3921,-3.3972,-3.4049,-3.4124,-3.4148,-3.4173,-3.4148,-3.4074,-3.3972,-3.3868,-3.3815,-1.5355,-1.5797,-1.6351,-1.6807,-1.7071,-1.7406,-1.738,-1.7193,-1.7399,-1.7601,-1.7909,-1.8259,-1.841,-1.8614,-1.8839,-1.8999,-1.9198,-1.946,-1.9656,-1.985,-2.0055,-2.0258,-2.0422,-2.0623,-2.0822,-2.1131,-2.1277,-2.1423,-2.1712,-2.1902,-2.2091,-2.2263,-2.2495,-2.2783,-2.3098,-2.3363,-2.3523,-2.3681,-2.3852,-2.4177,-2.4219,-2.4359,-2.4467,-2.4508,-2.4726,-2.4862,-2.4982,-2.5162,-2.5317,-2.547,-2.5584,-2.5696,-2.5807,-2.5917,-2.5937,-2.6046,-2.6118,-2.6241,-2.6365,-2.6556,-2.6808,-2.7117,-2.7293,-2.7448,-2.7509,-2.76,-2.7707,-2.7754,-2.7824,-2.7882,-2.7911,-2.794,-2.7986,-2.8042,-2.8025,-2.8177,-2.8266,-2.8525,-2.8945,-2.9543,-3.0,-3.0493,-3.1291,-3.1882,-3.2679,-3.3169,-3.3444,-3.3509,-3.3509,-3.3509,-3.3509,-3.3491,-3.3491,-3.352,-3.3549,-3.3538,-3.3509,-3.3509,-3.3509,-3.352,-3.3577,-3.3615,-3.3698,-3.378,-3.3842,-3.3895,-3.3947,-3.4023,-3.4099,-3.4148,-3.4099,-3.4023,-3.3947,-3.3868,-3.3834,-1.4776,-1.5505,-1.5726,-1.6129,-1.6607,-1.7399,-1.7425,-1.7059,-1.752,-1.7787,-1.7865,-1.8193,-1.8367,-1.8476,-1.8691,-1.8839,-1.8999,-1.9158,-1.9368,-1.9617,-1.9747,-1.9914,-2.008,-2.0271,-2.0523,-2.0673,-2.0871,-2.1131,-2.1375,-2.1602,-2.1841,-2.2044,-2.2278,-2.2509,-2.2904,-2.3187,-2.3392,-2.3551,-2.3595,-2.3824,-2.3982,-2.4151,-2.4234,-2.4317,-2.4426,-2.4605,-2.4726,-2.4926,-2.5045,-2.5201,-2.5394,-2.5562,-2.5637,-2.5787,-2.5881,-2.5974,-2.599,-2.6134,-2.6312,-2.6556,-2.6791,-2.7038,-2.7166,-2.7261,-2.7386,-2.7465,-2.7526,-2.7604,-2.7635,-2.7659,-2.7719,-2.7795,-2.7871,-2.79,-2.7882,-2.7929,-2.7988,-2.8052,-2.8423,-2.8723,-2.9024,-2.9497,-3.0398,-3.1285,-3.2242,-3.2847,-3.3243,-3.3411,-3.3422,-3.3422,-3.3422,-3.3452,-3.3433,-3.3452,-3.3452,-3.3422,-3.3411,-3.3411,-3.3422,-3.3452,-3.3481,-3.352,-3.3605,-3.3671,-3.3753,-3.3807,-3.3868,-3.3947,-3.4023,-3.4074,-3.4023,-3.3972,-3.3895,-3.386,-3.3834,-1.4346,-1.4776,-1.5505,-1.5869,-1.612,-1.6806,-1.7076,-1.7063,-1.735,-1.7522,-1.7667,-1.7975,-1.8139,-1.8259,-1.8422,-1.8691,-1.8839,-1.8999,-1.921,-1.9316,-1.9565,-1.9708,-1.9875,-2.008,-2.0283,-2.0472,-2.0673,-2.0822,-2.1006,-2.1251,-2.1458,-2.1712,-2.2044,-2.2431,-2.2752,-2.2978,-2.3113,-2.326,-2.3436,-2.3653,-2.3739,-2.394,-2.4067,-2.4109,-2.4177,-2.4302,-2.4482,-2.463,-2.4791,-2.495,-2.5201,-2.5317,-2.5448,-2.5637,-2.5733,-2.5791,-2.5864,-2.6026,-2.617,-2.6365,-2.6572,-2.6758,-2.6973,-2.7103,-2.7261,-2.7276,-2.7355,-2.7465,-2.7496,-2.7509,-2.7569,-2.7587,-2.7647,-2.7647,-2.763,-2.7677,-2.7712,-2.7742,-2.7912,-2.81,-2.837,-2.8841,-2.9586,-3.0528,-3.1517,-3.2307,-3.2721,-3.3184,-3.3286,-3.3334,-3.3334,-3.3393,-3.3393,-3.3382,-3.3352,-3.3322,-3.3274,-3.3274,-3.3304,-3.3352,-3.3382,-3.3422,-3.3509,-3.3577,-3.3633,-3.3716,-3.378,-3.3842,-3.3921,-3.3947,-3.3921,-3.3921,-3.386,-3.3834,-3.3834,-1.3494,-1.398,-1.4624,-1.5127,-1.5472,-1.6496,-1.706,-1.7183,-1.7233,-1.7256,-1.749,-1.77,-1.7909,-1.8018,-1.8193,-1.8476,-1.8732,-1.8893,-1.9052,-1.9223,-1.942,-1.9617,-1.9708,-1.9862,-2.008,-2.022,-2.0372,-2.0472,-2.0673,-2.0957,-2.1215,-2.152,-2.1807,-2.2152,-2.2477,-2.2692,-2.2859,-2.3053,-2.326,-2.3377,-2.3523,-2.3696,-2.3839,-2.3882,-2.3967,-2.4094,-2.4219,-2.4385,-2.4533,-2.4695,-2.4871,-2.5029,-2.524,-2.5355,-2.5508,-2.5621,-2.5807,-2.597,-2.6079,-2.6222,-2.6382,-2.6486,-2.6725,-2.6925,-2.7038,-2.707,-2.7184,-2.7279,-2.7341,-2.7386,-2.7386,-2.7404,-2.7465,-2.7465,-2.7496,-2.7526,-2.7557,-2.7587,-2.7587,-2.7742,-2.7883,-2.8335,-2.8882,-2.9786,-3.0747,-3.1449,-3.2166,-3.2647,-3.3129,-3.3214,-3.3244,-3.3304,-3.3286,-3.3256,-3.3244,-3.3214,-3.3165,-3.3135,-3.3165,-3.3214,-3.3244,-3.3286,-3.3393,-3.3481,-3.3538,-3.3605,-3.3689,-3.3753,-3.3807,-3.386,-3.3842,-3.3815,-3.3807,-3.3807,-3.3807,-1.2323,-1.3042,-1.3325,-1.3882,-1.4703,-1.6193,-1.7071,-1.7277,-1.7064,-1.7032,-1.7278,-1.7545,-1.77,-1.7854,-1.803,-1.8247,-1.856,-1.8744,-1.8905,-1.9117,-1.9328,-1.946,-1.9604,-1.9708,-1.9875,-1.9978,-2.008,-2.022,-2.0372,-2.066,-2.0957,-2.1264,-2.1554,-2.1855,-2.2137,-2.2417,-2.2646,-2.2828,-2.2994,-2.3113,-2.3304,-2.348,-2.361,-2.3653,-2.3797,-2.3925,-2.4009,-2.4078,-2.4204,-2.4328,-2.4508,-2.4766,-2.4926,-2.5068,-2.5278,-2.5508,-2.5733,-2.573,-2.5881,-2.6026,-2.6134,-2.6208,-2.6486,-2.664,-2.6775,-2.6892,-2.6975,-2.7072,-2.7137,-2.7166,-2.7198,-2.7261,-2.7373,-2.7373,-2.7404,-2.7434,-2.7465,-2.7448,-2.7478,-2.7557,-2.7617,-2.7975,-2.8504,-2.9299,-3.0044,-3.0902,-3.1622,-3.2317,-3.2764,-3.3104,-3.3135,-3.3165,-3.3165,-3.3117,-3.3104,-3.3122,-3.3073,-3.3042,-3.3055,-3.3135,-3.3165,-3.3196,-3.3256,-3.3345,-3.3452,-3.3509,-3.3577,-3.3633,-3.3716,-3.3726,-3.378,-3.3807,-3.3807,-3.378,-3.378,-1.2119,-1.2586,-1.3124,-1.3584,-1.3974,-1.4794,-1.564,-1.6416,-1.6407,-1.6513,-1.6797,-1.7211,-1.7434,-1.749,-1.781,-1.803,-1.8302,-1.8518,-1.8744,-1.8958,-1.917,-1.9316,-1.9473,-1.9565,-1.972,-1.9811,-1.9862,-1.9926,-2.0131,-2.0372,-2.0646,-2.0944,-2.1264,-2.152,-2.1712,-2.1996,-2.2324,-2.2646,-2.2768,-2.2904,-2.3038,-2.326,-2.3348,-2.3451,-2.3581,-2.3668,-2.3739,-2.3824,-2.3952,-2.412,-2.4302,-2.4508,-2.467,-2.4846,-2.5005,-2.5144,-2.5115,-2.5094,-2.5517,-2.5402,-2.5445,-2.5888,-2.6118,-2.6382,-2.6521,-2.6657,-2.6742,-2.6842,-2.6909,-2.6957,-2.7006,-2.7087,-2.7152,-2.7201,-2.7215,-2.7247,-2.7279,-2.7293,-2.7324,-2.7448,-2.7478,-2.7596,-2.8154,-2.8601,-2.933,-3.0254,-3.1091,-3.1753,-3.2414,-3.2755,-3.3011,-3.3042,-3.3055,-3.3055,-3.3042,-3.306,-3.3011,-3.2979,-3.3011,-3.3024,-3.3042,-3.3104,-3.3165,-3.3226,-3.3316,-3.3375,-3.3452,-3.3538,-3.3605,-3.3661,-3.3671,-3.3753,-3.378,-3.3753,-3.3726,-1.1354,-1.1751,-1.2327,-1.2791,-1.3268,-1.3706,-1.4417,-1.5153,-1.5635,-1.6046,-1.64,-1.6818,-1.711,-1.7334,-1.7545,-1.781,-1.815,-1.8302,-1.8518,-1.8786,-1.9011,-1.9105,-1.9263,-1.942,-1.9565,-1.9604,-1.9656,-1.9668,-1.9823,-2.0118,-2.0359,-2.0746,-2.1019,-2.1215,-2.141,-2.1698,-2.1996,-2.2278,-2.254,-2.2723,-2.2918,-2.3053,-2.3142,-2.3231,-2.3319,-2.3392,-2.348,-2.3581,-2.3696,-2.3867,-2.4009,-2.4135,-2.4369,-2.4564,-2.4846,-2.5005,-2.4968,-2.5072,-2.5373,-2.5276,-2.5366,-2.5587,-2.5791,-2.5974,-2.6189,-2.633,-2.6486,-2.6589,-2.6674,-2.6742,-2.6809,-2.6876,-2.6909,-2.6959,-2.7007,-2.704,-2.7087,-2.7103,-2.7198,-2.7324,-2.7404,-2.7434,-2.7722,-2.8115,-2.8613,-2.9429,-3.0279,-3.1062,-3.1845,-3.2538,-3.2781,-3.2916,-3.2961,-3.2993,-3.2979,-3.2965,-3.2965,-3.2916,-3.2948,-3.2948,-3.2979,-3.3011,-3.3073,-3.3117,-3.3178,-3.3256,-3.3334,-3.3422,-3.3538,-3.3549,-3.3605,-3.3661,-3.3716,-3.3726,-3.3716,-1.0308,-1.0828,-1.1178,-1.1924,-1.2567,-1.3128,-1.3484,-1.3881,-1.4824,-1.5584,-1.5999,-1.641,-1.6818,-1.7054,-1.7323,-1.7601,-1.7865,-1.803,-1.8302,-1.8572,-1.8786,-1.8946,-1.9052,-1.921,-1.9303,-1.9368,-1.9368,-1.942,-1.9473,-1.9759,-2.0156,-2.051,-2.066,-2.0858,-2.1166,-2.141,-2.1664,-2.1935,-2.2231,-2.2417,-2.2706,-2.2828,-2.2949,-2.3023,-2.3142,-2.3216,-2.3216,-2.3275,-2.3334,-2.3451,-2.3625,-2.3754,-2.4051,-2.4302,-2.463,-2.4721,-2.472,-2.4932,-2.508,-2.5067,-2.5185,-2.5357,-2.5492,-2.5605,-2.5828,-2.603,-2.6189,-2.6295,-2.6382,-2.6503,-2.6555,-2.6623,-2.6691,-2.6742,-2.6826,-2.6876,-2.6925,-2.6973,-2.7087,-2.7184,-2.7215,-2.7247,-2.7345,-2.7705,-2.808,-2.8749,-2.9318,-3.0182,-3.1155,-3.2024,-3.2441,-3.2666,-3.2802,-3.2866,-3.2884,-3.2902,-3.2902,-3.2884,-3.2884,-3.2916,-3.2948,-3.2979,-3.3011,-3.3073,-3.3104,-3.3135,-3.3214,-3.3334,-3.3422,-3.3452,-3.3491,-3.3577,-3.3605,-3.3633,-3.3633,-1.0244,-1.0744,-1.1365,-1.1934,-1.2428,-1.2736,-1.3155,-1.3631,-1.4121,-1.4765,-1.54,-1.5931,-1.6353,-1.6658,-1.711,-1.7379,-1.749,-1.781,-1.803,-1.8247,-1.8476,-1.8679,-1.8786,-1.8905,-1.9052,-1.9146,-1.9198,-1.9158,-1.9316,-1.9617,-1.985,-2.0055,-2.0295,-2.066,-2.0858,-2.1118,-2.141,-2.1554,-2.1793,-2.2091,-2.237,-2.2569,-2.2706,-2.2752,-2.2814,-2.2844,-2.2889,-2.3038,-2.3127,-2.3216,-2.3407,-2.3625,-2.3839,-2.4051,-2.4219,-2.4348,-2.4295,-2.4492,-2.4705,-2.4814,-2.4828,-2.5089,-2.5262,-2.5355,-2.5492,-2.5701,-2.5885,-2.601,-2.6118,-2.6241,-2.6312,-2.6365,-2.6435,-2.6537,-2.6623,-2.6708,-2.6792,-2.6859,-2.6975,-2.7007,-2.704,-2.7105,-2.7137,-2.7324,-2.7665,-2.8058,-2.8451,-2.919,-3.0398,-3.1352,-3.1943,-3.2254,-3.2586,-3.2705,-3.2755,-3.2787,-3.282,-3.2852,-3.2834,-3.2866,-3.2884,-3.2884,-3.2916,-3.2948,-3.2997,-3.306,-3.3122,-3.3232,-3.3322,-3.3334,-3.3422,-3.3481,-3.352,-3.352,-3.352,-0.9977,-1.0428,-1.1185,-1.174,-1.212,-1.2428,-1.2797,-1.3216,-1.3631,-1.4112,-1.4765,-1.541,-1.5941,-1.6192,-1.6705,-1.7054,-1.7155,-1.7479,-1.7645,-1.7865,-1.815,-1.8302,-1.8464,-1.8637,-1.8786,-1.8881,-1.8946,-1.9011,-1.917,-1.9368,-1.9565,-1.9747,-2.0156,-2.0346,-2.051,-2.0871,-2.1118,-2.1229,-2.1423,-2.1712,-2.1996,-2.2184,-2.237,-2.2417,-2.2463,-2.248,-2.2586,-2.2723,-2.2814,-2.2904,-2.3083,-2.3319,-2.3523,-2.3711,-2.3925,-2.4059,-2.4056,-2.4048,-2.4396,-2.45,-2.4445,-2.4768,-2.4895,-2.495,-2.506,-2.5262,-2.5454,-2.5567,-2.5791,-2.5901,-2.5974,-2.6082,-2.6154,-2.6241,-2.6382,-2.6486,-2.6589,-2.6708,-2.6809,-2.6859,-2.6892,-2.7007,-2.704,-2.7089,-2.7396,-2.7516,-2.7891,-2.8352,-2.9537,-3.0558,-3.1164,-3.1772,-3.2137,-3.2484,-3.2672,-3.2705,-3.2705,-3.2737,-3.277,-3.277,-3.2737,-3.2737,-3.2787,-3.282,-3.2852,-3.2934,-3.2997,-3.3091,-3.3152,-3.3196,-3.3304,-3.3411,-3.3422,-3.3433,-3.3452,-0.9722,-1.011,-1.0807,-1.131,-1.174,-1.2112,-1.2428,-1.2797,-1.3216,-1.364,-1.4061,-1.4883,-1.541,-1.5826,-1.6181,-1.6477,-1.6761,-1.7032,-1.7256,-1.7534,-1.781,-1.7975,-1.8139,-1.8344,-1.8506,-1.8625,-1.8732,-1.8905,-1.9117,-1.921,-1.9356,-1.9656,-1.985,-1.9952,-2.0258,-2.0459,-2.066,-2.0885,-2.1082,-2.1166,-2.1458,-2.1712,-2.1949,-2.2091,-2.2137,-2.2217,-2.2263,-2.237,-2.2417,-2.2601,-2.2768,-2.2994,-2.3172,-2.3348,-2.3581,-2.3736,-2.3933,-2.4028,-2.4328,-2.442,-2.443,-2.4533,-2.4533,-2.4589,-2.4742,-2.4862,-2.5045,-2.5185,-2.5378,-2.5567,-2.5642,-2.5754,-2.5828,-2.599,-2.6154,-2.6312,-2.6434,-2.6554,-2.664,-2.6691,-2.6759,-2.6893,-2.6926,-2.6959,-2.706,-2.7195,-2.745,-2.7944,-2.8576,-2.9487,-3.0264,-3.1009,-3.1583,-3.1982,-3.2451,-3.2606,-3.2606,-3.2621,-3.2672,-3.2621,-3.2588,-3.2672,-3.2672,-3.2672,-3.2722,-3.2787,-3.2852,-3.2948,-3.3011,-3.3073,-3.3165,-3.3274,-3.3352,-3.3364,-3.3393,-0.9722,-1.0308,-1.0674,-1.0996,-1.131,-1.1872,-1.2243,-1.2428,-1.292,-1.3285,-1.364,-1.4181,-1.4765,-1.5526,-1.5874,-1.6114,-1.6363,-1.6648,-1.7043,-1.7323,-1.7423,-1.7601,-1.7822,-1.8073,-1.8182,-1.841,-1.8572,-1.8732,-1.8905,-1.8999,-1.9105,-1.9316,-1.9565,-1.9708,-1.9901,-2.0105,-2.0321,-2.0485,-2.0623,-2.0759,-2.1006,-2.1313,-2.1616,-2.1759,-2.1855,-2.1902,-2.1949,-2.203,-2.2137,-2.2324,-2.2509,-2.2678,-2.2799,-2.2979,-2.3216,-2.3436,-2.3595,-2.3782,-2.3967,-2.4135,-2.4162,-2.4245,-2.4287,-2.4385,-2.4482,-2.4539,-2.4686,-2.4751,-2.4989,-2.5185,-2.5339,-2.5454,-2.553,-2.5791,-2.5974,-2.6134,-2.6274,-2.6415,-2.652,-2.6572,-2.6606,-2.6691,-2.6708,-2.6742,-2.6809,-2.6927,-2.6978,-2.7452,-2.7963,-2.8664,-2.9402,-3.011,-3.0889,-3.1707,-3.2264,-3.2472,-3.2523,-3.2539,-3.2573,-3.2539,-3.2539,-3.2588,-3.2606,-3.259,-3.2573,-3.2639,-3.2737,-3.282,-3.2866,-3.2961,-3.3055,-3.3147,-3.3244,-3.3322,-3.3352]}]]